[[{"header":{"parameterUnit":"m.s-1","parameterCategory":1,"la1":30.6,"la2":29.2853,"lo1":-89.7004,"lo2":-87.6739,"dx":0.0162,"dy":0.0183,"nx":112,"ny":82,"refTime":"2022-11-23T18:00:00:Z","depth":0,"parameterNumber":2,"parameterNumberName":"U-component_of_WINDS"},"data":[0.0,0.0,0.0,0.0,0.0,0.0,0.0,0.0,0.0,0.0,0.0,0.0,0.0,0.0,0.0,0.0,0.0,0.0,0.0,0.0,0.0,0.0,0.0,0.0,0.0,0.0,0.0,0.0,0.0,0.0,0.0,0.0,0.0,0.0,0.0,0.0,0.0,0.0,0.0,0.0,0.0,0.0,0.0,0.0,0.0,0.0,0.0,0.0,0.0,0.0,0.0,0.0,0.0,0.0,0.0,0.0,0.0,0.0,0.0,0.0,0.0,0.0,0.0,0.0,0.0,0.0,0.0,0.0,0.0,0.0,0.0,0.0,0.0,0.0,0.0,0.0,0.0,0.0,0.0,0.0,0.0,0.0,0.0,0.0,0.0,0.0,0.0,0.0,0.0,0.0,-5.4261,-5.5299,-5.6902,-5.7835,-5.8037,-5.7373,-5.5718,-5.2695,0.0,0.0,0.0,0.0,0.0,0.0,0.0,0.0,0.0,0.0,0.0,0.0,0.0,0.0,0.0,0.0,0.0,0.0,0.0,0.0,0.0,0.0,0.0,0.0,0.0,0.0,0.0,0.0,0.0,0.0,0.0,0.0,0.0,0.0,0.0,0.0,0.0,0.0,0.0,0.0,0.0,0.0,0.0,0.0,0.0,0.0,0.0,0.0,0.0,0.0,0.0,0.0,0.0,0.0,0.0,0.0,0.0,0.0,0.0,0.0,0.0,0.0,0.0,0.0,0.0,0.0,0.0,0.0,0.0,0.0,0.0,0.0,0.0,0.0,0.0,0.0,0.0,0.0,0.0,0.0,0.0,0.0,0.0,0.0,0.0,0.0,0.0,0.0,0.0,0.0,0.0,0.0,0.0,0.0,0.0,0.0,0.0,0.0,0.0,0.0,0.0,0.0,0.0,0.0,-5.5292,-5.8736,-5.8429,-5.7933,-5.7774,-5.8196,-5.7035,-5.3704,0.0,0.0,0.0,0.0,0.0,0.0,0.0,0.0,0.0,0.0,0.0,0.0,0.0,0.0,0.0,0.0,0.0,0.0,0.0,0.0,0.0,0.0,0.0,0.0,0.0,0.0,0.0,0.0,0.0,0.0,0.0,0.0,0.0,0.0,0.0,0.0,0.0,0.0,0.0,0.0,0.0,0.0,0.0,0.0,0.0,0.0,0.0,0.0,0.0,0.0,0.0,0.0,0.0,0.0,0.0,0.0,0.0,0.0,0.0,0.0,0.0,0.0,0.0,0.0,0.0,0.0,0.0,0.0,0.0,0.0,0.0,0.0,0.0,0.0,0.0,0.0,0.0,0.0,0.0,0.0,0.0,0.0,0.0,0.0,0.0,0.0,0.0,0.0,0.0,0.0,0.0,0.0,0.0,0.0,0.0,0.0,0.0,0.0,0.0,0.0,0.0,0.0,0.0,-5.2608,-5.5459,-5.9919,-5.897,-5.8179,-5.8746,-5.849,-5.6869,-5.3799,-5.277,0.0,0.0,0.0,0.0,0.0,0.0,0.0,0.0,0.0,0.0,0.0,0.0,0.0,0.0,0.0,0.0,0.0,0.0,0.0,0.0,0.0,0.0,0.0,0.0,0.0,0.0,0.0,0.0,0.0,0.0,0.0,0.0,0.0,0.0,0.0,0.0,0.0,0.0,0.0,0.0,0.0,0.0,0.0,0.0,0.0,0.0,0.0,0.0,0.0,0.0,0.0,0.0,0.0,0.0,0.0,0.0,0.0,0.0,0.0,0.0,0.0,0.0,0.0,0.0,0.0,0.0,0.0,0.0,0.0,0.0,0.0,0.0,0.0,0.0,0.0,0.0,0.0,0.0,0.0,0.0,0.0,0.0,0.0,0.0,0.0,0.0,0.0,0.0,0.0,0.0,0.0,0.0,0.0,0.0,0.0,0.0,0.0,0.0,0.0,0.0,0.0,0.0,-5.5234,-5.7478,-6.0805,-5.9567,-5.8837,-5.9474,-5.8688,-5.6753,-5.3468,-5.2417,0.0,0.0,0.0,0.0,0.0,0.0,0.0,0.0,0.0,0.0,0.0,0.0,0.0,0.0,0.0,0.0,0.0,0.0,0.0,0.0,0.0,0.0,0.0,0.0,0.0,0.0,0.0,0.0,0.0,0.0,0.0,0.0,0.0,0.0,0.0,0.0,0.0,0.0,0.0,0.0,0.0,0.0,0.0,0.0,0.0,0.0,0.0,0.0,0.0,0.0,0.0,0.0,0.0,0.0,0.0,0.0,0.0,0.0,0.0,0.0,0.0,0.0,0.0,0.0,0.0,0.0,0.0,0.0,0.0,0.0,0.0,0.0,0.0,0.0,0.0,0.0,0.0,0.0,0.0,0.0,0.0,0.0,0.0,0.0,0.0,0.0,0.0,0.0,0.0,0.0,0.0,0.0,0.0,0.0,0.0,0.0,0.0,0.0,0.0,0.0,0.0,0.0,-5.9943,-6.3544,-6.207,-6.0795,-5.9656,-5.8869,-5.9336,-5.7625,-5.2851,-5.2154,0.0,0.0,0.0,0.0,0.0,0.0,0.0,0.0,0.0,0.0,0.0,0.0,0.0,0.0,0.0,0.0,0.0,0.0,0.0,0.0,0.0,0.0,0.0,0.0,0.0,0.0,0.0,0.0,0.0,0.0,0.0,0.0,0.0,0.0,0.0,0.0,0.0,0.0,0.0,0.0,0.0,0.0,0.0,0.0,0.0,0.0,0.0,0.0,0.0,0.0,0.0,0.0,0.0,0.0,0.0,0.0,0.0,0.0,0.0,0.0,0.0,0.0,0.0,0.0,0.0,0.0,0.0,0.0,0.0,0.0,0.0,0.0,0.0,0.0,0.0,0.0,0.0,0.0,0.0,0.0,0.0,0.0,0.0,0.0,0.0,0.0,0.0,0.0,0.0,0.0,0.0,0.0,0.0,0.0,0.0,0.0,0.0,0.0,0.0,0.0,0.0,0.0,-5.8197,-6.0905,0.0,-6.0709,-5.9624,-6.0017,-5.9415,-5.7697,-5.4412,0.0,0.0,0.0,0.0,0.0,0.0,0.0,0.0,0.0,0.0,0.0,0.0,0.0,0.0,0.0,0.0,0.0,0.0,0.0,0.0,0.0,0.0,0.0,0.0,0.0,0.0,0.0,0.0,0.0,0.0,0.0,0.0,0.0,0.0,0.0,0.0,0.0,0.0,0.0,0.0,0.0,0.0,0.0,0.0,0.0,0.0,0.0,0.0,0.0,0.0,0.0,0.0,0.0,0.0,0.0,0.0,0.0,0.0,0.0,0.0,0.0,0.0,0.0,0.0,0.0,0.0,0.0,0.0,0.0,0.0,0.0,0.0,0.0,0.0,0.0,0.0,0.0,0.0,0.0,0.0,0.0,0.0,0.0,0.0,0.0,0.0,0.0,0.0,0.0,0.0,0.0,0.0,0.0,0.0,0.0,0.0,0.0,0.0,0.0,0.0,0.0,0.0,-5.4757,-5.7976,-6.053,0.0,-6.0982,-6.0157,-6.0733,-5.9928,-5.8185,-5.538,0.0,0.0,0.0,0.0,0.0,0.0,0.0,0.0,0.0,0.0,0.0,0.0,0.0,0.0,0.0,0.0,0.0,0.0,0.0,0.0,0.0,0.0,0.0,0.0,0.0,0.0,0.0,0.0,0.0,0.0,0.0,0.0,0.0,0.0,0.0,0.0,0.0,0.0,0.0,0.0,0.0,0.0,0.0,0.0,0.0,0.0,0.0,0.0,0.0,0.0,0.0,0.0,0.0,0.0,0.0,0.0,0.0,0.0,0.0,0.0,0.0,0.0,0.0,0.0,0.0,0.0,0.0,0.0,0.0,0.0,0.0,0.0,0.0,0.0,0.0,0.0,0.0,0.0,0.0,0.0,0.0,0.0,0.0,0.0,0.0,0.0,0.0,0.0,0.0,0.0,0.0,0.0,0.0,0.0,0.0,0.0,0.0,0.0,0.0,0.0,0.0,0.0,-5.4424,-6.0469,-6.3862,-6.209,-6.1922,-6.1652,-6.0897,-6.0824,-5.9251,0.0,0.0,0.0,0.0,0.0,0.0,0.0,0.0,0.0,0.0,0.0,0.0,0.0,0.0,0.0,0.0,0.0,0.0,0.0,0.0,0.0,0.0,0.0,0.0,0.0,0.0,0.0,0.0,0.0,0.0,0.0,0.0,0.0,0.0,0.0,0.0,0.0,0.0,0.0,0.0,0.0,0.0,0.0,0.0,0.0,0.0,0.0,0.0,0.0,0.0,0.0,0.0,0.0,0.0,0.0,0.0,0.0,0.0,0.0,0.0,0.0,0.0,0.0,0.0,0.0,0.0,0.0,0.0,0.0,0.0,0.0,0.0,0.0,0.0,0.0,0.0,0.0,0.0,0.0,0.0,0.0,0.0,0.0,0.0,0.0,0.0,0.0,0.0,0.0,0.0,0.0,0.0,0.0,0.0,0.0,0.0,0.0,0.0,0.0,0.0,0.0,0.0,0.0,-5.6675,-6.1062,-6.3475,-6.2682,-6.2571,-6.202,-6.0886,-6.1225,-6.022,-5.7145,0.0,0.0,0.0,0.0,0.0,0.0,0.0,0.0,0.0,0.0,0.0,0.0,0.0,0.0,0.0,0.0,0.0,0.0,0.0,0.0,0.0,0.0,0.0,0.0,0.0,0.0,0.0,0.0,0.0,0.0,0.0,0.0,0.0,0.0,0.0,0.0,0.0,0.0,0.0,0.0,0.0,0.0,0.0,0.0,0.0,0.0,0.0,0.0,0.0,0.0,0.0,0.0,0.0,0.0,0.0,0.0,0.0,0.0,0.0,0.0,0.0,0.0,0.0,0.0,0.0,0.0,0.0,0.0,0.0,0.0,0.0,0.0,0.0,0.0,0.0,0.0,0.0,0.0,0.0,0.0,0.0,0.0,0.0,0.0,0.0,0.0,0.0,0.0,0.0,0.0,0.0,0.0,0.0,0.0,0.0,0.0,0.0,0.0,0.0,0.0,0.0,0.0,-5.7349,-6.1117,-6.3327,-6.2955,-6.2624,-6.2166,-6.1339,-6.1858,-6.1211,-5.8904,0.0,0.0,0.0,0.0,0.0,0.0,0.0,0.0,0.0,0.0,0.0,0.0,0.0,0.0,0.0,0.0,0.0,0.0,0.0,0.0,0.0,0.0,0.0,0.0,0.0,0.0,0.0,0.0,0.0,0.0,0.0,0.0,0.0,0.0,0.0,0.0,0.0,0.0,0.0,0.0,0.0,0.0,0.0,0.0,0.0,0.0,0.0,0.0,0.0,0.0,0.0,0.0,0.0,0.0,0.0,0.0,0.0,0.0,0.0,0.0,0.0,0.0,0.0,0.0,0.0,0.0,0.0,0.0,0.0,0.0,0.0,0.0,0.0,0.0,0.0,0.0,0.0,0.0,0.0,0.0,0.0,0.0,0.0,0.0,0.0,0.0,0.0,0.0,0.0,0.0,0.0,0.0,0.0,0.0,0.0,0.0,0.0,0.0,0.0,0.0,0.0,0.0,-5.7198,-6.1204,-6.3605,-6.3102,-6.2561,-6.2172,-6.205,-6.2595,-6.2191,-6.0688,0.0,0.0,0.0,0.0,0.0,0.0,0.0,0.0,0.0,0.0,0.0,0.0,0.0,0.0,0.0,0.0,0.0,0.0,0.0,0.0,0.0,0.0,0.0,0.0,0.0,0.0,0.0,0.0,0.0,0.0,0.0,0.0,0.0,0.0,0.0,0.0,0.0,0.0,0.0,0.0,0.0,0.0,0.0,0.0,0.0,0.0,0.0,0.0,0.0,0.0,0.0,0.0,0.0,0.0,0.0,0.0,0.0,0.0,0.0,0.0,-5.1199,0.0,0.0,0.0,0.0,0.0,0.0,0.0,0.0,0.0,0.0,0.0,0.0,0.0,0.0,0.0,0.0,0.0,0.0,0.0,0.0,0.0,0.0,0.0,0.0,0.0,0.0,0.0,0.0,0.0,0.0,0.0,0.0,0.0,0.0,0.0,0.0,0.0,0.0,0.0,0.0,0.0,-5.9646,-6.3531,-6.5606,-6.4523,-6.4297,-6.3872,-6.2809,-6.3268,-6.3048,-6.1808,-6.1867,0.0,0.0,0.0,0.0,0.0,0.0,0.0,0.0,0.0,0.0,0.0,0.0,0.0,0.0,0.0,0.0,0.0,0.0,0.0,0.0,0.0,0.0,0.0,0.0,0.0,0.0,0.0,0.0,0.0,0.0,0.0,0.0,0.0,0.0,0.0,0.0,0.0,0.0,0.0,0.0,0.0,0.0,0.0,0.0,0.0,0.0,0.0,0.0,0.0,0.0,0.0,0.0,0.0,0.0,0.0,0.0,0.0,0.0,0.0,0.0,-5.2597,0.0,0.0,0.0,0.0,0.0,0.0,0.0,0.0,0.0,0.0,0.0,0.0,0.0,0.0,0.0,0.0,0.0,0.0,0.0,0.0,0.0,0.0,0.0,0.0,0.0,0.0,0.0,0.0,0.0,0.0,0.0,0.0,0.0,0.0,0.0,0.0,0.0,0.0,0.0,0.0,-6.0526,-6.4004,-6.5954,-6.4964,-6.489,-6.4563,-6.3538,-6.4514,-6.4964,-6.4415,-6.4129,0.0,0.0,0.0,0.0,0.0,0.0,0.0,0.0,0.0,0.0,0.0,0.0,0.0,0.0,0.0,0.0,0.0,0.0,0.0,0.0,0.0,0.0,0.0,0.0,0.0,0.0,0.0,0.0,0.0,0.0,0.0,0.0,0.0,0.0,0.0,0.0,0.0,0.0,0.0,0.0,0.0,0.0,0.0,0.0,0.0,0.0,0.0,0.0,0.0,0.0,0.0,0.0,0.0,-5.456,-5.4962,-5.4545,-5.5951,-5.7665,-5.9355,-5.6945,-5.7967,-6.0781,0.0,0.0,0.0,0.0,0.0,0.0,0.0,0.0,0.0,0.0,0.0,0.0,0.0,0.0,0.0,0.0,0.0,0.0,0.0,0.0,0.0,0.0,0.0,0.0,0.0,-6.1923,-6.2859,0.0,0.0,0.0,0.0,0.0,0.0,0.0,0.0,0.0,0.0,0.0,0.0,-6.0842,-6.3755,-6.5723,-6.5062,-6.4811,-6.4665,-6.4216,-6.5596,-6.6559,-6.6796,-6.5998,-6.5091,0.0,0.0,0.0,0.0,0.0,0.0,0.0,0.0,0.0,0.0,0.0,0.0,0.0,0.0,0.0,0.0,0.0,0.0,0.0,0.0,0.0,0.0,0.0,0.0,0.0,0.0,0.0,0.0,0.0,0.0,0.0,0.0,-5.0975,-5.102,0.0,0.0,0.0,0.0,0.0,0.0,0.0,0.0,0.0,0.0,0.0,0.0,0.0,-5.1354,-5.171,-5.4419,-5.6061,-5.6739,-5.9081,-6.0093,-6.006,-6.1513,-6.1983,-6.1789,-6.2595,0.0,-6.0712,-5.9254,0.0,0.0,0.0,0.0,0.0,0.0,0.0,0.0,0.0,0.0,0.0,0.0,0.0,0.0,0.0,0.0,0.0,0.0,0.0,0.0,0.0,0.0,-6.6342,-6.6344,-6.635,-6.6367,0.0,-6.0792,-5.5701,-5.4217,0.0,0.0,0.0,0.0,0.0,0.0,0.0,0.0,-6.131,-6.4055,-6.5702,-6.5023,-6.4425,-6.4336,-6.4844,-6.5011,-6.5643,-6.6765,-6.7111,-6.6421,-6.4266,-6.3285,0.0,0.0,0.0,0.0,0.0,0.0,0.0,0.0,0.0,0.0,0.0,0.0,0.0,0.0,0.0,0.0,0.0,0.0,0.0,0.0,0.0,0.0,0.0,0.0,0.0,0.0,0.0,0.0,0.0,-4.742,-4.8606,-4.995,-4.8487,-4.6945,0.0,0.0,0.0,0.0,0.0,0.0,0.0,0.0,0.0,-5.388,-5.4128,-5.492,-5.645,-5.8099,-5.9004,-5.9118,-6.0924,-6.1527,-6.0944,-6.2281,-6.2561,-6.197,-6.2934,-6.2963,-6.2208,-6.1405,-5.9948,-5.8091,0.0,0.0,0.0,0.0,0.0,-5.7359,-5.9407,-5.988,0.0,0.0,0.0,0.0,0.0,0.0,0.0,0.0,0.0,0.0,0.0,0.0,0.0,-6.7037,-6.6862,-6.6226,-6.5728,-6.3049,-6.016,0.0,-5.8423,-5.7506,-5.4959,0.0,0.0,0.0,0.0,-6.1925,-6.1922,-6.3708,-6.4636,-6.4011,-6.3681,-6.344,-6.3381,-6.3981,-6.5109,-6.6742,-6.7126,-6.7213,-6.7267,-6.5731,-6.3307,0.0,0.0,0.0,0.0,0.0,0.0,0.0,0.0,0.0,0.0,0.0,0.0,0.0,0.0,0.0,0.0,0.0,0.0,0.0,0.0,0.0,0.0,0.0,0.0,0.0,0.0,0.0,0.0,-4.8468,-4.9227,-5.0557,-5.0659,-4.9811,0.0,0.0,0.0,0.0,0.0,0.0,-5.3695,-5.3688,-5.4825,-5.7377,-5.7046,-5.7701,-5.9487,-6.0228,-6.0444,-6.035,-6.1324,-6.123,-6.0361,-6.1509,-6.166,-6.1086,-6.175,-6.2243,-6.2579,-6.2458,-6.2003,-6.1288,-6.0125,-5.9178,-5.8593,-5.9335,-5.9871,-6.0581,-6.3103,-6.3841,-6.3639,-6.303,0.0,-6.0379,-5.9638,0.0,0.0,0.0,0.0,-6.1546,-6.3362,0.0,-6.4637,-6.6122,-6.5871,-6.498,-6.4129,-6.3233,-6.2451,0.0,-6.1198,-5.9676,-5.6668,0.0,0.0,0.0,0.0,-6.1939,-6.1987,-6.2946,-6.3289,-6.2643,-6.2633,-6.2412,-6.2122,-6.2988,-6.4215,-6.607,-6.662,-6.7425,-6.867,-6.7317,-6.561,-6.3616,0.0,0.0,0.0,0.0,0.0,0.0,0.0,0.0,0.0,0.0,0.0,0.0,0.0,0.0,0.0,0.0,0.0,0.0,0.0,0.0,0.0,0.0,0.0,0.0,0.0,0.0,0.0,0.0,0.0,-5.6664,-5.6588,0.0,0.0,0.0,0.0,-5.4676,-5.4439,-5.5079,-5.7042,-5.664,-5.6846,-5.8014,-5.8044,-5.8052,-5.7971,-5.861,-5.9333,-6.0001,-6.0058,-5.9743,-5.9262,-5.995,-5.9893,-5.9319,-5.9979,-6.0266,-6.0485,-6.2564,-6.2798,-6.1868,-6.1786,-6.0824,-5.9854,-6.2701,-6.3705,-6.4144,-6.7107,-6.8065,-6.7685,-6.4966,-6.2603,-6.1014,-6.2363,-6.1701,0.0,0.0,-6.2056,-6.2513,-6.432,-6.4274,-6.4114,-6.4828,-6.4004,-6.3328,-6.3829,-6.131,-5.9709,0.0,-6.3947,-6.3862,-6.1281,0.0,-6.2187,-6.0262,-6.0731,-6.1187,-6.1167,-6.1774,-6.189,-6.1222,-6.1164,-6.1425,-6.2035,-6.2122,-6.275,-6.4065,-6.5861,-6.663,-6.6138,-6.7178,-6.6713,-6.4317,-6.242,0.0,0.0,0.0,0.0,0.0,0.0,0.0,0.0,0.0,0.0,0.0,0.0,0.0,0.0,0.0,0.0,0.0,0.0,0.0,0.0,0.0,0.0,0.0,0.0,0.0,0.0,0.0,0.0,-5.547,-5.698,0.0,-5.6325,-5.6205,-5.646,-5.7158,-5.7753,-5.8561,-5.9728,-5.9068,-5.9037,-5.9871,-5.9422,-5.9215,-5.92,-5.9829,-6.0251,-6.0613,-6.1012,-6.1069,-6.0869,-6.1097,-6.1069,-6.0869,-6.1097,-6.1212,-6.1279,-6.2107,-6.2072,-6.1363,-6.1763,-6.1583,-6.1249,-6.2299,-6.2631,-6.2839,-6.4073,-6.4562,-6.4382,-6.3634,-6.3159,-6.2863,-6.3464,-6.3264,-6.2843,-6.3164,-6.3277,-6.3507,-6.4011,-6.4087,-6.4003,-6.4239,-6.3579,-6.31,-6.3334,-6.2312,-6.1721,-6.2765,-6.1885,-6.0601,-5.9653,-6.1088,-6.1751,-6.0058,-6.0879,-6.1844,-6.2209,-6.2208,-6.1997,-6.1738,-6.0994,-6.0603,-6.0859,-6.0489,-6.0983,-6.2662,-6.3381,-6.4397,-6.5831,-6.5947,-6.5584,-6.4672,-6.3606,-6.1387,0.0,0.0,0.0,0.0,0.0,0.0,0.0,0.0,0.0,0.0,0.0,0.0,0.0,0.0,0.0,0.0,0.0,0.0,0.0,0.0,0.0,0.0,0.0,0.0,0.0,-5.4492,-5.6536,-5.4513,-5.7468,-5.8902,-5.6987,-5.8159,-5.899,-5.8998,-5.9593,-6.0196,-6.0939,-6.0063,-5.9784,-6.0266,-6.0137,-5.9977,-5.9949,-6.0566,-6.0875,-6.0875,-6.1071,-6.1071,-6.0875,-6.0875,-6.0875,-6.0875,-6.0875,-6.0875,-6.0875,-6.0875,-6.0724,-6.0432,-6.1276,-6.155,-6.1579,-6.1903,-6.2016,-6.2341,-6.2696,-6.3025,-6.3055,-6.3076,-6.3573,-6.4129,-6.3815,-6.3835,-6.397,-6.3865,-6.3775,-6.368,-6.3808,-6.3648,-6.3313,-6.3313,-6.287,-6.2303,-6.2303,-6.2303,-6.236,-6.2589,-6.1298,-6.0005,-5.9734,-6.0941,-6.1455,-5.9809,-6.0994,-6.1928,-6.1916,-6.1931,-6.1983,-6.1983,-6.1515,-6.109,-6.1059,-6.0385,-6.0573,-6.1986,-6.2174,-6.3076,-6.5139,-6.4919,-6.4714,-6.4511,-6.2844,-6.0078,-5.629,0.0,0.0,0.0,0.0,0.0,0.0,0.0,0.0,0.0,0.0,0.0,0.0,0.0,0.0,0.0,0.0,0.0,0.0,0.0,0.0,0.0,0.0,0.0,-5.5311,-5.5884,-5.6102,-5.456,-5.8551,-6.0565,-5.8628,-5.9728,-6.0516,-6.0295,-5.9812,-5.9771,-6.0647,-5.9702,-5.92,-5.9482,-6.0058,-6.0221,-5.9941,-6.0511,-6.0782,-6.0755,-6.0185,-5.9616,-5.9073,-5.9073,-5.9073,-5.9073,-5.9073,-5.9073,-5.9073,-5.9073,-5.9046,-5.923,-6.0484,-6.0983,-6.1069,-6.1668,-6.2266,-6.2894,-6.3521,-6.398,-6.4095,-6.352,-6.4034,-6.4578,-6.3362,-6.342,-6.3912,-6.3883,-6.342,-6.3101,-6.3709,-6.2917,-6.1981,-6.1981,-6.1628,-6.1172,-6.1172,-6.1172,-6.134,-6.1931,-6.2536,-6.2861,-6.2108,-6.1981,-6.1595,-6.011,-6.1154,0.0,-6.0044,-6.115,-6.2005,-6.1968,-6.252,-6.2876,-6.2863,-6.1927,-6.1597,-6.2038,-6.2221,-6.2845,-6.3866,-6.4111,-6.4,-6.3556,-5.9915,-5.7097,-5.5143,0.0,0.0,0.0,0.0,0.0,0.0,0.0,0.0,0.0,0.0,0.0,0.0,0.0,0.0,0.0,0.0,0.0,0.0,0.0,0.0,0.0,-5.4886,-5.7155,-5.6861,-5.8915,-6.0115,-5.9012,-6.0044,-6.0407,-5.9283,-5.99,-6.0321,-6.009,-5.9331,-5.9465,-6.1105,-6.0246,-6.0309,-6.1658,-6.1767,-6.1683,-6.1135,-6.1298,-6.1162,-6.0782,-6.0593,-6.0457,-6.0294,-6.0294,-6.0294,-6.0294,-6.0294,-6.0294,-6.0294,-6.0294,-6.0023,-5.9723,-5.9627,-5.9759,-6.0171,-6.0469,-6.0767,-6.1065,-6.1231,-6.085,-6.0491,-6.1323,-6.1093,-6.0697,-6.2061,-6.2024,-6.1622,-6.2755,-6.2733,-6.2393,-6.3017,-6.2914,-6.2671,-6.2671,-6.254,-6.2436,-6.2436,-6.2436,-6.2464,-6.2633,-6.2783,-6.2932,-6.2671,-6.2671,-6.2475,-6.2112,-6.2419,0.0,-6.2052,-6.2383,-6.2231,-6.1163,-6.0843,-6.067,-6.0669,-5.9962,-6.0289,-6.1883,-6.2102,-6.2491,-6.309,-6.2804,-6.2025,-6.07,-5.7899,-5.644,0.0,0.0,0.0,0.0,0.0,0.0,0.0,0.0,0.0,0.0,0.0,0.0,0.0,0.0,0.0,0.0,0.0,0.0,0.0,0.0,0.0,0.0,-5.7635,-5.9504,-5.9693,-6.072,-6.1213,-6.0733,-6.0604,-6.0156,-5.9516,-5.968,-5.9624,-5.9479,-5.9036,-5.9579,-6.102,-6.0729,-6.1189,-6.2492,-6.2546,-6.2356,-6.2004,-6.2004,-6.1674,-6.107,-6.107,-6.107,-6.107,-6.0622,-6.0649,0.0,-6.0622,-6.0508,-6.0508,-6.0508,-6.0295,0.0,0.0,0.0,0.0,0.0,-5.9693,-6.0076,-5.9666,-5.9588,-5.9454,-6.0348,-6.0321,-6.0213,-6.1706,-6.1568,-6.124,-6.271,-6.2592,-6.2389,-6.3139,-6.3111,-6.2942,-6.2942,-6.2942,-6.2942,-6.2942,-6.2942,-6.2942,-6.2942,0.0,0.0,-6.2942,-6.2942,-6.2649,-6.2034,-6.2499,-6.2658,-6.211,-6.2499,-6.2641,-6.2048,-6.1933,-6.1916,-6.1899,-6.1116,0.0,0.0,0.0,-6.2014,-6.2619,-6.2263,0.0,0.0,0.0,0.0,0.0,0.0,0.0,0.0,-5.1322,-5.1063,0.0,0.0,0.0,0.0,0.0,0.0,0.0,0.0,0.0,0.0,0.0,0.0,0.0,0.0,0.0,0.0,-6.153,-6.3806,-6.295,-6.1722,-6.0831,-6.053,-6.0406,-6.0027,-5.9452,-5.9056,-5.8889,-5.88,-5.9264,-5.9912,-6.0891,0.0,0.0,0.0,0.0,-6.2573,-6.2438,-6.2351,-6.1898,-6.1247,-6.1156,-6.1039,-6.1183,-6.0169,-6.0315,-6.1039,-6.0169,-5.9877,-6.0023,-5.9877,-5.9877,-5.9867,-6.0007,-5.9556,-5.8918,-5.8963,-5.9236,0.0,0.0,0.0,0.0,-6.0039,-6.0564,-6.1247,-6.1383,-6.1519,-6.1629,-6.2751,-6.2799,-6.2627,-6.3426,-6.3307,-6.2942,-6.2942,-6.2942,-6.2942,-6.2942,-6.2942,-6.2942,-6.2942,-6.2942,-6.2942,-6.3026,-6.297,-6.2404,-6.1165,-6.2041,-6.2366,-6.1149,-6.2089,-6.3045,-6.3449,0.0,0.0,-6.4299,-6.3435,-6.3026,-6.3207,-6.2207,-6.1795,-6.2269,-6.2159,-6.0819,-5.8234,-5.6232,-5.4229,-5.2283,-5.0755,-4.9655,-4.9412,-5.2593,-5.2085,0.0,0.0,0.0,0.0,0.0,0.0,0.0,0.0,0.0,0.0,0.0,0.0,0.0,0.0,0.0,-5.8789,-6.1919,-6.4323,-6.4177,-6.3556,-6.2408,-6.0462,-5.9887,-5.9377,-5.8507,-5.8618,-5.8934,-5.953,-5.9723,-6.0566,-6.2112,-6.2302,-6.2628,-6.3225,-6.3252,-6.279,-6.1786,-6.1541,-6.1256,-6.0492,0.0,0.0,-6.0315,-5.8795,-5.8943,-6.0315,-5.8795,-5.8795,-6.0023,-5.8646,-5.8025,-5.82,-6.0154,-6.067,-6.0577,-6.1032,-6.0813,-6.0027,-5.9882,-5.8993,-5.7901,-5.8638,-5.807,-5.7615,-5.9149,-5.9568,0.0,-6.122,-6.2034,-6.2543,-6.2921,-6.3026,-6.2942,-6.2942,-6.2942,-6.2942,-6.2942,-6.2942,-6.2942,-6.2942,-6.2942,-6.3083,-6.3532,-6.3251,-6.2822,-6.2499,-6.2784,-6.2765,-6.2558,-6.2715,-6.246,-6.1432,-6.1465,-6.1401,-6.1068,-6.0807,-6.1366,-6.2781,-6.306,-6.293,-6.2377,-6.2303,-6.1086,-5.8673,-5.6866,-5.5014,-5.286,-5.1056,-4.954,-4.8808,-4.9218,-4.8879,0.0,0.0,0.0,0.0,0.0,0.0,0.0,0.0,0.0,0.0,0.0,-5.8538,-5.9026,0.0,-6.0688,-6.2056,-6.3801,-6.4695,-6.3823,-6.3648,-6.2996,-6.1015,-6.0438,-5.9702,-5.8484,-5.8701,-5.9176,-5.9806,-6.043,-6.1135,-6.2031,-6.2926,-6.3415,-6.3415,-6.3143,-6.254,-6.1495,-6.1336,-6.0762,-5.9751,-5.9753,-6.0015,-6.0315,-5.9085,-5.9237,-6.0315,-5.9085,-5.9085,-5.9689,-5.8933,-5.8604,-5.8629,-5.9364,-5.974,-5.9876,-5.8984,-5.9032,-5.9463,-5.8723,-5.8366,-5.8174,-5.8636,-5.8465,-5.8465,-5.9737,-6.0164,-6.0306,-6.1291,-6.2289,-6.3001,-6.3001,-6.3436,-6.3841,-6.3841,-6.3841,-6.3841,-6.3841,-6.3841,-6.3841,-6.3841,-6.3841,-6.3954,-6.4235,-6.4038,-6.3841,-6.3841,-6.3841,-6.3841,-6.3841,-6.3841,-6.356,-6.2812,-6.2543,-6.2418,-6.2167,-6.1788,-6.2043,-6.3165,-6.3057,-6.2914,-6.2465,-6.2167,-6.0882,-5.8558,-5.7124,-5.5516,-5.3599,-5.2184,-5.0748,-4.9032,-4.8894,-4.7944,0.0,0.0,0.0,0.0,0.0,0.0,0.0,-5.8725,-6.0282,-6.034,-6.0768,-6.1268,-6.176,-6.1679,-6.2385,-6.4802,-6.5353,-6.483,-6.3264,-6.3579,-6.3326,-6.1674,-6.1027,-6.0245,-5.9051,-5.9149,-5.9453,-6.0158,-6.1189,-6.1841,-6.1949,-6.3442,-6.3984,-6.3279,-6.2648,-6.1898,-6.1193,-6.0986,-6.0222,-5.9199,-5.9921,-6.0253,-6.0431,-5.9483,-5.9483,-6.0431,-5.9817,-5.9328,-5.9018,-5.9173,-5.9173,-5.9018,-5.8212,-5.829,-5.8554,-5.6602,-5.7166,-5.8752,-5.7421,-5.7775,-5.8723,-5.8723,-5.9168,-5.9903,-6.0605,-6.0895,-6.1209,-6.1782,-6.2774,-6.3612,-6.3334,-6.4055,-6.4769,-6.4769,-6.4769,-6.4769,-6.4769,-6.4769,-6.4769,-6.4769,-6.4769,-6.4797,-6.4909,-6.4937,-6.4909,-6.4769,-6.4769,-6.4769,-6.4769,-6.4769,-6.4769,-6.4769,-6.4495,-6.4192,-6.4055,-6.3361,-6.3082,-6.3361,-6.2937,-6.254,-6.2229,-6.1582,-6.0405,-5.8252,-5.705,-5.5782,-5.414,-5.3084,-5.15,-4.9596,-4.9209,-4.7568,-5.508,-5.6206,-5.7619,-5.8001,-5.9822,-6.2315,0.0,-6.5715,-6.565,-6.6718,-6.6712,-6.6316,-6.5758,-6.4864,-6.4191,-6.3978,-6.4482,-6.463,-6.3794,-6.4306,-6.4008,-6.2121,-6.0778,-6.0104,-6.0152,-6.0021,-6.024,-6.1325,-6.2058,-6.2655,-6.3197,-6.3903,-6.3794,-6.2682,-6.1836,-6.1256,-6.058,-5.9643,-5.9399,-5.9763,-5.8848,-5.8862,-5.9637,-5.808,-5.808,-5.9637,-5.9508,-5.8706,-5.729,-5.8055,-5.7898,-5.729,-5.7132,-5.7667,-5.8196,-5.804,-5.8235,-5.8781,-5.8477,-5.8303,-5.8051,-5.8051,-5.8051,-5.8326,-5.9045,-5.9783,-6.0658,-6.2067,-6.3054,-6.375,-6.4467,-6.4769,-6.4769,-6.4769,-6.4769,-6.4769,-6.4769,-6.4769,-6.4769,-6.4769,-6.4769,-6.4937,-6.5471,-6.5583,-6.5387,-6.4853,-6.4769,-6.4769,-6.4769,-6.4769,-6.4769,-6.4769,-6.4495,-6.3917,-6.3222,-6.2828,-6.2546,-6.2687,-6.3035,-6.2732,-6.1222,-6.0852,-5.9693,-5.766,-5.643,-5.5263,-5.414,-5.2287,-5.0666,-4.9592,-4.8004,-4.6352,-5.7693,-5.8527,-5.877,-5.9417,-6.0958,-6.2459,-6.2996,-6.4119,-6.5271,-6.5908,-6.6321,-6.6187,-6.4974,-6.4764,-6.4847,-6.4888,-6.485,-6.4533,-6.3951,-6.4091,-6.3516,-6.1509,-6.1219,-6.0749,-6.0157,-6.0321,-6.0728,-6.1542,-6.1744,-6.189,-6.2131,-6.2285,-6.2232,-6.1809,-6.1176,-6.09,-6.098,-6.05,-6.0457,-6.0613,-5.9973,-6.0099,-6.0863,-5.9637,-5.9792,-6.0863,-6.0406,-5.9792,-5.9173,-5.9018,-5.8706,-5.8393,-5.7922,-5.8525,-5.9483,-5.8055,-5.8245,-5.9002,-5.8539,-5.8544,-5.883,-5.883,-5.9135,-5.9743,-6.047,-6.1215,-6.21,-6.2947,-6.398,-6.4689,-6.4802,-6.5391,-6.5836,-6.5836,-6.5836,-6.5836,-6.5836,-6.5836,-6.5836,-6.5836,-6.5836,-6.5921,-6.6173,-6.6202,-6.6117,-6.5864,-6.5836,-6.5836,-6.5836,-6.5836,-6.5697,-6.5279,-6.4858,-6.4406,-6.3837,-6.3721,-6.3577,-6.3577,-6.3469,-6.2694,-6.1058,-6.0019,-5.8499,-5.6804,-5.5593,-5.4673,-5.4256,-5.2689,-5.1282,-5.0081,-4.8175,-4.6392,-5.8315,-5.9468,-5.9803,-6.0076,-6.1887,-6.3334,-6.1882,-6.3356,-6.5052,-6.5251,-6.5536,-6.5523,-6.4522,-6.4641,-6.4891,-6.5299,-6.5092,-6.4516,-6.3784,-6.3777,-6.3193,-6.1552,-6.154,-6.1381,-6.043,-6.0784,-6.1162,-6.1569,-6.1575,-6.164,-6.164,-6.1463,-6.1437,-6.1399,-6.0856,-6.0794,-6.1353,-6.1065,-6.1146,-6.1319,-6.1137,-6.1344,-6.1921,-6.1344,-6.1344,-6.1921,-6.1318,-6.1041,-6.1041,-6.0406,-6.0099,-6.0099,-5.9458,-5.992,-6.0863,-5.8993,-5.9148,-6.0099,-5.9173,-5.9483,-6.0099,-6.0099,-6.0558,-6.1193,-6.1921,-6.2667,-6.3259,-6.3992,-6.4889,-6.549,-6.5292,-6.6003,-6.6595,-6.6595,-6.6595,-6.6595,-6.6595,-6.6595,-6.6595,-6.6595,-6.6595,-6.6595,-6.6595,-6.6595,-6.6595,-6.6595,-6.6595,-6.6595,-6.6595,-6.6595,-6.6314,-6.5633,-6.5204,-6.4889,-6.431,-6.431,-6.431,-6.431,-6.3903,-6.279,-6.0996,-5.9566,-5.7808,-5.5841,-5.495,-5.4347,-5.4209,-5.2988,-5.1725,-5.0379,-4.8686,-4.6663,-5.5747,-5.8299,-6.0895,-6.034,-6.3415,-6.6434,-6.5736,-6.6225,-6.6777,-6.6606,-6.6266,-6.5866,-6.5638,-6.5207,-6.4674,-6.4123,-6.4605,-6.4546,-6.3192,-6.3479,-6.3488,-6.2487,-6.2086,-6.1681,-6.1275,-6.1382,-6.1597,-6.1597,-6.2193,-6.2405,-6.2405,-6.2405,-6.2134,-6.1651,-6.0924,-6.0767,-6.1326,-6.0632,-6.0797,-6.1894,-6.1921,-6.1921,-6.1921,-6.1921,-6.1921,-6.1921,-6.1921,-6.1921,-6.1921,-6.177,-6.177,-6.177,-6.177,-6.177,-6.1921,-6.177,-6.177,-6.177,-6.0889,-6.1167,-6.177,-6.177,-6.177,-6.207,-6.2815,-6.3111,-6.3406,-6.506,-6.549,-6.5633,-6.6314,-6.6595,-6.6595,-6.6595,-6.6595,-6.6595,-6.6595,-6.6595,-6.6595,-6.6595,-6.6595,-6.6595,-6.6595,-6.6595,-6.6595,-6.6595,-6.6595,-6.6595,-6.6595,-6.6595,-6.6314,-6.5633,-6.549,-6.5204,-6.431,-6.431,-6.431,-6.431,-6.4283,-6.3232,-6.0812,-5.9844,-5.7892,-5.4915,-5.4627,-5.4186,-5.3704,-5.2832,-5.1725,-5.04,-4.9017,-4.7121,-5.8202,-5.9485,-6.1044,-6.2275,-6.3387,-6.4265,-6.4476,-6.4977,-6.537,-6.4971,-6.3909,-6.3053,-6.2918,-6.3206,-6.3518,-6.3647,-6.4753,-6.5463,-6.5065,-6.4822,-6.4196,-6.315,-6.2886,-6.2655,-6.1987,-6.1792,-6.1786,-6.2193,-6.1817,-6.1827,-6.2228,-6.105,-6.0545,-6.0756,-6.0241,-6.079,-6.2492,-6.2236,-6.2687,-6.3846,-6.3553,-6.3259,-6.2667,-6.3259,-6.3553,-6.3406,-6.2964,-6.2667,-6.2667,-6.207,-6.1921,-6.1921,-6.1921,-6.222,-6.2667,-6.207,-6.2518,-6.3259,-6.1921,-6.162,-6.1921,-6.1921,-6.222,-6.2815,-6.2964,-6.3406,-6.4165,-6.5204,-6.549,-6.5633,-6.6455,-6.6595,-6.6595,-6.6595,-6.6595,-6.6595,-6.6595,-6.6595,-6.6595,-6.6595,-6.6595,-6.6595,-6.6595,-6.6595,-6.6595,-6.6595,-6.6595,-6.6595,-6.6595,-6.6173,-6.5775,-6.549,-6.506,-6.46,-6.431,-6.431,-6.431,-6.431,-6.431,-6.3406,-6.162,-6.0685,-5.9048,-5.6391,-5.5597,-5.4975,-5.4163,-5.2988,-5.1725,-5.0379,-4.8728,-4.7047,-6.0259,-6.0976,-6.1671,-6.3447,-6.3701,-6.3659,-6.385,-6.4156,-6.4463,-6.4239,-6.2693,-6.1392,-6.1763,-6.2472,-6.3035,-6.2935,-6.4614,-6.5866,-6.5445,-6.498,-6.4414,-6.3679,-6.3413,-6.3139,-6.27,-6.2178,-6.2147,-6.2492,-6.2094,-6.2006,-6.2024,-6.0687,-6.0154,-6.0742,-6.0477,-6.1271,-6.3194,-6.3222,-6.3966,-6.5176,-6.4889,-6.4455,-6.4019,-6.4455,-6.4745,-6.4745,-6.4165,-6.4019,-6.3873,-6.3406,-6.3111,-6.3111,-6.3111,-6.3406,-6.37,-6.3259,-6.37,-6.431,-6.2815,-6.2518,-6.2815,-6.2815,-6.3259,-6.37,-6.37,-6.4165,-6.4889,-6.549,-6.5633,-6.5747,-6.6455,-6.6595,-6.6595,-6.6595,-6.6875,-6.6986,-6.6986,-6.7154,-6.7403,-6.7403,-6.7403,-6.7403,-6.7403,-6.7125,-6.6875,-6.6595,-6.6595,-6.6595,-6.6595,-6.6031,-6.5633,-6.549,-6.4889,-6.4455,-6.431,-6.431,-6.431,-6.431,-6.431,-6.3553,-6.1921,-6.1141,-5.9433,-5.6949,-5.6174,-5.5206,-5.4416,-5.355,-5.2392,-5.1054,-4.9406,-4.7923,-6.173,-6.2443,-6.2781,-6.3621,-6.4239,-6.4574,-6.4045,-6.3819,-6.3975,-6.4414,-6.2473,-6.0988,-6.1919,-6.2977,-6.3245,-6.2051,-6.4386,-6.5941,-6.4712,-6.4492,-6.4364,-6.4005,-6.3704,-6.3461,-6.3408,-6.3057,-6.2756,-6.2606,0.0,-6.2641,-6.179,-6.1494,-6.1302,-6.1302,-6.1709,-6.2397,-6.3584,-6.3667,-6.4302,-6.549,-6.549,-6.549,-6.549,-6.549,-6.549,-6.549,-6.549,-6.549,-6.549,-6.549,-6.549,-6.549,-6.549,-6.5347,-6.5033,-6.5347,-6.5204,-6.4745,-6.3553,-6.37,-6.431,-6.431,-6.46,-6.4889,-6.4889,-6.5176,-6.5633,-6.589,-6.6031,-6.6031,-6.6455,-6.6595,-6.6595,-6.6595,-6.7264,-6.7816,-6.7816,-6.8363,-6.877,-6.877,-6.877,-6.877,-6.877,-6.8227,-6.7541,-6.6735,-6.6735,-6.6735,-6.6595,-6.6173,-6.589,-6.549,-6.5176,-6.4745,-6.431,-6.431,-6.431,-6.431,-6.431,-6.37,-6.2018,-6.1115,-5.9537,-5.7035,-5.631,-5.5368,-5.4579,-5.4416,-5.3738,-5.237,-5.1054,-4.9721,-6.1448,-6.2256,-6.2973,-6.3274,-6.3394,-6.3508,-6.3279,-6.3279,-6.2867,-6.1551,-6.0068,-5.8877,-5.84,-6.0699,-6.2635,-6.2627,-6.6164,-6.8634,-6.7874,-6.7304,-6.6792,-6.6088,-6.5664,-6.4879,-6.4051,-6.4106,-6.3858,-6.2729,-6.2701,-6.2646,-6.2481,-6.1876,-6.1681,-6.1681,-6.2258,-6.3003,-6.4055,-6.4944,-6.5556,-6.589,-6.5633,-6.549,-6.549,-6.549,-6.549,-6.549,-6.549,-6.549,-6.549,-6.549,-6.549,-6.549,-6.549,-6.549,-6.5347,-6.549,-6.549,-6.5347,-6.506,-6.506,-6.5204,-6.5204,-6.5204,-6.5347,-6.5347,-6.5347,-6.5633,-6.589,-6.6031,-6.6031,-6.6455,-6.7014,-6.7403,-6.7403,-6.7953,-6.8499,-6.8499,-6.8635,-6.877,-6.877,-6.877,-6.877,-6.877,-6.8635,-6.8227,-6.7541,-6.7816,-6.7816,-6.6735,-6.6031,-6.5633,-6.549,-6.4889,-6.46,-6.4745,-6.4455,-6.4455,-6.4745,-6.4745,-6.4283,-6.3232,-6.2492,-6.1089,-5.9253,-5.8187,-5.7107,-5.6334,-5.5691,-5.4696,-5.3341,-5.139,-4.9721,-6.1873,-6.2576,-6.3079,-6.3079,-6.3079,-6.2829,-6.1957,-6.1688,-6.1245,-5.9368,-5.796,-5.7101,-5.7266,-6.0003,-6.2272,-6.2194,-6.6044,-6.8793,-6.8269,-6.7618,-6.707,-6.6808,-6.602,-6.5216,-6.452,-6.4127,-6.3791,-6.3273,-6.3029,-6.2754,-6.2341,-6.2145,-6.2086,-6.2086,-6.2831,-6.3691,-6.4887,-6.5838,-6.6314,-6.6314,-6.6031,-6.6059,-6.6059,-6.6059,-6.6059,-6.6059,0.0,-6.6059,-6.6059,-6.6059,-6.6059,-6.6059,-6.6059,-6.589,-6.5775,-6.5917,-6.5917,-6.5747,-6.5917,-6.6059,-6.5917,-6.5633,-6.5633,-6.5775,-6.5775,-6.589,-6.6059,-6.6173,-6.6314,-6.6314,-6.6595,-6.6875,-6.7293,-6.7293,-6.809,-6.877,-6.877,-6.9308,-6.9707,-6.9707,-6.9707,-6.9574,-6.9308,-6.9308,-6.8905,-6.7816,-6.809,-6.7953,-6.6735,-6.6314,-6.6031,-6.5747,-6.5033,-6.4745,-6.5176,-6.4745,-6.4745,-6.5176,-6.5176,-6.4889,-6.4455,-6.37,-6.2614,-6.1339,-5.9716,-5.8656,-5.7716,-5.6789,-5.5829,-5.516,-5.2514,-5.0674,-6.2545,-6.3019,-6.3079,-6.3079,-6.3079,-6.255,-6.0458,-6.0071,-5.9589,-5.7677,-5.6347,-5.5826,-5.6931,-5.9621,-6.1612,-6.1491,-6.5012,-6.7755,-6.77,-6.7122,-6.6725,-6.6944,-6.5914,-6.5131,-6.4651,-6.3673,-6.3223,-6.3645,-6.3432,-6.2939,-6.1979,-6.2248,-6.2599,-6.2766,-6.3538,-6.4516,-6.578,-6.6314,-6.6595,-6.6595,-6.6595,-6.6595,-6.6595,-6.6595,-6.6595,-6.6595,0.0,0.0,-6.6595,-6.6595,-6.6595,-6.6595,-6.6595,-6.6455,-6.6173,-6.6455,-6.6455,-6.6173,-6.6455,-6.6595,-6.6455,-6.5917,-6.589,-6.6031,-6.6031,-6.6314,-6.6595,-6.6595,-6.6595,-6.6595,-6.6595,-6.6735,-6.6875,-6.6875,-6.7953,-6.8905,-6.9039,-6.9972,-7.0889,-7.0889,-7.0889,-7.0789,-7.0134,-7.0002,-6.9574,-6.8227,-6.809,-6.7816,-6.6875,-6.6847,-6.6707,-6.6031,-6.5462,-6.5176,-6.549,-6.5176,-6.5176,-6.549,-6.5633,-6.5633,-6.5633,-6.4861,-6.4083,-6.3272,-6.1215,-5.987,-5.9073,-5.7716,-5.7132,-5.7132,-5.4115,-5.247,-6.2242,-6.266,-6.3079,-6.3079,-6.3079,-6.255,-6.0458,-6.0368,-5.9622,-5.5897,-5.5567,-5.5715,-5.4707,-5.6534,-5.9166,-6.2259,-6.4648,-6.7065,-6.9769,-6.9599,-6.878,-6.7784,-6.69,-6.578,-6.4194,-6.3757,-6.3476,-6.3111,-6.295,-6.2893,-6.2648,-6.2781,-6.3258,-6.4403,-6.4544,-6.519,-6.6426,-6.6539,-6.6595,-6.6595,-6.6595,-6.6595,-6.6595,-6.6595,-6.6595,-6.6595,-6.6595,0.0,-6.6595,-6.6595,-6.6595,-6.6595,-6.6595,-6.6595,-6.6455,-6.6595,-6.6595,-6.6455,-6.6595,-6.6595,-6.6595,-6.6455,-6.6455,-6.6455,-6.6455,-6.6595,-6.6595,-6.6595,-6.6595,-6.6595,-6.6595,-6.7541,-6.8363,-6.8363,-6.9039,-6.9869,-7.0367,-7.0759,-7.0889,-7.0889,-7.0889,-7.0889,-7.0789,-7.0789,-7.0498,-6.9574,-6.9972,-6.9707,-6.7816,-6.6707,-6.6145,-6.6031,-6.5605,-6.549,-6.589,-6.5633,-6.549,-6.589,-6.589,-6.589,-6.589,-6.5121,-6.469,-6.4518,-6.2168,-6.0989,-6.0812,-5.8993,-5.8055,-5.7898,-5.5574,-5.4418,-6.1912,-6.2331,-6.266,-6.2989,-6.3079,-6.239,-5.9457,-5.8806,-5.7728,-5.4122,-5.3522,-5.3619,-5.3519,-5.5564,-5.7926,-5.9773,-6.3497,-6.6555,-6.7968,-6.9414,-6.9859,-6.8423,-6.7463,-6.6224,-6.4453,-6.3799,-6.3223,-6.2942,-6.2942,-6.2942,-6.2942,-6.3223,-6.3813,-6.474,-6.5078,-6.5668,-6.6595,-6.6595,-6.6595,-6.6595,-6.6595,-6.6595,-6.6595,-6.6595,-6.6595,-6.6595,-6.6595,0.0,-6.6595,-6.6595,-6.6595,-6.6595,-6.6595,-6.6595,-6.6595,-6.6595,-6.6595,-6.6595,-6.6595,-6.6595,-6.6651,-6.696,-6.6848,-6.6595,-6.6595,-6.6595,-6.6595,-6.6595,-6.6595,-6.6595,-6.6595,-6.7125,-6.7679,-6.809,-6.9039,-7.0134,-7.0789,-7.0889,-7.0889,-7.0889,-7.0889,-7.0889,-7.0889,-7.0889,-7.0629,-7.0002,-7.0134,-6.9707,-6.7953,-6.7264,-6.6707,-6.6314,-6.6031,-6.589,-6.6314,-6.6031,-6.589,-6.6314,-6.6314,-6.6314,-6.6314,-6.6003,-6.572,-6.572,-6.3353,-6.2194,-6.2194,-5.992,-5.8862,-5.8862,-5.6876,-5.5895,-6.1398,-6.2002,-6.2241,-6.2899,-6.3079,-6.2095,-5.8392,-5.7285,-5.6105,-5.2612,-5.1706,-5.1754,-5.2572,-5.4552,-5.6341,-5.721,-6.1365,-6.4847,-6.5709,-6.8359,-6.9745,-6.8667,-6.7712,-6.6451,-6.4879,-6.3545,-6.2942,-6.2942,-6.3054,0.0,-6.3111,-6.3532,-6.415,-6.4937,-6.5415,-6.5977,-6.6595,-6.6595,-6.6595,-6.6595,-6.6595,-6.6595,-6.6595,-6.6595,-6.6595,-6.6595,-6.6595,0.0,0.0,-6.6595,-6.6595,-6.6595,-6.6595,-6.6595,-6.6623,-6.6735,-6.6792,-6.682,-6.696,-6.6988,-6.7073,-6.755,-6.7297,-6.682,-6.696,-6.6988,-6.6988,-6.6988,-6.6988,-6.696,-6.682,-6.6932,-6.7212,-6.774,-6.8886,-7.0031,-7.0545,-7.0748,-7.0889,-7.0889,-7.0889,-7.0889,-7.0889,-7.0889,-7.0759,-7.0134,-7.0134,-6.9574,-6.809,-6.7953,-6.7541,-6.6735,-6.6314,-6.6314,-6.6595,-6.6314,-6.6314,-6.6595,-6.6595,-6.6595,-6.6595,-6.6595,-6.6595,-6.6595,-6.4545,-6.3353,-6.3058,-6.0989,-5.9792,-5.9483,-5.8031,-5.7194,-6.0515,-6.1642,-6.2241,-6.2899,-6.3079,-6.2002,-5.7889,-5.7285,-5.6325,-5.1793,-5.1201,-5.1513,-5.161,-5.1834,-5.3144,-5.6709,-5.7792,-6.0061,-6.5646,-6.7266,-6.7903,-6.7932,-6.7837,-6.6803,-6.4187,-6.3279,-6.2942,-6.2942,0.0,0.0,-6.3729,-6.3757,-6.4347,-6.5555,-6.564,-6.5977,-6.6595,-6.6595,-6.6595,-6.6595,-6.6595,-6.6595,-6.6595,-6.6595,-6.6595,-6.6595,-6.6595,0.0,0.0,-6.6595,-6.6595,-6.6595,-6.6595,-6.6595,-6.6651,-6.7213,-6.7438,-6.7494,-6.8084,-6.8309,-6.8309,-6.8365,-6.7944,-6.7522,-6.8112,-6.8309,-6.8309,-6.8309,-6.8309,-6.8169,-6.7578,-6.7975,-6.8396,-6.8536,-6.9205,-6.9884,-6.9768,-7.0386,-7.0889,-7.0889,-7.0889,-7.0889,-7.0889,-7.0889,-7.0919,-7.0789,-7.0789,-7.0236,-6.8905,-6.8635,-6.809,-6.6735,-6.6595,-6.6595,-6.6595,-6.6595,-6.6595,-6.6595,-6.6595,-6.6595,-6.6595,-6.6595,-6.6595,-6.6595,-6.5264,-6.4083,-6.3058,-6.1744,-6.0558,-5.9483,-5.9328,-5.9173,-6.0453,-6.1507,-6.1958,-6.2924,-6.1658,-5.9777,-5.7812,-5.5573,-5.3279,-5.11,-5.0359,-5.0046,-5.0046,-5.0576,-5.1668,-5.3484,-5.5797,-5.8001,-6.0028,-6.3833,-6.5985,-6.4839,-6.5847,-6.6168,-6.4557,-6.3545,-6.2942,-6.2942,0.0,0.0,-6.4347,-6.474,-6.5162,-6.5668,-6.6033,-6.6342,-6.6595,-6.6595,-6.6595,-6.6595,-6.6595,-6.6595,-6.6595,-6.6595,-6.6595,-6.6595,-6.6595,0.0,0.0,-6.6595,-6.682,-6.7129,-6.7129,-6.7382,-6.7747,-6.8,-6.8084,-6.814,-6.8393,-6.8478,-6.8534,-6.8899,-6.8843,-6.8618,-6.8506,-6.8478,-6.8478,-6.8478,-6.8478,-6.8421,-6.814,-6.8626,-6.9315,-6.9315,-6.991,-7.0456,-7.043,-7.0677,-7.0889,-7.0889,-7.0889,-7.0889,-7.0889,-7.0889,-7.0889,-7.0889,-7.0889,-7.0367,-6.9039,-6.877,-6.8227,-6.6735,-6.6595,-6.6595,-6.6595,-6.6595,-6.6595,-6.6595,-6.6595,-6.6595,-6.6595,-6.6595,-6.6595,-6.6595,-6.5407,-6.4545,-6.4083,-6.2194,-6.1015,-6.0558,-5.9792,-5.9483,-5.9315,-6.0843,-6.1679,-6.2625,-6.0783,-5.8572,-5.7477,-5.4452,-5.1506,-5.0071,-4.9157,-4.8603,-4.8603,-4.9493,-5.0362,-5.0746,-5.3268,-5.532,-5.5473,-5.9465,-6.2184,-6.1607,-6.2933,-6.3802,-6.3747,-6.324,-6.2942,-6.2942,0.0,0.0,0.0,-6.5527,-6.5949,-6.5949,-6.637,-6.6595,-6.6595,-6.6595,-6.6595,-6.6595,-6.6595,-6.6595,-6.6595,-6.6595,-6.6595,-6.6595,0.0,0.0,0.0,-6.6792,-6.7129,-6.7522,-6.7719,-6.8084,-6.8506,-6.8674,-6.8759,-6.8759,-6.8955,-6.9011,-6.9096,-6.9517,-6.9658,-6.9573,-6.9152,-6.9011,-6.9011,-6.9011,-6.8871,-6.8759,-6.8759,-6.8967,-6.9264,-6.9777,-7.0174,-7.0486,-7.1004,-7.1058,-7.0889,-7.0889,-7.0889,-7.0889,-7.0889,-7.0889,-7.0979,-7.1158,-7.1038,-7.0456,-6.9302,-6.8886,-6.8227,-6.6735,-6.6595,-6.6595,-6.6595,-6.6595,-6.6595,-6.6595,-6.6595,-6.6595,-6.6595,-6.6595,-6.6595,-6.6595,-6.572,-6.5121,-6.4834,-6.3205,-6.2044,-6.1318,-6.0406,-5.9637,-5.659,-5.9372,-6.1558,-6.2055,-6.1019,-5.9275,-5.6715,-5.4488,-5.1981,-4.8233,-4.7521,-4.7521,-4.7521,-4.8387,-4.9034,-4.8937,-4.9801,-5.1368,-5.3466,-5.436,-5.5828,-5.8547,-5.8911,-5.9534,-6.0896,-6.2121,-6.2942,0.0,0.0,0.0,0.0,-6.5921,-6.6595,-6.6595,-6.6595,-6.6595,-6.6595,-6.6595,-6.6595,-6.6595,-6.6595,-6.6595,-6.6595,-6.6595,-6.6595,0.0,0.0,0.0,0.0,-6.7241,-6.7494,-6.7578,-6.8225,-6.8478,-6.8534,-6.9152,-6.9377,-6.9461,-7.0079,-7.0276,-7.0276,-7.0304,-7.0304,-7.0304,-7.0276,-7.0276,-7.0276,-7.0276,-6.9854,-6.9377,-6.9377,-6.845,-6.7946,-7.0021,-6.9609,-6.9389,-7.1355,-7.1288,-7.0889,-7.0889,-7.0889,-7.0889,-7.0889,-7.0889,-7.1128,-7.1787,-7.1308,-7.0605,-6.9943,-6.9176,-6.8227,-6.6735,-6.6595,-6.6595,-6.6595,-6.6595,-6.6595,-6.6595,-6.6595,-6.6595,-6.6595,-6.6595,-6.6595,-6.6595,-6.6595,-6.6003,-6.4834,-6.4834,-6.3499,-6.1318,-6.1318,-6.0227,-5.4594,-5.6167,-5.7041,-5.7825,-5.5778,-5.3559,-5.3455,-5.0726,-4.778,-4.6299,-4.5529,-4.4758,-4.4142,-4.4867,-4.5849,-4.7247,-4.8208,-4.8973,-4.9479,-5.4427,-5.7862,-5.7559,-6.1528,-6.412,-6.3723,-6.3567,-6.3364,0.0,0.0,0.0,0.0,-6.5527,-6.6145,-6.6595,-6.6595,-6.6595,-6.6595,-6.6595,-6.6595,-6.6595,-6.6595,-6.6595,-6.6595,-6.6595,0.0,0.0,0.0,0.0,0.0,-6.7241,-6.7775,-6.8225,-6.8843,-6.9349,-6.9742,-6.9939,-7.0023,-7.0051,-7.0248,-7.0304,-7.0304,-7.0304,-7.0304,-7.0304,-7.0304,-7.0304,-7.0304,-7.0304,-7.0164,-7.0023,-7.0023,-6.9503,-6.9194,-7.03,-6.9981,-6.9825,-7.0902,-7.1058,-7.0889,-7.0889,-7.0889,-7.0889,-7.0889,-7.0889,-7.0979,-7.1188,-7.1427,-7.1326,-7.0532,-6.9939,-6.9263,-6.8799,-6.7541,-6.6595,-6.6595,-6.6595,-6.6595,-6.6595,-6.6595,-6.6595,-6.6595,-6.6595,-6.6595,-6.6595,-6.6595,-6.6455,-6.6003,-6.5264,-6.3965,-6.2492,-6.2492,-6.1718,-5.1493,-5.3421,-5.4547,-5.5247,-5.3326,-5.1276,-5.1569,-4.8425,-4.5287,-4.4538,-4.3507,-4.2638,-4.1983,-4.2966,-4.4177,-4.5342,-4.6262,-4.7334,-4.8826,-5.345,-5.7094,-5.7896,-6.2579,-6.5172,-6.3563,-6.3885,0.0,0.0,0.0,0.0,0.0,-6.5555,-6.6202,-6.6595,-6.6595,-6.6595,-6.6595,-6.6595,-6.6595,-6.6595,-6.6595,-6.6595,-6.6595,-6.6595,0.0,0.0,0.0,0.0,0.0,-6.7607,-6.8253,-6.8871,-6.9489,-6.9967,-7.0304,-7.0304,-7.0304,-7.0304,-7.0304,-7.0304,-7.0304,-7.0304,-7.0304,-7.0304,-7.0304,-7.0304,-7.0304,-7.0304,-7.0304,-7.0248,-7.0023,-6.976,-6.9677,-7.0518,-7.0244,-7.0193,-7.1087,-7.1068,-7.0889,-7.0889,-7.0889,-7.0889,-7.0889,-7.0889,-7.0979,-7.1248,-7.1899,-7.1989,-7.1248,-7.1258,-7.0947,-6.9899,-6.905,-6.8291,-6.7816,-6.7264,-6.7264,-6.7788,-6.7788,-6.7925,-6.8169,-6.765,-6.7374,-6.7374,-6.6847,-6.6595,-6.6595,-6.5407,-6.4401,-6.3792,-6.3353,-6.2614,0.0,-5.076,-5.3356,-5.3725,-5.281,-5.1577,-5.057,-4.7479,0.0,-4.2718,-4.1706,-4.0936,-4.0822,-4.2279,-4.3414,-4.3325,-4.405,-4.6276,-5.0455,-5.2216,-5.4864,-5.9699,-6.2728,-6.3548,-6.1333,-6.3388,0.0,0.0,0.0,0.0,0.0,-6.5949,-6.6595,-6.6595,-6.6595,-6.6595,-6.6595,-6.6595,-6.6595,-6.6595,-6.6595,-6.6595,-6.6595,-6.6595,0.0,0.0,0.0,0.0,0.0,-6.8253,-6.8871,-6.9461,-7.0051,-7.0304,-7.0304,-7.0304,-7.0304,-7.0304,-7.0304,-7.0304,-7.0304,-7.0304,-7.0304,-7.0304,-7.0248,-7.0276,-7.0304,-7.0248,-7.0248,-7.0107,-6.9489,-6.942,-6.962,-7.046,-7.0244,-7.0341,-7.1565,-7.1368,-7.0949,-7.0919,-7.0889,-7.0889,-7.0889,-7.0889,-7.1098,-7.1858,-7.256,-7.285,-7.2109,-7.3204,-7.2983,-7.0486,-7.1135,-7.1356,-7.0134,-6.8741,-6.847,-6.9752,-6.9913,-7.0177,-7.0799,-6.9486,-6.8712,-6.8712,-6.7403,-6.6735,-6.6735,-6.555,-6.4978,-6.4834,-6.3792,-6.3353,-4.3785,0.0,-4.7447,-4.8733,-4.8514,-4.8055,0.0,-4.6129,-4.3737,-4.2298,-4.0541,-3.9122,-3.8385,-3.9685,-4.1073,-4.1614,-4.3042,-4.5527,-5.0313,-5.7105,-6.2414,-6.4594,-6.6553,-6.6222,-6.2364,-6.3703,0.0,0.0,0.0,0.0,0.0,-6.6173,-6.6595,-6.6595,-6.6595,-6.6595,-6.6595,-6.6595,-6.6595,-6.6595,-6.6595,-6.6595,-6.6595,-6.7125,0.0,0.0,0.0,0.0,-6.8427,-6.8991,-6.9264,-6.9461,-7.0051,-7.0304,-7.0304,-7.0304,-7.0304,-7.0304,-7.0304,-7.0304,-7.0304,-7.0304,-7.0304,-7.022,-6.9742,-6.9939,-7.0192,-6.9742,-6.9602,-6.9461,-6.8843,-6.8769,-6.8961,-6.9793,-7.0244,-7.0726,-7.1087,-7.1398,-7.1517,-7.1009,-7.0889,-7.0889,-7.0889,-7.0889,-7.1078,-7.1843,-7.291,-7.3913,-7.4281,-7.4538,-7.4493,-7.3845,-7.2607,-7.1878,-7.22,-7.0929,-7.0147,-7.0539,-7.0539,-7.0669,-7.0799,-7.0045,-6.9545,-6.9545,-6.8198,-6.7403,-6.7403,-6.6567,-6.6145,-6.6145,-6.5862,-6.5264,-4.2038,-4.3553,-4.5092,-4.6439,-4.6049,-4.5474,-4.5521,-4.3442,-4.1422,-4.0396,-3.9111,-3.8117,-3.7701,-4.0493,-4.2449,-4.1286,-4.54,-5.0035,-5.3889,-5.8838,-6.2914,-6.5149,-6.6254,-6.5966,0.0,0.0,0.0,0.0,0.0,0.0,0.0,-6.6258,-6.6595,-6.6595,-6.6595,-6.6595,-6.6595,-6.7014,-6.6986,-6.6595,-6.7264,-6.7403,-6.7125,-6.7816,-6.8227,0.0,0.0,0.0,-6.8679,-6.8512,-6.8871,-6.9433,-6.977,-7.0051,-7.0304,-7.0304,-7.0304,-7.0304,-7.0304,-7.0304,-7.0304,-7.0304,-7.0107,-6.9826,-6.9489,-6.9433,-6.9405,-6.9068,-6.8983,-6.896,-6.8626,-6.8878,-6.9315,-6.9972,-7.0783,-7.145,-7.1685,-7.1846,-7.1787,-7.1427,-7.1098,-7.0889,-7.0889,-7.1148,-7.1405,-7.1405,-7.3181,-7.4495,-7.4501,-7.5616,-7.5926,-7.5121,-7.453,-7.3907,-7.3355,-7.2984,-7.258,-7.2235,-7.2204,-7.233,-7.2705,-7.1698,-7.0699,-6.981,-6.877,-6.809,-6.7679,-6.7264,-6.6875,-6.6595,-6.6595,-6.6286,-4.1065,-4.3192,-4.5238,-4.5663,-4.4827,-4.3734,-4.3329,-4.1059,-3.9076,-3.8714,-3.8111,-3.7932,-3.8982,-4.2603,-4.4699,-4.2499,-4.9342,-5.5961,-5.8847,-6.0117,-6.1625,-6.4009,-6.4624,0.0,0.0,0.0,0.0,0.0,0.0,0.0,0.0,-6.6454,-6.6595,-6.6735,-6.6595,-6.6595,-6.6595,-6.7264,-6.7264,-6.6735,-6.809,-6.8363,-6.7953,-6.8635,-6.8905,0.0,0.0,0.0,-6.89,-6.8315,-6.8624,-6.9523,-6.9523,-6.9917,-7.0304,-7.0304,-7.0304,-7.0304,-7.0304,-7.0304,-7.0304,-7.0304,-6.9883,-6.9377,-6.9292,-6.8815,-6.8309,-6.8225,-6.8253,-6.834,-6.8484,-6.9039,-6.9728,-7.0632,-7.1422,-7.2193,-7.2804,-7.2445,-7.1996,-7.1906,-7.1368,-7.0889,-7.0889,-7.1405,-7.1759,-7.1277,-7.3473,-7.4998,-7.4469,-7.6682,-7.74,-7.5524,-7.6269,-7.6171,-7.4272,-7.4508,-7.4659,-7.4147,-7.4026,-7.4268,-7.4778,-7.3599,-7.2078,-7.0337,-6.9545,-6.901,-6.8334,-6.809,-6.7541,-6.7125,-6.6875,-6.6875,-3.915,-4.3779,-4.8171,-4.5759,-4.416,-4.3374,-4.4143,-4.1799,-3.979,-4.0334,-3.9395,-3.9637,-4.3748,-4.2755,-4.2507,-4.598,-5.1801,-5.742,-6.18,-6.5497,-6.6879,-6.4571,-6.6029,0.0,0.0,0.0,0.0,0.0,0.0,0.0,0.0,-6.6958,-6.6875,-6.7541,-6.6875,-6.6595,-6.6595,-6.6735,-6.7014,-6.7541,-6.7816,-6.809,-6.8635,-6.9441,-6.9737,0.0,0.0,-7.032,-7.0438,-7.017,-7.0275,-7.0392,-7.0392,-7.0327,-7.0304,-7.0304,-7.0304,-7.0304,-7.0304,-7.0304,-7.0304,-7.0304,-6.9883,-6.9292,-6.8759,-6.8169,-6.755,-6.7016,-6.7241,-6.7635,-6.7664,-6.8201,-6.9154,-7.0395,-7.164,-7.2649,-7.288,-7.2834,-7.2595,-7.1996,-7.1368,-7.0889,-7.0889,-7.1405,-7.2013,-7.2547,-7.4501,-7.6056,-7.6458,-7.7933,-7.8405,-7.6861,-7.692,-7.6414,-7.4873,-7.4897,-7.4897,-7.4778,-7.4778,-7.4508,-7.4026,-7.3905,-7.3262,-7.2391,-7.1728,-7.1315,-7.1186,-6.9353,-6.8847,-6.922,-6.8062,-6.7816,-3.9026,-4.1823,-4.5065,-4.6208,-4.8042,-4.9628,-5.0098,-4.8183,-4.5845,-4.4051,-4.307,-4.3251,-4.5909,-4.6957,-4.9812,-5.6939,-5.6673,-5.7406,-6.2538,-6.294,-6.2953,-6.3675,0.0,0.0,0.0,0.0,0.0,0.0,0.0,0.0,0.0,0.0,-6.7014,-6.7679,-6.7403,-6.7403,-6.7816,-6.7816,-6.7816,-6.7679,-6.8905,-6.9441,-6.9441,-7.0134,-7.0397,-7.0397,0.0,-7.0312,-7.0341,-6.9797,-6.9806,-6.9993,-6.9993,-7.016,-7.0304,-7.0304,-7.0304,-7.0304,-7.0304,-7.0304,-7.0304,-7.0304,-6.9658,-6.8843,-6.8562,-6.7775,-6.7101,-6.721,-6.7072,-6.7242,-6.7975,-6.8621,-6.9713,-7.1364,-7.2552,-7.3504,-7.3971,-7.3702,-7.3253,-7.2565,-7.1906,-7.1438,-7.1466,-7.2013,-7.2547,-7.2797,-7.4313,-7.5613,-7.6366,-7.7305,-7.771,-7.7046,-7.6983,-7.6414,-7.5024,-7.4897,-7.4897,-7.4897,-7.4897,-7.4778,-7.4388,-7.4147,-7.3783,-7.3416,-7.2766,-7.2235,-7.1825,-7.0439,-6.9781,-6.9752,-6.8741,-6.8499,-3.916,-4.0786,-4.3424,-4.6486,-4.9203,-5.1863,-5.4396,-5.2651,-4.998,-4.8152,-4.7746,-4.79,-4.8559,-5.1416,-5.5885,-6.2668,-5.9591,-5.8259,-6.3489,-6.1394,-6.0577,-6.3973,0.0,0.0,0.0,0.0,0.0,0.0,0.0,0.0,0.0,0.0,-6.7154,-6.7953,-6.7953,-6.8227,-6.877,-6.8905,-6.877,-6.8227,-6.984,-7.0528,-7.0134,-7.0658,-7.0889,-7.0889,-7.0397,-7.0134,-7.0134,-6.9574,-6.9661,-6.9958,-6.9818,-7.0049,-7.0304,-7.0304,-7.0304,-7.0304,-7.0304,-7.0304,-7.0304,-7.0304,-6.9461,-6.8478,-6.8766,-6.7863,-6.7014,-6.7679,-6.7541,-6.7406,-6.8589,-6.9292,-7.025,-7.2218,-7.329,-7.4104,-7.4886,-7.4632,-7.3971,-7.3443,-7.2751,-7.2189,-7.2134,-7.2547,-7.2922,-7.317,-7.4304,-7.5409,-7.5992,-7.6644,-7.692,-7.6762,-7.6762,-7.6256,-7.4992,-7.4897,-7.4897,-7.4897,-7.4897,-7.4897,-7.4897,-7.4388,-7.4147,-7.4147,-7.3661,-7.3139,-7.2455,-7.1473,-7.0829,-7.0539,-6.9545,-6.9174,-3.8673,-4.3153,-4.7876,-4.6168,-4.2924,-4.2708,-5.264,-5.033,-4.7381,-5.2158,-5.3243,-5.347,-5.3951,-5.4313,-5.4408,-5.4062,-5.7382,-6.1562,-6.6008,0.0,-6.6382,0.0,0.0,0.0,0.0,0.0,0.0,0.0,0.0,0.0,0.0,0.0,0.0,-6.8635,-6.877,-6.877,-6.877,-6.947,-6.9737,-6.9737,-6.9869,-7.0265,-7.0759,-7.0919,-7.0889,-7.0889,-7.0919,-7.0789,-7.0759,-7.0759,-7.1139,-7.1513,-7.0795,-7.0478,-7.0304,-7.0304,-7.0304,-7.0304,-7.0304,-7.0304,-7.0304,-7.0304,-6.9461,-6.8622,-6.928,-6.8539,-6.7816,-6.8499,-6.8635,-6.8779,-6.9417,-6.9609,-7.0073,-7.2167,-7.3201,-7.409,-7.5489,-7.5274,-7.4871,-7.4881,-7.3791,-7.2864,-7.2795,-7.2922,-7.317,-7.3783,-7.4985,-7.594,-7.6035,-7.6604,-7.673,-7.613,-7.6066,-7.575,-7.496,-7.4897,-7.4897,-7.4897,-7.4897,-7.4897,-7.4897,-7.4897,-7.4897,-7.4897,-7.4778,-7.4778,-7.4627,-7.2705,-7.2109,-7.2672,-7.0759,-7.0134,-3.9325,-4.3018,-4.6996,-4.5812,-4.4205,-4.584,-5.7016,-5.7012,-5.4624,-5.4409,-5.5933,-5.673,-5.4709,-5.8374,-6.0805,-5.8219,-6.1152,-6.447,-6.6645,-6.6679,0.0,0.0,0.0,0.0,0.0,0.0,0.0,0.0,0.0,0.0,0.0,0.0,0.0,-6.877,-6.9174,-6.9707,-7.0104,-7.0367,-7.0498,-7.0498,-7.0498,-7.0629,-7.0889,-7.0889,-7.0889,-7.0889,-7.0889,-7.0889,-7.0949,-7.1338,-7.1659,-7.1738,-7.1275,-7.1309,-7.1595,-7.06,-7.06,-7.104,-7.0452,-7.06,-7.104,-7.0452,-6.9753,-6.928,-6.9422,-6.8679,-6.7953,-6.9174,-6.9441,-6.9425,-6.969,-7.033,-7.1247,-7.2444,-7.3537,-7.4702,-7.5654,-7.5407,-7.4871,-7.501,-7.4175,-7.3596,-7.354,-7.3539,-7.3939,-7.5016,-7.5315,-7.5624,-7.6477,-7.6477,-7.6256,-7.6035,-7.5592,-7.5182,-7.4929,-7.4897,-7.4897,-7.4897,-7.4897,-7.4897,-7.4897,-7.4897,-7.4897,-7.4897,-7.4897,-7.4897,-7.4897,-7.363,-7.3015,-7.2922,-7.1631,-7.1018,-4.222,-4.4435,-4.7323,-4.8031,-4.7006,-4.878,-5.9719,-6.015,-5.8329,-5.8811,-5.8807,-5.8165,-5.6406,-5.9653,-6.2133,-6.0719,-6.3258,-6.5745,-6.6481,0.0,0.0,0.0,0.0,0.0,0.0,0.0,0.0,0.0,0.0,0.0,0.0,0.0,0.0,0.0,-6.9707,-7.0397,-7.0919,-7.0889,-7.0889,-7.0889,-7.0889,-7.0889,-7.0889,-7.0889,-7.0889,-7.0889,-7.0889,-7.0889,-7.0949,-7.1398,-7.1688,-7.1767,-7.1593,-7.1856,-7.2172,-7.104,-7.0894,-7.1187,-7.104,-7.104,-7.1012,-7.0747,-7.016,-6.9536,-6.9818,-6.9235,-6.8635,-6.984,-7.0236,-7.0193,-7.0103,-7.1137,-7.2311,-7.262,-7.4074,-7.5354,-7.5516,-7.5388,-7.5204,-7.4988,-7.4402,-7.3973,-7.4151,-7.4026,-7.4397,-7.5756,-7.5371,-7.5308,-7.6509,-7.6066,-7.5656,-7.5656,-7.5182,-7.4897,-7.4897,-7.4897,-7.4897,-7.4897,-7.4897,-7.4897,-7.4897,-7.4897,-7.4897,-7.4897,-7.4897,-7.4897,-7.4897,-7.4268,-7.3539,-7.2922,-7.2139,-7.1533,-4.7691,-4.8025,-5.0028,-5.3335,-5.068,-4.9756,-5.9584,-5.7673,-5.6497,-6.5805,-6.2165,-5.7875,-5.9748,-5.7454,-5.6331,-5.9493,-6.2588,-6.4937,0.0,0.0,0.0,0.0,0.0,0.0,0.0,0.0,0.0,0.0,0.0,0.0,0.0,0.0,0.0,0.0,-7.0104,-7.0889,-7.0889,-7.0889,-7.0889,-7.0889,-7.0889,-7.0889,-7.0889,-7.0889,-7.0889,-7.0889,-7.0889,-7.0889,-7.0889,-7.0919,-7.1302,-7.1874,-7.1662,-7.1595,-7.145,-7.145,-7.104,-7.06,-7.2028,-7.1595,-7.0452,-7.1158,-7.0593,-6.9677,-7.0378,-7.0331,-7.0002,-7.0658,-7.0889,-7.0919,-7.0889,-7.1846,-7.2804,-7.2894,-7.4419,-7.5711,-7.5043,-7.5418,-7.5826,-7.5122,-7.447,-7.4222,-7.4753,-7.4419,-7.4397,-7.5756,-7.5371,-7.515,-7.5877,-7.534,-7.4897,-7.4897,-7.4897,-7.4897,-7.4897,-7.4897,-7.4897,-7.4897,-7.4897,-7.4897,-7.4897,-7.4897,-7.4897,-7.4897,-7.4897,-7.4897,-7.4897,-7.4268,-7.3539,-7.2922,-7.2265,-7.1533,-4.2184,-4.6845,-5.147,-5.0366,-5.3496,-5.7892,-6.1655,-5.9703,-5.8542,-6.3524,-6.2113,-5.9859,-5.9821,-6.106,-6.1596,-5.9976,-6.2556,-6.4965,0.0,0.0,0.0,0.0,0.0,0.0,0.0,0.0,0.0,0.0,0.0,0.0,0.0,0.0,0.0,0.0,-6.9707,-7.0397,-7.0919,-7.0889,-7.0889,-7.0889,-7.0889,-7.0889,-7.0889,-7.0889,-7.0889,-7.0889,-7.0889,-7.0889,-7.0949,-7.1398,-7.2252,-7.3206,-7.267,-7.3003,-7.3731,-7.2602,-7.2459,-7.2573,-7.2028,-7.1884,-7.1827,-7.108,-7.0648,-7.046,-7.0683,-7.0384,-7.0002,-7.0658,-7.1277,-7.1533,-7.1018,-7.1909,-7.2832,-7.2862,-7.3395,-7.407,-7.5292,-7.4988,-7.4809,-7.555,-7.5079,-7.4639,-7.4929,-7.5188,-7.5478,-7.5972,-7.5814,-7.5561,-7.5245,-7.5024,-7.4897,-7.4897,-7.4897,-7.4897,-7.4897,-7.4897,-7.4897,-7.4897,-7.4897,-7.4897,-7.4897,-7.4897,-7.4897,-7.4897,-7.4897,-7.4897,-7.4897,-7.4659,-7.4268,-7.3539,-7.2922,-7.2265,-4.9313,-5.2481,-5.4867,-5.778,-6.0604,-6.3104,-6.4883,-6.4015,-6.3228,-6.4718,-6.35,-6.2064,-6.2192,-6.2656,-6.2816,-6.2198,-6.3549,0.0,0.0,0.0,0.0,0.0,0.0,0.0,0.0,0.0,0.0,0.0,0.0,0.0,0.0,0.0,0.0,0.0,-6.9337,-7.0134,-7.0528,-7.0789,-7.0889,-7.0889,-7.0889,-7.0889,-7.0889,-7.0889,-7.0889,-7.0889,-7.0889,-7.0889,-7.0949,-7.1338,-7.2295,-7.3358,-7.2649,-7.3211,-7.4288,-7.331,-7.3169,-7.3169,-7.2886,-7.2744,-7.2544,-7.1995,-7.1411,-7.1151,-7.1179,-7.0844,-7.0397,-7.0789,-7.1148,-7.1405,-7.1018,-7.1707,-7.2456,-7.247,-7.2942,-7.3466,-7.4201,-7.4088,-7.4096,-7.4622,-7.4581,-7.4659,-7.4897,-7.5498,-7.6003,-7.6003,-7.6003,-7.5719,-7.4992,-7.4897,-7.4897,-7.4897,-7.4897,-7.4897,-7.4897,-7.4897,-7.4897,-7.4897,-7.4897,-7.4897,-7.4897,-7.4897,-7.4897,-7.4897,-7.4897,-7.4897,-7.4897,-7.4897,-7.4539,-7.3905,-7.317,-7.2547,-6.2407,-6.1353,-5.9533,-7.0627,-6.9596,-6.6387,-6.8589,-6.9337,-6.9215,-6.7897,-6.5764,-6.4386,-6.5577,-6.2802,-6.1489,-6.5135,0.0,0.0,0.0,0.0,0.0,0.0,0.0,0.0,0.0,0.0,0.0,0.0,0.0,0.0,0.0,0.0,0.0,0.0,-6.9039,-6.9737,-6.9869,-7.0528,-7.0789,0.0,-7.0919,-7.0889,-7.0889,-7.0889,-7.0889,-7.0889,-7.0889,-7.0889,-7.0889,-7.0889,-7.1667,-7.2671,-7.2104,-7.2631,-7.3782,-7.3782,-7.3392,-7.3028,-7.4318,-7.3871,-7.2715,-7.3304,-7.2759,-7.1786,-7.1774,-7.1318,-7.0889,-7.1018,-7.0949,-7.1009,-7.1138,-7.1526,-7.1994,-7.1948,-7.3013,-7.3586,-7.243,-7.3084,-7.3786,-7.3169,-7.3539,-7.4147,-7.4778,-7.5498,-7.6003,-7.6003,-7.594,-7.5656,-7.4992,-7.4897,-7.4897,-7.4897,-7.4897,-7.4897,-7.4897,-7.4897,-7.4897,-7.4897,-7.4897,-7.4897,-7.4897,-7.4897,-7.4897,-7.4897,-7.4897,-7.4897,-7.4897,-7.4897,-7.4659,-7.4026,-7.3293,-7.2547,-5.1275,-5.7159,-6.3124,-6.7793,-7.0056,-7.0896,-6.9881,-7.0129,-6.9732,-6.6833,-6.6568,-6.6642,-6.568,-6.454,-6.4102,0.0,0.0,0.0,0.0,0.0,0.0,0.0,0.0,0.0,0.0,0.0,0.0,0.0,0.0,0.0,0.0,0.0,0.0,-6.7679,-6.7953,-6.8499,-6.9039,-6.9707,-7.0134,0.0,-7.0658,-7.0889,-7.0889,-7.0889,-7.0889,-7.0889,-7.0889,-7.0889,-7.0889,-7.0889,-7.1368,-7.2116,-7.1954,-7.2656,-7.3819,-7.3819,-7.4147,-7.4318,-7.401,-7.3731,-7.3275,-7.2523,-7.2022,-7.1744,-7.1242,-7.0998,-7.1018,-7.1533,-7.1638,-7.1798,-7.2319,-7.2611,-7.2637,-7.2654,-7.288,-7.3322,-7.4154,-7.4123,-7.4092,-7.4419,-7.4659,-7.4778,-7.4897,-7.5498,-7.6003,-7.6003,-7.5498,-7.5055,-7.4897,-7.4897,-7.4897,-7.4897,-7.4897,-7.4897,-7.4897,-7.4897,-7.4897,-7.4897,-7.4897,-7.4897,-7.4897,-7.4897,-7.4897,-7.4897,-7.4897,-7.4897,-7.4897,-7.4897,-7.4778,-7.4659,-7.3416,-7.2797,-5.5355,-5.9147,-6.1575,-6.9085,-7.2371,-7.3556,-7.2483,-7.1872,-7.0802,-6.8625,-6.7796,-6.7145,-6.6125,-6.5372,0.0,0.0,0.0,0.0,0.0,0.0,0.0,0.0,0.0,0.0,0.0,0.0,0.0,0.0,0.0,0.0,0.0,-6.6595,-6.7014,-6.7679,-6.809,-6.8635,-6.9308,-7.0002,-7.0397,-7.0397,-7.0759,-7.0889,-7.0889,-7.0889,-7.0889,-7.0889,-7.0889,-7.0889,-7.0889,-7.0889,-7.1308,-7.1906,-7.2235,-7.2984,-7.3941,-7.424,-7.439,-7.445,-7.4337,-7.408,-7.3724,-7.304,-7.2595,-7.2149,-7.1536,-7.1158,-7.1078,-7.2183,-7.2145,-7.2198,-7.3608,-7.395,-7.3944,-7.3889,-7.3662,-7.3562,-7.385,-7.4159,-7.4432,-7.4451,-7.4659,-7.4897,-7.4897,-7.5213,-7.5592,-7.594,-7.5371,-7.4897,-7.4897,-7.4897,-7.4897,-7.4897,-7.4897,-7.5016,-7.5369,-7.5134,-7.5016,-7.5337,-7.5016,-7.4897,-7.4897,-7.4897,-7.4897,-7.4897,-7.4897,-7.4897,-7.4897,-7.4897,-7.4897,-7.4897,-7.3905,-7.317,-6.0912,-6.1937,-6.0436,-7.1859,-7.4879,-7.4857,-7.4596,-7.3191,-7.1751,-7.077,-6.8595,-6.6755,-6.6346,0.0,0.0,0.0,0.0,0.0,0.0,0.0,0.0,0.0,0.0,0.0,0.0,0.0,0.0,0.0,0.0,0.0,-6.6595,-6.6735,-6.7014,-6.7679,-6.8363,-6.9039,-6.9737,-7.0397,-7.0789,-7.0789,-7.0889,-7.0889,-7.0889,-7.0889,-7.0889,-7.0889,-7.0889,-7.0889,-7.0889,-7.0889,-7.1218,-7.1757,-7.2355,-7.3043,-7.3791,-7.433,-7.433,-7.4121,-7.4569,-7.436,-7.3851,-7.3612,-7.3193,-7.2595,-7.2038,-7.1468,-7.1138,-7.2614,-7.2432,-7.2311,-7.4109,-7.4714,-7.4811,-7.4861,-7.4599,-7.4127,-7.3199,-7.4002,-7.4622,-7.403,-7.4388,-7.4897,-7.4897,-7.4897,-7.5087,-7.5719,-7.5276,-7.4897,-7.4897,-7.4897,-7.4897,-7.4897,-7.4897,-7.5134,-7.5687,-7.5337,-7.5337,-7.5919,-7.5337,-7.5016,-7.5016,-7.5016,-7.4897,-7.4897,-7.4897,-7.4897,-7.4897,-7.4897,-7.4897,-7.4897,-7.4147,-7.3539,-5.0493,-5.8722,-6.7506,-7.3772,-7.5067,-7.449,-7.3352,-7.2545,-7.1375,-6.9541,-6.7969,-6.6715,-6.6147,0.0,0.0,0.0,0.0,0.0,0.0,0.0,0.0,0.0,0.0,0.0,0.0,0.0,0.0,0.0,0.0,0.0,-6.6595,-6.7293,-6.7541,-6.7679,-6.8363,-6.8905,-6.8905,-6.9737,-7.0002,-7.0002,-7.0629,-7.0889,-7.0889,-7.0889,-7.0889,-7.0889,-7.0889,-7.0889,-7.0889,-7.0889,-7.0949,-7.1038,-7.1128,-7.1936,-7.3043,-7.3133,-7.3851,-7.4689,-7.418,-7.3971,-7.3702,-7.2535,-7.2086,-7.2038,-7.1994,-7.1466,-7.1178,-7.2513,-7.2402,-7.2049,-7.3009,-7.3564,-7.4089,-7.405,-7.4825,-7.5275,-7.4061,-7.3974,-7.403,-7.3936,-7.4388,-7.4897,-7.4897,-7.4897,-7.4929,-7.5024,-7.496,-7.4897,-7.4897,-7.4897,-7.4897,-7.4897,-7.4897,-7.5134,-7.5687,-7.5687,-7.5919,-7.6573,-7.6034,-7.5687,-7.5687,-7.5134,-7.4897,-7.4897,-7.4897,-7.4897,-7.4897,-7.4897,-7.4897,-7.4897,-7.4147,-7.3539,-5.0788,-6.0187,-6.8782,-7.3583,-7.4923,-7.491,-7.4193,-7.292,-7.1609,-7.0738,-6.8788,-6.6862,0.0,0.0,0.0,0.0,0.0,0.0,0.0,0.0,0.0,0.0,0.0,0.0,0.0,0.0,0.0,0.0,0.0,-6.7293,-6.7293,-6.7953,-6.8499,-6.8905,-6.9174,-6.9574,-6.9972,-7.0236,-7.0528,-7.0498,-7.0789,-7.0889,-7.0889,-7.0889,-7.0889,-7.0889,-7.0889,-7.0889,-7.0889,-7.0889,-7.0889,-7.0949,-7.1308,-7.2056,-7.2954,-7.3343,-7.3612,-7.3791,-7.3881,-7.3402,-7.2654,-7.2086,-7.1876,-7.1888,-7.1487,-7.1405,-7.1722,-7.3132,-7.3289,-7.3412,-7.4811,-7.5091,-7.5122,-7.4988,-7.5182,-7.506,-7.4125,-7.447,-7.5011,-7.4602,-7.4659,-7.4897,-7.4897,-7.4897,-7.4897,-7.4897,-7.4897,-7.4897,-7.4897,-7.4897,-7.4897,-7.4897,-7.4897,-7.522,-7.6231,-7.5687,-7.5803,-7.7134,-7.6378,-7.5803,-7.5803,-7.5571,-7.5252,-7.4897,-7.4897,-7.4897,-7.4897,-7.4897,-7.4897,-7.4897,-7.4659,-7.4147,-5.1121,-5.8349,-6.4324,-7.1103,-7.2845,-7.335,-7.4713,-7.3588,-7.2284,-7.1745,-6.9813,0.0,0.0,0.0,0.0,0.0,0.0,0.0,0.0,0.0,0.0,0.0,0.0,0.0,0.0,0.0,0.0,0.0,0.0,-6.7953,-6.7953,-6.8635,-6.9308,-6.9869,-7.0134,-7.0397,-7.0919,-7.0889,-7.0889,-7.0889,-7.0889,-7.0889,-7.0889,-7.0889,-7.0889,-7.0889,-7.0889,-7.0889,-7.0889,-7.0889,-7.0889,-7.0949,-7.1457,-7.2056,-7.2714,-7.3193,-7.3193,-7.2954,-7.3283,-7.2847,-7.2109,-7.1959,-7.2029,-7.2068,-7.1556,-7.1789,-7.2387,-7.3412,-7.3695,-7.4001,-7.5553,-7.5703,-7.5451,-7.5432,-7.5182,-7.4839,-7.4066,-7.4685,-7.5289,-7.4992,-7.4897,-7.4897,-7.4897,-7.4897,-7.4897,-7.4897,-7.4897,-7.4897,-7.4897,-7.4897,-7.4897,-7.4897,-7.4897,-7.5337,-7.6573,-7.5887,-7.6002,-7.7719,-7.6831,-7.6264,-7.6264,-7.5919,-7.5571,-7.5134,-7.5016,-7.4897,-7.4897,-7.4897,-7.4897,-7.4897,-7.4897,-7.4508,-4.6914,-4.9094,-5.2478,-6.5756,-6.7618,-6.7834,-7.409,-7.4451,-7.3048,-7.1236,-7.0816,0.0,0.0,0.0,0.0,0.0,0.0,0.0,0.0,0.0,0.0,0.0,0.0,0.0,0.0,0.0,0.0,0.0,0.0,-6.877,-6.877,-6.947,-6.9869,-6.9869,-7.0528,-7.0889,-7.0889,-7.0889,-7.0889,-7.0889,-7.0889,-7.0889,-7.0889,-7.0889,-7.0889,-7.0889,-7.0889,-7.0889,-7.0889,-7.0889,-7.0889,-7.0889,-7.0949,-7.1368,-7.1936,-7.1966,-7.2385,-7.2834,-7.2206,-7.233,-7.2698,-7.2159,-7.2326,-7.2828,-7.2797,-7.2797,-7.2797,-7.2952,-7.2952,-7.2952,-7.3138,-7.3632,-7.3967,-7.3998,-7.4482,-7.469,-7.4089,-7.3967,-7.421,-7.4778,-7.4897,-7.4897,-7.4897,-7.4897,-7.4897,-7.4897,-7.4897,-7.4897,-7.4897,-7.4897,-7.4897,-7.4897,-7.4897,-7.5337,-7.6573,-7.6686,-7.7134,-7.8403,-7.7829,-7.7499,-7.7499,-7.6378,-7.5803,-7.5687,-7.5252,-7.4897,-7.4897,-7.4897,-7.4897,-7.4897,-7.4897,-7.4508,-4.5766,-4.7815,-5.0058,-5.8949,-6.3691,-6.6783,-6.9309,-7.1546,-7.3084,-7.31,-7.156,0.0,0.0,0.0,0.0,0.0,0.0,0.0,0.0,0.0,0.0,0.0,0.0,0.0,0.0,0.0,0.0,0.0,0.0,0.0,-6.947,-7.0104,-7.0528,-7.0528,-7.0759,-7.0889,-7.0889,-7.0889,-7.0889,-7.0889,-7.0889,-7.0889,-7.0889,-7.0889,-7.0889,-7.0889,-7.0889,-7.0889,-7.0889,-7.0889,-7.0889,-7.0889,-7.0889,-7.1308,-7.1876,-7.1876,-7.2056,-7.2206,-7.1966,-7.1738,-7.1737,-7.2104,-7.1916,-7.1789,-7.2891,-7.3046,-7.3046,-7.3416,-7.3905,-7.4147,-7.4147,-7.4388,-7.4508,-7.4508,-7.4778,-7.4897,-7.4627,-7.4508,-7.4627,-7.4897,-7.4897,-7.4897,-7.4897,-7.4897,-7.4897,-7.4897,-7.4897,-7.4897,-7.4897,-7.4897,-7.5016,-7.5486,-7.5454,-7.5919,-7.7134,-7.6911,-7.7245,-7.8403,-7.7938,-7.761,-7.761,-7.7134,-7.6605,-7.5803,-7.5571,-7.5252,-7.4897,-7.4897,-7.4897,-7.4897,-7.4897,-7.4778,-4.2673,-4.4314,-4.6315,-5.2967,-5.76,-6.1803,-6.6765,-6.9636,-7.1987,-7.4286,-7.3218,0.0,0.0,0.0,0.0,0.0,0.0,0.0,0.0,0.0,0.0,0.0,0.0,0.0,0.0,0.0,0.0,0.0,0.0,0.0,-7.0265,-7.0658,-7.0889,-7.0889,-7.0889,-7.0889,-7.0889,-7.0889,-7.0889,-7.0889,-7.0889,-7.0889,-7.0889,-7.0889,-7.0889,-7.0889,-7.0889,-7.0889,-7.0889,-7.0889,-7.0889,-7.0889,-7.0889,-7.1158,-7.1547,-7.1547,-7.1547,-7.1547,-7.1939,-7.1896,-7.1916,-7.2517,-7.2391,-7.2139,-7.2766,-7.3139,-7.3416,-7.3661,-7.4388,-7.5016,-7.5016,-7.5016,-7.4897,-7.4897,-7.4897,-7.4897,-7.4897,-7.4897,-7.4897,-7.4897,-7.4897,-7.4897,-7.4897,-7.4897,-7.4897,-7.4897,-7.4897,-7.5016,-7.5337,-7.5337,-7.5571,-7.6378,-7.6378,-7.6831,-7.7829,-7.7577,-7.7687,-7.8724,-7.8403,-7.8155,-7.8155,-7.8046,-7.7389,-7.6264,-7.6034,-7.5571,-7.4897,-7.4897,-7.4897,-7.4897,-7.4897,-7.4778,0.0,0.0,0.0,-4.8021,-4.9427,-5.2491,-6.6367,-6.8898,-6.964,-7.4261,-7.5402,0.0,0.0,0.0,0.0,0.0,0.0,0.0,0.0,0.0,0.0,0.0,0.0,0.0,0.0,0.0,0.0,0.0,0.0,-7.0919,-7.0889,-7.0889,-7.0889,-7.0889,-7.0889,-7.0889,-7.0889,-7.0889,-7.0889,-7.0889,-7.0889,-7.0889,-7.0889,-7.0889,-7.0889,-7.0889,-7.0889,-7.0889,-7.0889,-7.0889,-7.0889,-7.0889,-7.0889,-7.0889,-7.0889,-7.0889,-7.0889,-7.1018,-7.2043,-7.2766,-7.3385,-7.3385,-7.3752,-7.3995,-7.2517,-7.3139,-7.4236,-7.363,-7.4388,-7.5401,-7.5401,-7.5134,-7.4897,-7.4897,-7.4897,-7.4897,-7.4897,-7.4897,-7.4897,-7.4897,-7.4897,-7.4897,-7.4897,-7.4897,-7.4897,-7.4897,-7.4897,-7.522,-7.6117,-7.6199,-7.6573,-7.7499,-7.761,-7.7829,-7.8477,-7.8477,-7.883,-7.9388,-7.9388,-7.9388,-7.9388,-7.883,-7.8155,-7.7134,-7.6573,-7.5771,-7.4897,-7.4897,-7.4897,-7.4897,-7.4897,-7.4508,-3.6971,0.0,0.0,0.0,0.0,0.0,-5.4559,-5.937,-6.4527,-7.0384,-7.0934,0.0,0.0,0.0,0.0,0.0,0.0,0.0,0.0,0.0,0.0,0.0,0.0,0.0,0.0,0.0,0.0,0.0,-7.1018,-7.1178,-7.0889,-7.0889,-7.0889,-7.0889,-7.0889,-7.0889,-7.0889,-7.0889,-7.0889,-7.0889,-7.0889,-7.0889,-7.0889,-7.0889,-7.0889,-7.0889,-7.0889,-7.0889,-7.0889,-7.0889,-7.0889,-7.0889,-7.0889,-7.0889,-7.0889,-7.0889,-7.0889,-7.0889,-7.1277,-7.1405,-7.1661,-7.2391,-7.2766,-7.3139,-7.3721,-7.4357,-7.4715,-7.507,-7.5454,-7.5719,-7.5719,-7.5486,-7.5283,-7.5283,-7.5016,-7.4897,-7.4897,-7.4897,-7.4897,-7.4897,-7.4897,-7.4897,-7.4897,-7.4897,-7.4897,-7.4897,-7.5454,-7.5887,-7.6231,-7.6798,-7.7467,-7.8155,-7.8263,-7.8477,-7.9041,-7.9179,-7.9179,-7.9388,-7.9388,-7.9388,-7.9388,-7.9284,-7.883,-7.8155,-7.7245,-7.6573,-7.5887,-7.522,-7.4897,-7.4897,-7.4897,-7.4778,-3.7594,-3.8053,-3.8695,-3.9465,0.0,0.0,-5.3922,-5.8825,-6.4536,0.0,-7.4619,0.0,0.0,0.0,0.0,0.0,0.0,0.0,0.0,0.0,0.0,0.0,0.0,0.0,0.0,0.0,0.0,0.0,-7.1435,-7.1435,-7.1178,-7.1178,-7.1018,-7.0889,-7.0889,-7.0889,-7.0889,-7.0889,-7.0889,-7.0889,-7.0889,-7.0889,-7.0889,-7.0889,-7.0889,-7.0889,-7.0889,-7.0889,-7.0889,-7.0889,-7.0889,-7.0889,-7.0889,-7.0889,-7.0889,-7.0889,-7.0889,-7.0889,-7.1405,-7.1533,-7.1661,-7.2139,-7.2642,-7.3139,-7.363,-7.4325,-7.507,-7.5423,-7.5803,-7.5919,-7.5803,-7.5719,-7.5603,-7.5603,-7.5369,-7.5252,-7.5252,-7.5134,-7.5016,-7.4897,-7.4897,-7.4897,-7.4897,-7.522,-7.5454,-7.5454,-7.6231,-7.6911,-7.7324,-7.7796,-7.8477,-7.9113,-7.9217,-7.9355,-7.9699,-7.9699,-7.9801,-8.0107,-7.9904,-7.9801,-8.0107,-7.9904,-7.9355,-7.8691,-7.7796,-7.6798,-7.5655,-7.5102,-7.4897,-7.4897,-7.4897,-7.4897,-3.8845,-3.8933,-3.9502,-4.0584,-4.1244,0.0,-5.7602,-6.0998,-6.4769,0.0,-7.8647,0.0,0.0,0.0,0.0,0.0,0.0,0.0,0.0,0.0,0.0,0.0,0.0,0.0,0.0,0.0,-7.1344,-7.1825,-7.1947,-7.185,-7.1435,-7.1533,-7.1435,-7.1048,-7.1018,-7.1018,-7.0919,-7.0919,-7.0889,-7.0889,-7.0889,-7.0889,-7.0889,-7.0889,-7.0889,-7.0889,-7.0889,-7.0889,-7.0889,-7.0889,-7.0889,-7.0889,-7.0889,-7.0889,-7.0889,-7.0889,-7.0889,-7.1018,-7.1886,-7.2296,-7.2391,-7.2391,-7.3139,-7.3905,-7.3015,-7.3964,-7.5423,-7.5423,-7.5919,-7.6296,-7.5951,-7.5919,-7.5803,-7.5803,-7.5803,-7.5803,-7.5803,-7.5603,-7.5401,-7.5016,-7.4897,-7.4897,-7.4897,-7.5571,-7.6117,-7.6231,-7.7023,-7.7905,-7.8763,-7.8974,-7.9321,-8.0107,-8.0209,-8.0209,-8.0209,-8.0209,-8.041,-8.0906,-8.051,-8.051,-8.1005,-8.051,-7.9972,-7.9184,-7.8122,-7.6798,-7.4984,-7.4897,-7.4897,-7.4897,-7.4897,-7.4897,-4.0425,-3.8933,-3.9281,-3.952,-4.04,0.0,-4.5083,-4.5963,-4.8126,-5.492,-5.5418,-5.5693,0.0,0.0,0.0,0.0,0.0,0.0,0.0,0.0,0.0,0.0,0.0,0.0,0.0,0.0,-7.1752,-7.1472,-7.18,-7.2007,-7.185,-7.2326,-7.2326,-7.185,-7.1916,-7.1916,-7.1307,-7.1018,-7.0889,-7.0889,-7.0889,-7.0889,-7.0889,-7.0889,-7.0889,-7.0889,-7.0889,-7.0889,-7.0889,-7.0889,-7.0889,-7.0889,-7.0889,-7.0889,-7.0889,-7.0889,-7.0889,-7.0889,-7.1148,-7.1789,-7.2391,-7.2391,-7.3599,-7.4952,-7.4802,-7.5539,-7.6556,-7.6556,-7.6556,-7.667,-7.667,-7.641,-7.6149,-7.6149,-7.6034,-7.5803,-7.5803,-7.5803,-7.5719,-7.5571,-7.522,-7.5016,-7.5283,-7.5252,-7.5454,-7.6085,-7.7023,-7.7905,-7.8763,-7.9528,-7.9972,-8.0209,-8.0209,-8.0209,-8.0209,-8.0209,-8.0209,-8.041,-8.0709,-8.0906,-8.1005,-8.0906,-8.0774,-8.0576,-7.8657,-7.7023,-7.6002,-7.522,-7.4897,-7.4897,-7.4897,-7.4897,-4.2288,-4.0308,-4.0455,-4.0455,-4.0036,0.0,0.0,-4.43,-4.571,-5.1848,-5.2677,-5.3141,-5.5522,0.0,0.0,0.0,0.0,0.0,0.0,0.0,0.0,0.0,0.0,0.0,0.0,0.0,-7.3031,-7.3133,-7.2984,-7.2828,-7.2703,-7.2703,-7.2452,-7.2007,-7.2104,-7.2073,-7.1722,-7.1564,-7.1435,-7.1435,-7.1435,-7.1307,-7.1178,-7.1307,-7.1307,-7.0919,-7.1307,-7.1307,-7.1178,-7.1307,-7.1435,-7.1435,-7.1048,-7.0889,-7.0889,-7.0889,-7.0889,-7.1018,-7.1533,-7.2043,-7.2517,-7.3046,-7.4116,-7.5306,-7.5306,-7.6034,-7.6783,-7.6783,-7.6783,-7.6783,-7.6783,-7.667,-7.6524,-7.6524,-7.641,-7.6296,-7.6296,-7.6181,-7.6066,-7.6296,-7.5835,-7.5369,-7.5603,-7.6034,-7.654,-7.699,-7.8122,-7.9008,-7.9528,-7.9972,-8.0209,-8.0209,-8.0209,-8.0309,-8.061,-8.061,-8.0675,-8.0936,-8.097,-8.1068,-8.1359,-8.0872,-8.0175,-7.9288,-7.8122,-7.7134,-7.6199,-7.5771,-7.5539,-7.5571,-7.5102,-7.4897,-4.302,-4.0779,-4.1088,-4.1088,-3.9946,-4.0217,0.0,0.0,0.0,0.0,0.0,-5.1385,-5.1476,0.0,0.0,0.0,0.0,0.0,0.0,0.0,0.0,0.0,0.0,0.0,0.0,0.0,-7.3252,-7.4934,-7.3315,-7.2755,-7.3596,-7.317,-7.2828,-7.2357,-7.2357,-7.2231,-7.2104,-7.1977,-7.2007,-7.2007,-7.2007,-7.185,-7.1564,-7.185,-7.1722,-7.1277,-7.1947,-7.1947,-7.1661,-7.2104,-7.2043,-7.1668,-7.1126,-7.0839,-7.0839,-7.059,-7.053,-7.0659,-7.18,-7.2333,-7.2737,-7.3842,-7.4834,-7.5539,-7.5539,-7.6181,-7.6783,-7.6783,-7.6783,-7.6783,-7.6783,-7.6783,-7.6783,-7.6783,-7.6783,-7.6783,-7.6783,-7.6556,-7.6524,-7.6783,-7.641,-7.6149,-7.5919,-7.6911,-7.7796,-7.8014,-7.9113,-7.9972,-8.0209,-8.0209,-8.0209,-8.0309,-8.041,-8.051,-8.1005,-8.1005,-8.1166,-8.1517,-8.1262,-8.1359,-8.1767,-8.1034,-7.9734,-7.7938,-7.7905,-7.7544,-7.6766,-7.654,-7.6346,-7.6199,-7.5337,-7.4897,-4.0547,-3.7403,-3.8964,-3.8964,-4.0157,-4.1043,-4.0082,0.0,-3.5419,-3.4573,0.0,0.0,-3.2178,0.0,0.0,0.0,0.0,0.0,0.0,0.0,0.0,0.0,0.0,0.0,0.0,0.0,0.0,-7.52,-7.0092,-6.9029,-7.4426,-7.4659,-7.4268,-7.3661,-7.3416,-7.2922,-7.2483,-7.2104,-7.2007,-7.2007,-7.2007,-7.2007,-7.1977,-7.2007,-7.2231,-7.2672,-7.2797,-7.2797,-7.2672,-7.2797,-7.2085,-7.094,-7.0718,-7.0591,-7.0404,-6.955,-6.9213,-6.943,-7.0948,-7.2121,-7.3062,-7.4613,-7.5803,-7.667,-7.667,-7.667,-7.6783,-7.6783,-7.6783,-7.6783,-7.6783,-7.6783,-7.6783,-7.6783,-7.6783,-7.6783,-7.6783,-7.6783,-7.6783,-7.6783,-7.7088,-7.7167,-7.6378,-7.6605,-7.7134,-7.7905,-7.8551,-7.9321,-8.0074,-8.0209,-8.041,-8.0906,-8.0906,-8.0906,-8.1005,-8.1005,-8.1005,-8.1102,-8.1421,-8.1896,-8.2396,-8.2303,-8.1097,-7.8763,-7.9117,-7.9117,-7.8551,-7.7796,-7.7023,-7.6199,-7.5337,-7.4897,-4.1239,-4.2326,-4.4783,-3.8585,-4.0934,0.0,-3.5923,0.0,-3.0332,0.0,0.0,0.0,0.0,0.0,0.0,0.0,0.0,0.0,0.0,0.0,-5.5872,0.0,0.0,0.0,0.0,0.0,0.0,0.0,0.0,-7.0973,-7.6135,-7.5739,-7.5274,-7.4921,-7.4476,-7.4147,-7.3936,-7.3324,-7.3077,-7.3077,-7.2734,-7.2483,-7.2357,-7.2085,-7.1871,-7.1716,-7.2244,-7.2491,-7.2583,-7.2491,-7.2428,-7.2421,-7.0557,-7.0034,-7.0088,-6.9692,-6.9476,-6.9756,-7.1319,-7.2501,-7.3415,-7.5464,-7.6442,-7.6783,-7.6783,-7.6783,-7.6783,-7.6783,-7.6783,-7.6783,-7.6783,-7.6783,-7.6783,-7.6783,-7.6783,-7.6783,-7.6783,-7.6783,-7.6896,-7.7199,-7.7389,-7.761,-7.761,-7.7905,-7.8337,-7.8657,-7.9321,-7.987,-8.061,-8.0709,-8.0709,-8.1005,-8.1262,-8.1421,-8.1421,-8.1741,-8.1741,-8.1421,-8.1359,-8.1517,-8.199,-8.1543,-8.0638,-7.9324,-7.9531,-7.9324,-7.8869,-7.8014,-7.7389,-7.7023,-7.6117,-7.5337,-4.468,0.0,0.0,0.0,0.0,0.0,0.0,0.0,0.0,0.0,0.0,0.0,0.0,0.0,0.0,0.0,0.0,0.0,0.0,-4.2289,0.0,0.0,0.0,0.0,0.0,0.0,0.0,0.0,0.0,0.0,-7.7742,-7.7115,-7.6443,-7.6135,-7.5507,-7.5102,-7.5102,-7.4508,-7.4147,-7.4147,-7.357,-7.3077,-7.2922,-7.246,-7.209,-7.1688,-7.2274,-7.2759,-7.3005,-7.2662,-7.2864,-7.3327,-7.0813,-6.9819,-6.9854,-6.9641,-6.9641,-6.9884,-7.162,-7.3064,-7.4236,-7.6184,-7.6783,-7.6783,-7.6783,-7.6783,-7.6783,-7.6783,-7.6783,-7.6783,-7.6783,-7.6896,-7.7008,-7.7008,-7.712,-7.7167,-7.686,-7.6958,-7.7278,-7.738,-7.7697,-7.8263,-7.8691,-7.9008,-7.9321,-7.9321,-7.9972,-8.051,-8.0709,-8.0906,-8.1102,-8.1166,-8.1517,-8.1767,-8.1896,-8.2269,-8.2269,-8.1767,-8.144,-8.1405,-8.1672,-8.1352,-8.0834,-7.9972,-8.014,-7.9837,-7.9217,-7.8337,-7.7796,-7.761,-7.6346,-7.5539,0.0,0.0,0.0,-3.6148,0.0,0.0,0.0,0.0,-3.1301,0.0,0.0,0.0,0.0,0.0,0.0,0.0,0.0,0.0,0.0,0.0,0.0,0.0,0.0,0.0,0.0,0.0,0.0,0.0,0.0,0.0,-7.9022,-7.8879,-7.8139,-7.7479,-7.6249,-7.5707,-7.5707,-7.507,-7.4897,-7.4897,-7.4147,-7.3905,-7.3783,-7.32,-7.3293,-7.3842,-7.3785,-7.4116,-7.4739,-7.3989,-7.3302,-7.2633,-7.133,-7.0326,-6.9765,-6.9185,-6.8951,-6.9278,-7.1434,-7.3708,-7.5732,-7.6556,-7.6783,-7.6783,-7.6783,-7.6783,-7.6783,-7.6783,-7.6783,-7.6783,-7.6783,-7.7199,-7.761,-7.761,-7.8046,-7.8064,-7.6866,-7.7585,-7.8064,-7.6866,-7.8014,-7.9217,-7.9217,-7.9321,-7.9321,-7.9321,-8.0276,-8.0808,-8.0309,-8.0709,-8.1166,-8.1612,-8.1672,-8.1896,-8.2396,-8.2488,-8.2269,-8.1767,-8.1972,-8.1993,-8.1732,-8.2635,-8.2453,-8.1005,-8.1421,-8.1131,-8.0209,-7.9321,-7.8444,-7.761,-7.5803,-7.4897,0.0,0.0,-6.3192,-4.5848,0.0,0.0,0.0,0.0,0.0,0.0,0.0,0.0,0.0,0.0,0.0,0.0,0.0,0.0,0.0,0.0,0.0,0.0,0.0,0.0,0.0,0.0,0.0,0.0,0.0,0.0,0.0,-8.1302,-8.0433,-7.9463,-7.8736,-7.8023,-7.7544,-7.6573,-7.6117,-7.6117,-7.5102,-7.4508,-7.4508,-7.3437,-7.325,-7.3816,-7.3,-7.302,-7.3443,-7.2737,-7.2527,-7.262,-7.1244,-7.0803,-7.0917,-6.9901,-6.9472,-6.9797,-7.1854,-7.361,-7.5099,-7.5844,-7.6394,-7.6783,-7.6783,-7.6783,-7.6896,-7.7199,-7.7311,-7.7422,-7.7829,-7.7717,-7.7462,-7.7462,-7.7206,-7.7014,-7.7172,-7.751,-7.7848,-7.8292,-7.8841,-7.9425,-7.987,-7.987,-7.987,-7.987,-8.0476,-8.1068,-8.1131,-8.1612,-8.2024,-8.2176,-8.2544,-8.2635,-8.2488,-8.2,-8.2022,-8.26,-8.1666,-8.1596,-8.26,-8.2761,-8.2488,-8.2024,-8.1802,-8.1421,-8.0709,-7.8869,-7.7905,-7.761,-7.6346,-7.5454,-7.0013,-7.3006,0.0,-5.5645,-5.6374,0.0,-3.9513,0.0,-3.5652,0.0,0.0,0.0,0.0,0.0,0.0,0.0,0.0,0.0,0.0,-3.0713,0.0,0.0,0.0,0.0,0.0,0.0,0.0,0.0,0.0,0.0,0.0,0.0,-8.2391,-8.1345,-8.0668,-7.9905,-7.915,-7.8056,-7.7303,-7.6997,-7.5791,-7.521,-7.5072,-7.406,-7.3722,-7.3854,-7.2776,-7.2763,-7.3474,-7.2506,-7.2648,-7.321,-7.1919,-7.1584,-7.1766,-7.0806,-7.0582,-7.1013,-7.2554,-7.3702,-7.471,-7.5488,-7.62,-7.6783,-7.7008,-7.7088,-7.7199,-7.7719,-7.7938,-7.8046,-7.837,-7.8053,-7.7699,-7.7699,-7.747,-7.724,-7.6967,-7.767,-7.8411,-7.8551,-7.909,-7.9768,-8.0074,-8.041,-8.051,-8.051,-8.0872,-8.1325,-8.1672,-8.2176,-8.2488,-8.2488,-8.2761,-8.2941,-8.2761,-8.2062,-8.1958,-8.2871,-8.1757,-8.1687,-8.2906,-8.2851,-8.267,-8.2488,-8.199,-8.1517,-8.1005,-7.8974,-7.7905,-7.761,-7.6686,-7.5887]},{"header":{"parameterUnit":"m.s-1","parameterCategory":1,"la1":30.6,"la2":29.2853,"lo1":-89.7004,"lo2":-87.6739,"dx":0.0162,"dy":0.0183,"nx":112,"ny":82,"refTime":"2022-11-23T18:00:00:Z","depth":0,"parameterNumber":3,"parameterNumberName":"V-component_of_WINDS"},"data":[0.0,0.0,0.0,0.0,0.0,0.0,0.0,0.0,0.0,0.0,0.0,0.0,0.0,0.0,0.0,0.0,0.0,0.0,0.0,0.0,0.0,0.0,0.0,0.0,0.0,0.0,0.0,0.0,0.0,0.0,0.0,0.0,0.0,0.0,0.0,0.0,0.0,0.0,0.0,0.0,0.0,0.0,0.0,0.0,0.0,0.0,0.0,0.0,0.0,0.0,0.0,0.0,0.0,0.0,0.0,0.0,0.0,0.0,0.0,0.0,0.0,0.0,0.0,0.0,0.0,0.0,0.0,0.0,0.0,0.0,0.0,0.0,0.0,0.0,0.0,0.0,0.0,0.0,0.0,0.0,0.0,0.0,0.0,0.0,0.0,0.0,0.0,0.0,0.0,0.0,-0.2844,0.1207,2.5186,4.0874,4.0449,4.0173,2.7176,-0.2877,0.0,0.0,0.0,0.0,0.0,0.0,0.0,0.0,0.0,0.0,0.0,0.0,0.0,0.0,0.0,0.0,0.0,0.0,0.0,0.0,0.0,0.0,0.0,0.0,0.0,0.0,0.0,0.0,0.0,0.0,0.0,0.0,0.0,0.0,0.0,0.0,0.0,0.0,0.0,0.0,0.0,0.0,0.0,0.0,0.0,0.0,0.0,0.0,0.0,0.0,0.0,0.0,0.0,0.0,0.0,0.0,0.0,0.0,0.0,0.0,0.0,0.0,0.0,0.0,0.0,0.0,0.0,0.0,0.0,0.0,0.0,0.0,0.0,0.0,0.0,0.0,0.0,0.0,0.0,0.0,0.0,0.0,0.0,0.0,0.0,0.0,0.0,0.0,0.0,0.0,0.0,0.0,0.0,0.0,0.0,0.0,0.0,0.0,0.0,0.0,0.0,0.0,0.0,0.0,0.6422,3.1891,4.0157,4.3458,4.2362,4.1511,2.8127,-0.2227,0.0,0.0,0.0,0.0,0.0,0.0,0.0,0.0,0.0,0.0,0.0,0.0,0.0,0.0,0.0,0.0,0.0,0.0,0.0,0.0,0.0,0.0,0.0,0.0,0.0,0.0,0.0,0.0,0.0,0.0,0.0,0.0,0.0,0.0,0.0,0.0,0.0,0.0,0.0,0.0,0.0,0.0,0.0,0.0,0.0,0.0,0.0,0.0,0.0,0.0,0.0,0.0,0.0,0.0,0.0,0.0,0.0,0.0,0.0,0.0,0.0,0.0,0.0,0.0,0.0,0.0,0.0,0.0,0.0,0.0,0.0,0.0,0.0,0.0,0.0,0.0,0.0,0.0,0.0,0.0,0.0,0.0,0.0,0.0,0.0,0.0,0.0,0.0,0.0,0.0,0.0,0.0,0.0,0.0,0.0,0.0,0.0,0.0,0.0,0.0,0.0,0.0,0.0,-0.8686,0.7301,3.8912,4.3636,4.4041,4.2486,4.2107,2.8199,-0.447,-0.3574,0.0,0.0,0.0,0.0,0.0,0.0,0.0,0.0,0.0,0.0,0.0,0.0,0.0,0.0,0.0,0.0,0.0,0.0,0.0,0.0,0.0,0.0,0.0,0.0,0.0,0.0,0.0,0.0,0.0,0.0,0.0,0.0,0.0,0.0,0.0,0.0,0.0,0.0,0.0,0.0,0.0,0.0,0.0,0.0,0.0,0.0,0.0,0.0,0.0,0.0,0.0,0.0,0.0,0.0,0.0,0.0,0.0,0.0,0.0,0.0,0.0,0.0,0.0,0.0,0.0,0.0,0.0,0.0,0.0,0.0,0.0,0.0,0.0,0.0,0.0,0.0,0.0,0.0,0.0,0.0,0.0,0.0,0.0,0.0,0.0,0.0,0.0,0.0,0.0,0.0,0.0,0.0,0.0,0.0,0.0,0.0,0.0,0.0,0.0,0.0,0.0,0.0,0.0241,1.4731,4.0055,4.4077,4.4337,4.3013,4.3032,2.8606,-0.5502,-0.4586,0.0,0.0,0.0,0.0,0.0,0.0,0.0,0.0,0.0,0.0,0.0,0.0,0.0,0.0,0.0,0.0,0.0,0.0,0.0,0.0,0.0,0.0,0.0,0.0,0.0,0.0,0.0,0.0,0.0,0.0,0.0,0.0,0.0,0.0,0.0,0.0,0.0,0.0,0.0,0.0,0.0,0.0,0.0,0.0,0.0,0.0,0.0,0.0,0.0,0.0,0.0,0.0,0.0,0.0,0.0,0.0,0.0,0.0,0.0,0.0,0.0,0.0,0.0,0.0,0.0,0.0,0.0,0.0,0.0,0.0,0.0,0.0,0.0,0.0,0.0,0.0,0.0,0.0,0.0,0.0,0.0,0.0,0.0,0.0,0.0,0.0,0.0,0.0,0.0,0.0,0.0,0.0,0.0,0.0,0.0,0.0,0.0,0.0,0.0,0.0,0.0,0.0,1.9911,3.9322,4.2859,4.4781,4.5776,4.5581,4.4713,3.0157,-0.2885,-0.4448,0.0,0.0,0.0,0.0,0.0,0.0,0.0,0.0,0.0,0.0,0.0,0.0,0.0,0.0,0.0,0.0,0.0,0.0,0.0,0.0,0.0,0.0,0.0,0.0,0.0,0.0,0.0,0.0,0.0,0.0,0.0,0.0,0.0,0.0,0.0,0.0,0.0,0.0,0.0,0.0,0.0,0.0,0.0,0.0,0.0,0.0,0.0,0.0,0.0,0.0,0.0,0.0,0.0,0.0,0.0,0.0,0.0,0.0,0.0,0.0,0.0,0.0,0.0,0.0,0.0,0.0,0.0,0.0,0.0,0.0,0.0,0.0,0.0,0.0,0.0,0.0,0.0,0.0,0.0,0.0,0.0,0.0,0.0,0.0,0.0,0.0,0.0,0.0,0.0,0.0,0.0,0.0,0.0,0.0,0.0,0.0,0.0,0.0,0.0,0.0,0.0,0.0,1.4106,3.2726,0.0,4.5747,4.6583,4.5432,4.5385,3.0356,-0.4641,0.0,0.0,0.0,0.0,0.0,0.0,0.0,0.0,0.0,0.0,0.0,0.0,0.0,0.0,0.0,0.0,0.0,0.0,0.0,0.0,0.0,0.0,0.0,0.0,0.0,0.0,0.0,0.0,0.0,0.0,0.0,0.0,0.0,0.0,0.0,0.0,0.0,0.0,0.0,0.0,0.0,0.0,0.0,0.0,0.0,0.0,0.0,0.0,0.0,0.0,0.0,0.0,0.0,0.0,0.0,0.0,0.0,0.0,0.0,0.0,0.0,0.0,0.0,0.0,0.0,0.0,0.0,0.0,0.0,0.0,0.0,0.0,0.0,0.0,0.0,0.0,0.0,0.0,0.0,0.0,0.0,0.0,0.0,0.0,0.0,0.0,0.0,0.0,0.0,0.0,0.0,0.0,0.0,0.0,0.0,0.0,0.0,0.0,0.0,0.0,0.0,0.0,-0.7817,1.3518,3.2184,0.0,4.6162,4.6789,4.5974,4.6192,3.0937,-0.5211,0.0,0.0,0.0,0.0,0.0,0.0,0.0,0.0,0.0,0.0,0.0,0.0,0.0,0.0,0.0,0.0,0.0,0.0,0.0,0.0,0.0,0.0,0.0,0.0,0.0,0.0,0.0,0.0,0.0,0.0,0.0,0.0,0.0,0.0,0.0,0.0,0.0,0.0,0.0,0.0,0.0,0.0,0.0,0.0,0.0,0.0,0.0,0.0,0.0,0.0,0.0,0.0,0.0,0.0,0.0,0.0,0.0,0.0,0.0,0.0,0.0,0.0,0.0,0.0,0.0,0.0,0.0,0.0,0.0,0.0,0.0,0.0,0.0,0.0,0.0,0.0,0.0,0.0,0.0,0.0,0.0,0.0,0.0,0.0,0.0,0.0,0.0,0.0,0.0,0.0,0.0,0.0,0.0,0.0,0.0,0.0,0.0,0.0,0.0,0.0,0.0,0.0,-0.536,2.2308,4.3075,4.5526,4.582,4.6248,4.7364,4.7521,3.2171,0.0,0.0,0.0,0.0,0.0,0.0,0.0,0.0,0.0,0.0,0.0,0.0,0.0,0.0,0.0,0.0,0.0,0.0,0.0,0.0,0.0,0.0,0.0,0.0,0.0,0.0,0.0,0.0,0.0,0.0,0.0,0.0,0.0,0.0,0.0,0.0,0.0,0.0,0.0,0.0,0.0,0.0,0.0,0.0,0.0,0.0,0.0,0.0,0.0,0.0,0.0,0.0,0.0,0.0,0.0,0.0,0.0,0.0,0.0,0.0,0.0,0.0,0.0,0.0,0.0,0.0,0.0,0.0,0.0,0.0,0.0,0.0,0.0,0.0,0.0,0.0,0.0,0.0,0.0,0.0,0.0,0.0,0.0,0.0,0.0,0.0,0.0,0.0,0.0,0.0,0.0,0.0,0.0,0.0,0.0,0.0,0.0,0.0,0.0,0.0,0.0,0.0,0.0,-0.6708,2.3287,4.5277,4.6171,4.7365,4.8021,4.7569,4.7834,3.2019,-0.5628,0.0,0.0,0.0,0.0,0.0,0.0,0.0,0.0,0.0,0.0,0.0,0.0,0.0,0.0,0.0,0.0,0.0,0.0,0.0,0.0,0.0,0.0,0.0,0.0,0.0,0.0,0.0,0.0,0.0,0.0,0.0,0.0,0.0,0.0,0.0,0.0,0.0,0.0,0.0,0.0,0.0,0.0,0.0,0.0,0.0,0.0,0.0,0.0,0.0,0.0,0.0,0.0,0.0,0.0,0.0,0.0,0.0,0.0,0.0,0.0,0.0,0.0,0.0,0.0,0.0,0.0,0.0,0.0,0.0,0.0,0.0,0.0,0.0,0.0,0.0,0.0,0.0,0.0,0.0,0.0,0.0,0.0,0.0,0.0,0.0,0.0,0.0,0.0,0.0,0.0,0.0,0.0,0.0,0.0,0.0,0.0,0.0,0.0,0.0,0.0,0.0,0.0,-0.6661,2.4538,4.7073,4.744,4.8707,4.9228,4.8573,4.8546,3.5697,0.5283,0.0,0.0,0.0,0.0,0.0,0.0,0.0,0.0,0.0,0.0,0.0,0.0,0.0,0.0,0.0,0.0,0.0,0.0,0.0,0.0,0.0,0.0,0.0,0.0,0.0,0.0,0.0,0.0,0.0,0.0,0.0,0.0,0.0,0.0,0.0,0.0,0.0,0.0,0.0,0.0,0.0,0.0,0.0,0.0,0.0,0.0,0.0,0.0,0.0,0.0,0.0,0.0,0.0,0.0,0.0,0.0,0.0,0.0,0.0,0.0,0.0,0.0,0.0,0.0,0.0,0.0,0.0,0.0,0.0,0.0,0.0,0.0,0.0,0.0,0.0,0.0,0.0,0.0,0.0,0.0,0.0,0.0,0.0,0.0,0.0,0.0,0.0,0.0,0.0,0.0,0.0,0.0,0.0,0.0,0.0,0.0,0.0,0.0,0.0,0.0,0.0,0.0,-0.5886,2.5665,4.8586,4.9301,4.9986,5.0346,5.0247,4.9567,4.1358,2.2841,0.0,0.0,0.0,0.0,0.0,0.0,0.0,0.0,0.0,0.0,0.0,0.0,0.0,0.0,0.0,0.0,0.0,0.0,0.0,0.0,0.0,0.0,0.0,0.0,0.0,0.0,0.0,0.0,0.0,0.0,0.0,0.0,0.0,0.0,0.0,0.0,0.0,0.0,0.0,0.0,0.0,0.0,0.0,0.0,0.0,0.0,0.0,0.0,0.0,0.0,0.0,0.0,0.0,0.0,0.0,0.0,0.0,0.0,0.0,0.0,-1.5166,0.0,0.0,0.0,0.0,0.0,0.0,0.0,0.0,0.0,0.0,0.0,0.0,0.0,0.0,0.0,0.0,0.0,0.0,0.0,0.0,0.0,0.0,0.0,0.0,0.0,0.0,0.0,0.0,0.0,0.0,0.0,0.0,0.0,0.0,0.0,0.0,0.0,0.0,0.0,0.0,0.0,-0.6137,2.6478,5.0342,5.1785,5.2066,5.1722,5.0862,5.0101,4.1336,2.1584,1.5856,0.0,0.0,0.0,0.0,0.0,0.0,0.0,0.0,0.0,0.0,0.0,0.0,0.0,0.0,0.0,0.0,0.0,0.0,0.0,0.0,0.0,0.0,0.0,0.0,0.0,0.0,0.0,0.0,0.0,0.0,0.0,0.0,0.0,0.0,0.0,0.0,0.0,0.0,0.0,0.0,0.0,0.0,0.0,0.0,0.0,0.0,0.0,0.0,0.0,0.0,0.0,0.0,0.0,0.0,0.0,0.0,0.0,0.0,0.0,0.0,-1.348,0.0,0.0,0.0,0.0,0.0,0.0,0.0,0.0,0.0,0.0,0.0,0.0,0.0,0.0,0.0,0.0,0.0,0.0,0.0,0.0,0.0,0.0,0.0,0.0,0.0,0.0,0.0,0.0,0.0,0.0,0.0,0.0,0.0,0.0,0.0,0.0,0.0,0.0,0.0,0.0,-0.6362,2.7664,5.1994,5.2607,5.3254,5.3222,5.2377,5.1547,4.6553,3.6074,2.5423,0.0,0.0,0.0,0.0,0.0,0.0,0.0,0.0,0.0,0.0,0.0,0.0,0.0,0.0,0.0,0.0,0.0,0.0,0.0,0.0,0.0,0.0,0.0,0.0,0.0,0.0,0.0,0.0,0.0,0.0,0.0,0.0,0.0,0.0,0.0,0.0,0.0,0.0,0.0,0.0,0.0,0.0,0.0,0.0,0.0,0.0,0.0,0.0,0.0,0.0,0.0,0.0,0.0,0.1071,0.2039,0.1666,0.2688,1.0168,2.1603,0.9274,0.8276,1.3336,0.0,0.0,0.0,0.0,0.0,0.0,0.0,0.0,0.0,0.0,0.0,0.0,0.0,0.0,0.0,0.0,0.0,0.0,0.0,0.0,0.0,0.0,0.0,0.0,0.0,1.2458,1.7876,0.0,0.0,0.0,0.0,0.0,0.0,0.0,0.0,0.0,0.0,0.0,0.0,-0.146,3.0924,5.3222,5.2921,5.3903,5.426,5.3884,5.2882,5.2236,5.2187,3.5462,2.4337,0.0,0.0,0.0,0.0,0.0,0.0,0.0,0.0,0.0,0.0,0.0,0.0,0.0,0.0,0.0,0.0,0.0,0.0,0.0,0.0,0.0,0.0,0.0,0.0,0.0,0.0,0.0,0.0,0.0,0.0,0.0,0.0,-0.4908,-0.525,0.0,0.0,0.0,0.0,0.0,0.0,0.0,0.0,0.0,0.0,0.0,0.0,0.0,-0.6761,-0.3616,0.8985,1.6075,1.789,3.1414,3.7916,3.7895,3.8812,4.0252,4.1677,4.0456,0.0,1.641,1.3001,0.0,0.0,0.0,0.0,0.0,0.0,0.0,0.0,0.0,0.0,0.0,0.0,0.0,0.0,0.0,0.0,0.0,0.0,0.0,0.0,0.0,0.0,3.5647,3.7345,3.967,4.1069,0.0,1.7002,-0.3651,-0.4624,0.0,0.0,0.0,0.0,0.0,0.0,0.0,0.0,1.8306,3.9832,5.3681,5.4319,5.4059,5.3984,5.4411,5.3353,5.2449,5.2163,4.8983,3.9321,2.2128,1.9197,0.0,0.0,0.0,0.0,0.0,0.0,0.0,0.0,0.0,0.0,0.0,0.0,0.0,0.0,0.0,0.0,0.0,0.0,0.0,0.0,0.0,0.0,0.0,0.0,0.0,0.0,0.0,0.0,0.0,-1.8919,-1.6974,-1.9424,-2.3911,-3.0632,0.0,0.0,0.0,0.0,0.0,0.0,0.0,0.0,0.0,0.8896,0.9301,1.3693,2.2951,2.9923,3.3895,3.5171,4.266,4.6154,4.6343,4.7359,4.7572,4.7123,4.7856,4.287,3.3601,2.3264,1.0032,-0.4699,0.0,0.0,0.0,0.0,0.0,-1.5638,0.2334,0.8416,0.0,0.0,0.0,0.0,0.0,0.0,0.0,0.0,0.0,0.0,0.0,0.0,0.0,4.4581,4.7254,4.7676,4.9081,3.7883,2.4612,0.0,0.1275,-1.3806,-3.2535,0.0,0.0,0.0,0.0,1.3587,2.2998,4.1968,5.4719,5.467,5.5114,5.5391,5.5339,5.4645,5.3911,5.3327,5.2209,4.7502,3.8252,2.7395,1.4035,0.0,0.0,0.0,0.0,0.0,0.0,0.0,0.0,0.0,0.0,0.0,0.0,0.0,0.0,0.0,0.0,0.0,0.0,0.0,0.0,0.0,0.0,0.0,0.0,0.0,0.0,0.0,0.0,-2.1074,-1.9764,-2.7308,-2.2688,-2.5107,0.0,0.0,0.0,0.0,0.0,0.0,0.1289,0.2579,1.0285,2.5846,2.721,3.365,4.606,4.6634,4.7437,4.8436,4.9218,4.9583,4.9537,5.0479,5.0603,5.0132,5.0677,5.0629,4.8892,3.3384,2.4424,1.9177,0.5657,-0.2196,-0.5255,-0.0388,0.1176,0.3175,2.0808,2.6444,2.5068,2.1396,0.0,1.201,0.4956,0.0,0.0,0.0,0.0,0.674,2.5761,0.0,3.2403,4.6947,5.0317,5.0768,5.2396,4.8301,4.1532,0.0,1.6255,-0.1172,-1.9236,0.0,0.0,0.0,0.0,2.6132,3.1584,4.5943,5.5503,5.4937,5.5657,5.6196,5.5935,5.5727,5.5331,5.4464,5.3229,5.2206,5.1278,3.7123,2.7176,2.2684,0.0,0.0,0.0,0.0,0.0,0.0,0.0,0.0,0.0,0.0,0.0,0.0,0.0,0.0,0.0,0.0,0.0,0.0,0.0,0.0,0.0,0.0,0.0,0.0,0.0,0.0,0.0,0.0,0.0,-1.2952,0.1235,0.0,0.0,0.0,0.0,-0.6956,-0.5602,0.2044,1.7439,1.8951,2.7266,4.4516,4.6378,4.8711,5.2197,5.2772,5.3894,5.5708,5.5761,5.5469,5.4781,5.5418,5.5365,5.4834,5.5444,5.5709,5.5182,4.9101,3.6074,1.9804,1.889,0.8143,-0.4711,1.3327,2.0086,2.2714,4.173,4.8327,4.544,2.8586,1.118,-0.0399,1.4828,0.7439,0.0,0.0,2.0613,2.494,4.4206,4.9766,5.0543,5.203,5.3468,5.4567,5.5241,3.9059,2.977,0.0,5.0186,4.3075,2.337,0.0,2.1565,2.2531,2.3923,3.2363,5.2705,5.5621,5.5726,5.5125,5.5072,5.5308,5.5857,5.5935,5.5761,5.5446,5.4533,5.3716,5.3081,5.2014,4.2501,2.3728,2.4431,0.0,0.0,0.0,0.0,0.0,0.0,0.0,0.0,0.0,0.0,0.0,0.0,0.0,0.0,0.0,0.0,0.0,0.0,0.0,0.0,0.0,0.0,0.0,0.0,0.0,0.0,0.0,0.0,-0.7796,0.486,0.0,-0.6667,0.3069,1.0464,1.0981,2.2314,3.2294,3.9346,4.136,4.53,5.1816,5.3036,5.4024,5.4964,5.5548,5.6185,5.677,5.7144,5.7197,5.701,5.7224,5.7197,5.701,5.7224,5.7331,5.7144,5.519,4.9596,4.2371,4.1856,3.7738,3.291,3.9689,4.2245,4.3188,4.9835,5.2048,5.1211,4.539,3.9275,3.5566,4.2406,3.9917,3.6465,4.4023,4.5553,4.6566,5.4429,5.5956,5.5637,5.5842,5.6003,5.6072,5.628,5.0234,4.6934,5.4082,4.3534,3.1547,2.5321,3.5984,4.0678,2.674,3.6942,4.8754,5.6013,5.7003,5.7059,5.6821,5.6877,5.7009,5.725,5.6902,5.6372,5.5683,5.5339,5.5,5.4508,5.4122,5.101,4.4865,4.5161,2.7976,0.0,0.0,0.0,0.0,0.0,0.0,0.0,0.0,0.0,0.0,0.0,0.0,0.0,0.0,0.0,0.0,0.0,0.0,0.0,0.0,0.0,0.0,0.0,0.0,0.0,0.0238,0.9588,-0.5249,1.1431,1.8431,0.3735,1.8059,2.8931,3.0223,4.2311,5.0287,5.1589,5.3609,5.5022,5.5709,5.6819,5.7667,5.8146,5.8744,5.9043,5.9043,5.9233,5.9233,5.9043,5.9043,5.9043,5.9043,5.9043,5.9043,5.9043,5.9043,5.813,5.6849,5.5415,5.4935,5.4961,5.5008,5.5351,5.5397,5.5468,5.5272,5.5297,5.5805,5.6245,5.6737,5.7207,5.7477,5.7852,5.8778,5.8183,5.759,5.8726,5.8322,5.7762,5.7762,5.761,5.7592,5.7592,5.7592,5.7645,5.7857,4.5152,3.4818,3.5892,4.8258,4.9988,2.6628,4.3306,5.5273,4.6025,5.2894,5.8563,5.8563,5.8376,5.8481,5.8964,4.9999,4.7967,5.6551,4.814,4.6887,5.5634,4.695,4.2428,4.3718,4.38,3.0942,0.4677,0.0,0.0,0.0,0.0,0.0,0.0,0.0,0.0,0.0,0.0,0.0,0.0,0.0,0.0,0.0,0.0,0.0,0.0,0.0,0.0,0.0,0.0,0.0,-0.3625,0.8477,1.2952,-0.3098,2.3064,3.6933,2.2652,3.7322,4.8353,4.9925,5.1765,5.3114,5.3421,5.4707,5.5934,5.6942,5.8762,6.0484,6.2071,6.2661,6.2942,6.2914,6.2324,6.1734,6.1172,6.1172,6.1172,6.1172,6.1172,6.1172,6.1172,6.1172,6.1144,6.0802,5.8154,5.7117,5.7197,5.7758,5.8319,5.8906,5.9494,5.9402,5.899,5.8461,5.842,5.8402,5.7302,5.7354,5.78,5.7773,5.7354,5.7066,5.7616,5.7906,5.8052,5.8052,5.8483,5.9073,5.9073,5.9073,5.9236,5.9806,5.8316,5.7099,5.7916,5.8052,4.9878,2.6137,4.3822,0.0,2.5797,4.4428,5.9616,5.8806,5.8047,5.8122,5.9395,3.4681,3.0711,5.8105,3.4312,3.0652,5.6504,3.2666,1.9262,2.0039,2.0484,2.3943,3.0724,0.0,0.0,0.0,0.0,0.0,0.0,0.0,0.0,0.0,0.0,0.0,0.0,0.0,0.0,0.0,0.0,0.0,0.0,0.0,0.0,0.0,0.5043,1.7338,1.2606,2.516,3.3838,3.1212,3.9931,4.5108,4.2678,4.7433,5.1291,5.293,5.4129,5.5939,5.824,5.9462,6.0837,6.247,6.3129,6.332,6.3307,6.3476,6.3335,6.2942,6.2745,6.2605,6.2436,6.2436,6.2436,6.2436,6.2436,6.2436,6.2436,6.2436,6.2155,6.1576,6.0413,6.0282,6.0699,6.0733,6.0767,6.0799,6.0965,6.085,6.0491,6.0262,6.0827,6.1497,6.0457,6.0158,6.0292,6.0075,5.9532,5.9209,5.9801,5.9965,5.9994,5.9994,6.0131,6.0294,6.0294,6.0294,6.0321,6.0484,6.0102,5.972,5.9994,5.9994,5.7751,5.0974,5.5956,0.0,5.0925,5.617,5.3385,3.4604,3.2011,3.1751,3.2089,2.4684,3.1384,5.8214,5.2573,5.1743,5.9609,5.2466,4.8459,4.8935,3.2758,2.6019,0.0,0.0,0.0,0.0,0.0,0.0,0.0,0.0,0.0,0.0,0.0,0.0,0.0,0.0,0.0,0.0,0.0,0.0,0.0,0.0,0.0,0.0,1.8034,2.983,3.058,3.8312,4.4474,4.5974,4.7991,5.0031,5.1509,5.2569,5.3922,5.5466,5.7011,5.8804,6.1287,6.2341,6.3364,6.4712,6.4769,6.4572,6.4207,6.4207,6.4145,6.4074,6.4074,6.4074,6.4074,6.4444,6.4472,0.0,6.4444,6.4604,6.4604,6.4604,6.4376,0.0,0.0,0.0,0.0,0.0,6.2903,6.2483,6.2875,6.2519,6.2106,6.1949,6.2192,6.2352,6.1706,6.1568,6.1508,6.1357,6.0975,6.0512,6.0972,6.0945,6.0782,6.0782,6.0782,6.0782,6.0782,6.0782,6.0782,6.0782,0.0,0.0,6.0782,6.0782,5.7157,4.6323,5.3853,5.6915,4.5959,5.4091,5.5177,4.0295,3.8139,3.7942,3.8491,2.7531,0.0,0.0,0.0,4.3827,4.446,4.4823,0.0,0.0,0.0,0.0,0.0,0.0,0.0,0.0,2.3119,1.8459,0.0,0.0,0.0,0.0,0.0,0.0,0.0,0.0,0.0,0.0,0.0,0.0,0.0,0.0,0.0,0.0,3.2716,4.4058,4.6794,4.7575,4.7955,4.8148,5.0463,5.2411,5.3296,5.4831,5.6374,5.8035,5.9783,6.1501,6.3054,0.0,0.0,0.0,0.0,6.4797,6.4656,6.4849,6.5227,6.5679,6.587,6.6032,6.5898,6.6825,6.6693,6.6032,6.6825,6.7087,6.6956,6.7087,6.7087,6.6781,6.3789,6.3033,6.3737,6.4914,6.4929,0.0,0.0,0.0,0.0,6.3545,6.299,6.2326,6.2192,6.2058,6.2169,6.2206,6.1713,6.1275,6.1518,6.1135,6.0782,6.0782,6.0782,6.0782,6.0782,6.0782,6.0782,6.0782,6.0782,6.0782,6.0864,6.081,5.3063,2.9997,4.6118,5.2563,2.9495,4.6576,5.9828,5.738,0.0,0.0,5.7895,3.5344,3.2809,6.0507,3.925,2.6072,2.6753,2.8164,2.9009,2.8876,3.0691,4.333,6.6919,6.828,6.9613,6.9594,2.5652,1.7175,0.0,0.0,0.0,0.0,0.0,0.0,0.0,0.0,0.0,0.0,0.0,0.0,0.0,0.0,0.0,1.967,3.4854,4.6306,4.6841,4.8329,4.9864,5.1185,5.2984,5.4887,5.6995,5.8109,5.945,6.1109,6.1576,6.2445,6.4319,6.4516,6.4853,6.5471,6.5499,6.5021,6.3982,6.5135,6.5403,6.5154,0.0,0.0,6.6693,6.7934,6.7806,6.6693,6.7934,6.7934,6.6956,6.8062,6.8542,6.8445,6.7101,6.6793,6.6983,6.7783,6.7244,6.6375,6.6506,6.6096,6.5446,6.4839,6.5348,6.5698,6.4268,6.3879,0.0,6.2571,6.1764,6.1193,6.1028,6.0864,6.0782,6.0782,6.0782,6.0782,6.0782,6.0782,6.0782,6.0782,6.0782,6.0918,6.1352,6.1081,5.9097,5.4091,5.7531,5.9043,5.3904,5.772,5.2876,3.198,2.9647,2.9781,3.0281,2.5499,3.3841,6.0892,5.8038,5.5675,5.6411,5.6841,5.7464,5.8164,5.9663,6.2731,6.7658,6.9951,7.108,7.0685,6.1324,6.0092,0.0,0.0,0.0,0.0,0.0,0.0,0.0,0.0,0.0,0.0,0.0,-0.3965,0.4257,0.0,2.2841,3.1449,4.1038,4.7654,4.8752,5.0628,5.193,5.2343,5.4419,5.6655,5.874,5.9735,6.0746,6.1931,6.2577,6.3307,6.4235,6.5162,6.5668,6.5668,6.5387,6.5046,6.4802,6.5488,6.6021,6.636,6.8135,6.8736,6.8474,6.9486,6.9357,6.8474,6.9486,6.9486,6.8968,6.9615,6.9842,6.9871,6.9814,6.9027,6.7975,6.9367,6.8813,6.7506,6.8151,6.7737,6.6921,6.6568,6.6667,6.6667,6.5477,6.5085,6.4954,6.4025,6.3109,6.2454,6.2454,6.2067,6.1651,6.1651,6.1651,6.1651,6.1651,6.1651,6.1651,6.1651,6.1651,6.1759,6.2031,6.1841,6.1651,6.1651,6.1651,6.1651,6.1651,6.1651,5.673,4.3777,4.2584,4.2698,4.2926,4.3265,4.9131,6.2344,6.3888,6.4302,6.4684,6.551,6.6441,6.7364,6.899,6.9793,6.9852,7.1497,7.2476,7.3036,7.3176,7.3476,0.0,0.0,0.0,0.0,0.0,0.0,0.0,-1.7814,-1.559,-0.1185,0.252,0.7116,2.0515,2.4607,3.0259,4.3916,4.7482,4.9298,5.123,5.2878,5.3847,5.3612,5.5921,5.8178,5.9829,6.0718,6.1565,6.2296,6.3364,6.4038,6.415,6.5696,6.6258,6.5527,6.5158,6.5227,6.5622,6.5974,6.6883,6.8101,6.9542,7.0236,7.0134,7.0889,7.0889,7.0134,7.0658,7.1018,7.1277,7.1148,7.1148,7.1277,7.1886,7.0712,6.8861,7.0525,6.9967,6.8487,6.9657,6.916,6.8151,6.8151,6.7765,6.7116,6.643,6.6165,6.5927,6.539,6.4439,6.3612,6.3889,6.3222,6.2546,6.2546,6.2546,6.2546,6.2546,6.2546,6.2546,6.2546,6.2546,6.2573,6.2682,6.2709,6.2682,6.2546,6.2546,6.2546,6.2546,6.2546,6.2546,6.2546,6.2828,6.3082,6.3222,6.3917,6.4192,6.3917,6.4607,6.5046,6.529,6.6912,6.7976,6.881,7.0766,7.172,7.1846,7.3064,7.4237,7.5288,7.5775,7.5757,-4.9161,-3.7378,-2.2118,-1.2328,-0.9341,-0.1904,0.0,1.9934,1.5006,3.0405,3.5285,3.7711,4.0494,4.3545,4.6424,4.887,5.0833,5.2337,5.3293,5.3959,5.5153,5.6924,5.8693,6.0104,6.1211,6.1613,6.238,6.3504,6.4263,6.4881,6.5443,6.6173,6.6061,6.4909,6.5447,6.5403,6.4965,6.6824,6.803,6.8749,7.0757,7.1405,7.0759,7.2043,7.2043,7.0759,7.0919,7.1533,7.2672,7.2013,7.2139,7.2672,7.2797,7.2174,7.1547,7.1673,7.096,6.9743,6.9999,6.9482,6.8877,6.8877,6.8877,6.8593,6.7924,6.7276,6.6487,6.512,6.4165,6.3473,6.2801,6.2546,6.2546,6.2546,6.2546,6.2546,6.2546,6.2546,6.2546,6.2546,6.2546,6.2709,6.3225,6.3333,6.3143,6.2628,6.2546,6.2546,6.2546,6.2546,6.2546,6.2546,6.2828,6.3361,6.4055,6.4495,6.4769,6.4632,6.5274,6.6105,6.74,6.8781,6.9892,7.0572,7.2552,7.3005,7.1846,7.5022,7.6548,7.6365,7.8336,7.8691,-1.4518,-1.1509,-0.9967,0.2984,0.8025,1.2566,2.4024,2.2549,2.3274,3.9798,4.4106,4.5489,4.7206,4.8803,4.9984,5.0696,5.1815,5.3197,5.4619,5.5714,5.719,5.9399,6.0423,6.1281,6.1753,6.2192,6.2886,6.3729,6.4781,6.5504,6.5759,6.6793,6.6736,6.5419,6.5317,6.5307,6.5393,6.6314,6.7144,6.821,6.991,7.0367,6.9707,7.0759,7.0629,6.9707,7.0104,7.0629,7.1148,7.1277,7.1533,7.1789,7.217,7.1631,7.0889,7.2013,7.1607,7.0629,7.1013,7.0705,7.0111,7.0111,6.9853,6.9335,6.865,6.7986,6.7179,6.6332,6.5391,6.4689,6.452,6.398,6.3577,6.3577,6.3577,6.3577,6.3577,6.3577,6.3577,6.3577,6.3577,6.3659,6.3903,6.393,6.3849,6.3605,6.3577,6.3577,6.3577,6.3577,6.3721,6.4149,6.4575,6.4971,6.553,6.5697,6.5836,6.5836,6.5724,6.6356,6.7812,6.9044,7.0337,7.1413,7.3441,7.4225,7.3659,7.5599,7.6748,7.7118,7.8231,7.8758,-0.0763,0.1687,0.0391,1.4146,2.2525,2.7047,2.6267,2.6893,3.1203,4.3599,4.6962,4.8044,4.9509,5.0503,5.1386,5.1941,5.2946,5.4376,5.6184,5.7425,5.8929,6.0752,6.154,6.1919,6.2033,6.2669,6.3335,6.3757,6.4887,6.5525,6.5525,6.649,6.6462,6.5269,6.4975,6.5193,6.5793,6.606,6.6729,6.8102,6.9103,6.9337,6.877,6.9337,6.9337,6.877,6.9308,6.9604,6.9604,7.0104,7.0367,7.0367,7.0859,7.0468,6.9707,7.1247,7.1118,7.0367,7.1148,7.0889,7.0367,7.0367,6.9972,6.947,6.877,6.809,6.7541,6.6847,6.6031,6.549,6.5577,6.4861,6.431,6.431,6.431,6.431,6.431,6.431,6.431,6.431,6.431,6.431,6.431,6.431,6.431,6.431,6.431,6.431,6.431,6.431,6.46,6.5347,6.5775,6.6031,6.6595,6.6595,6.6595,6.6595,6.6173,6.6748,6.834,6.9435,7.0754,7.2119,7.3923,7.4802,7.4613,7.5675,7.6686,7.7577,7.7914,7.8825,-3.0111,-1.4671,0.0664,1.6734,3.1791,4.2937,4.3716,4.425,4.483,4.5777,4.7485,4.8961,4.9462,5.1175,5.2841,5.3568,5.5178,5.6855,5.8414,5.9195,5.9985,6.1138,6.1546,6.1951,6.2354,6.3286,6.3785,6.3785,6.4403,6.4905,6.4905,6.4905,6.4623,6.3841,6.4482,6.5165,6.5765,6.6458,6.7522,6.8741,6.877,6.877,6.877,6.877,6.877,6.877,6.877,6.877,6.877,6.8905,6.8905,6.8905,6.8905,6.8905,6.877,6.8905,6.8905,6.8905,6.9737,6.9441,6.8905,6.8905,6.8905,6.8635,6.7953,6.7679,6.7403,6.5917,6.549,6.5347,6.46,6.431,6.431,6.431,6.431,6.431,6.431,6.431,6.431,6.431,6.431,6.431,6.431,6.431,6.431,6.431,6.431,6.431,6.431,6.431,6.46,6.5347,6.549,6.5775,6.6595,6.6595,6.6595,6.6595,6.6567,6.7512,6.9648,7.0379,7.1491,7.2875,7.4162,7.4581,7.3917,7.5451,7.6686,7.761,7.8444,7.9598,-1.5052,0.2337,1.9687,3.4697,4.3565,4.8427,4.8146,4.852,4.9037,4.9629,3.9548,3.0583,3.0857,3.1685,3.2539,3.3309,4.5975,5.6158,5.7565,5.8366,5.9342,6.0453,6.0728,6.1302,6.2804,6.3432,6.3982,6.4403,6.5142,6.5724,6.6151,6.5755,6.5211,6.4586,6.4319,6.434,6.4712,6.5013,6.577,6.6986,6.7264,6.7541,6.809,6.7541,6.7264,6.7403,6.7816,6.809,6.809,6.8635,6.877,6.877,6.877,6.8499,6.809,6.8635,6.8227,6.7541,6.877,6.9039,6.877,6.877,6.8499,6.7953,6.7816,6.7403,6.6735,6.5775,6.549,6.5347,6.4455,6.431,6.431,6.431,6.431,6.431,6.431,6.431,6.431,6.431,6.431,6.431,6.431,6.431,6.431,6.431,6.431,6.431,6.431,6.4745,6.5204,6.549,6.5917,6.6314,6.6595,6.6595,6.6595,6.6595,6.6595,6.7403,6.9039,6.981,7.0998,7.283,7.378,7.4294,7.4549,7.5675,7.6686,7.7577,7.798,7.8687,0.1315,1.6481,2.9581,4.5048,4.9993,5.0864,5.0562,5.0804,5.1047,5.1327,3.547,2.159,2.1116,2.1816,1.9875,1.2376,2.9276,4.3803,4.519,4.5924,4.965,5.8865,6.0177,6.0972,6.27,6.3273,6.3795,6.4712,6.5148,6.534,6.5646,6.5079,6.4508,6.4008,6.3452,6.3448,6.4027,6.4055,6.4527,6.5747,6.6031,6.6455,6.6875,6.6455,6.6173,6.6173,6.6735,6.6875,6.7014,6.7403,6.7679,6.7679,6.7679,6.7403,6.7125,6.7541,6.7125,6.6595,6.7953,6.8227,6.7953,6.7953,6.7541,6.7125,6.7125,6.6735,6.6031,6.549,6.5347,6.5176,6.4455,6.431,6.431,6.431,6.4019,6.3846,6.3846,6.3726,6.3406,6.3406,6.3406,6.3406,6.3406,6.37,6.4019,6.431,6.431,6.431,6.431,6.4889,6.5347,6.549,6.6031,6.6455,6.6595,6.6595,6.6595,6.6595,6.6595,6.7264,6.877,6.9412,7.0829,7.2891,7.3539,7.4268,7.4897,7.5423,7.6231,7.7134,7.7552,7.8203,1.6685,2.6345,3.096,4.7724,5.1327,5.0906,5.1632,5.1911,5.1345,4.965,3.4097,2.0111,1.7755,1.9404,1.4311,-0.6796,0.862,2.3838,2.5328,2.5567,3.4043,5.6876,5.9927,6.075,6.204,6.2509,6.3306,6.4548,0.0,6.4023,6.3707,6.285,6.2381,6.2381,6.1979,6.2397,6.3584,6.3667,6.4302,6.549,6.549,6.549,6.549,6.549,6.549,6.549,6.549,6.549,6.549,6.549,6.549,6.549,6.549,6.5633,6.589,6.5633,6.5775,6.6173,6.7264,6.7125,6.6595,6.6595,6.6314,6.6031,6.6031,6.5747,6.5347,6.5033,6.4889,6.4889,6.4455,6.431,6.431,6.431,6.3553,6.2964,6.2964,6.2369,6.1921,6.1921,6.1921,6.1921,6.1921,6.2518,6.3259,6.4165,6.4165,6.4165,6.431,6.4745,6.5033,6.549,6.5747,6.6173,6.6595,6.6595,6.6595,6.6595,6.6595,6.7125,6.8577,6.9382,7.0639,7.2674,7.3385,7.4147,7.4778,7.4897,7.5337,7.6199,7.7134,7.8046,2.3588,3.5763,4.7024,5.1467,5.2491,5.2352,5.2629,5.2629,4.8458,3.342,1.4006,-0.5151,-2.1256,-1.1387,-0.2735,-0.8802,2.0861,4.4998,4.5998,4.6691,4.9876,5.7703,5.9124,6.0501,6.2668,6.2723,6.2753,6.3278,6.3251,6.3195,6.3029,6.2418,6.1951,6.1951,6.2258,6.2729,6.3222,6.41,6.4703,6.5033,6.5347,6.549,6.549,6.549,6.549,6.549,6.549,6.549,6.549,6.549,6.549,6.549,6.549,6.549,6.5633,6.549,6.549,6.5633,6.5917,6.5917,6.5775,6.5775,6.5775,6.5633,6.5633,6.5633,6.5347,6.5033,6.4889,6.4889,6.4455,6.3873,6.3406,6.3406,6.2815,6.222,6.222,6.207,6.1921,6.1921,6.1921,6.1921,6.1921,6.207,6.2518,6.3259,6.2964,6.2964,6.4165,6.4889,6.5347,6.549,6.6031,6.6314,6.6173,6.6455,6.6455,6.6173,6.6173,6.6567,6.7512,6.8198,6.9353,7.0929,7.1855,7.2766,7.3416,7.3905,7.4596,7.5475,7.6911,7.8046,3.5723,4.5256,5.2929,5.2929,5.2929,5.0651,4.1987,4.0061,3.4299,1.4253,-0.6476,-2.4828,-3.7545,-2.2883,-1.2104,-2.2483,1.0756,3.8329,3.9019,3.983,4.4814,5.6808,5.8667,6.0022,6.2579,6.2198,6.1872,6.2178,6.2481,6.2481,6.2341,6.1874,6.1546,6.1546,6.2014,6.2589,6.321,6.4137,6.46,6.46,6.4889,6.4916,6.4916,6.4916,6.4916,6.4916,0.0,6.4916,6.4916,6.4916,6.4916,6.4916,6.4916,6.5033,6.5204,6.506,6.506,6.5176,6.506,6.4916,6.506,6.5347,6.5347,6.5204,6.5204,6.5033,6.4916,6.4745,6.46,6.46,6.431,6.4019,6.358,6.358,6.2667,6.1921,6.1921,6.1318,6.0863,6.0863,6.0863,6.1015,6.1318,6.1318,6.177,6.2964,6.2667,6.2815,6.4165,6.46,6.4889,6.5176,6.589,6.6173,6.5747,6.6173,6.6173,6.5747,6.5747,6.6031,6.6455,6.7125,6.8033,6.9028,7.0539,7.1473,7.2235,7.3015,7.3752,7.4205,7.6053,7.7291,4.8427,5.2879,5.2929,5.2929,5.2929,4.778,2.8032,2.336,1.6806,-0.6189,-2.5087,-3.8908,-4.3488,-2.6857,-1.825,-3.5681,-0.5831,2.0877,2.414,2.5263,3.3815,5.543,5.8316,5.9421,6.2161,6.1488,6.1054,6.1461,6.1792,6.185,6.1709,6.1438,6.1248,6.1412,6.1627,6.2302,6.3523,6.4039,6.431,6.431,6.431,6.431,6.431,6.431,6.431,6.431,0.0,0.0,6.431,6.431,6.431,6.431,6.431,6.4455,6.4745,6.4455,6.4455,6.4745,6.4455,6.431,6.4455,6.506,6.5033,6.4889,6.4889,6.46,6.431,6.431,6.431,6.431,6.431,6.4165,6.4019,6.4019,6.2815,6.177,6.162,6.0558,5.9483,5.9483,5.9483,5.9663,6.0431,6.0584,6.1015,6.2518,6.2667,6.2964,6.4019,6.3992,6.4138,6.4889,6.5462,6.5747,6.549,6.5747,6.5747,6.549,6.5347,6.5347,6.5347,6.6003,6.6651,6.726,6.919,7.0409,7.1028,7.2235,7.2797,7.2797,7.4826,7.5988,5.1309,5.2578,5.2929,5.2929,5.2929,4.778,2.8032,2.3022,1.2401,-2.3871,-3.506,-4.3529,-6.0758,-4.681,-2.9017,-1.7412,0.5514,2.7437,4.3808,4.6724,4.9743,5.6375,5.79,5.9228,6.1453,6.1569,6.1298,6.0945,6.1056,6.1001,6.1029,6.0892,6.1355,6.2193,6.2329,6.2953,6.4147,6.4256,6.431,6.431,6.431,6.431,6.431,6.431,6.431,6.431,6.431,0.0,6.431,6.431,6.431,6.431,6.431,6.431,6.4455,6.431,6.431,6.4455,6.431,6.431,6.431,6.4455,6.4455,6.4455,6.4455,6.431,6.431,6.431,6.431,6.431,6.431,6.3259,6.2369,6.2369,6.162,6.0737,6.0099,5.9637,5.9483,5.9483,5.9483,5.9483,5.9663,5.9663,5.9946,6.1015,6.0558,6.0863,6.2964,6.4138,6.4717,6.4889,6.5319,6.549,6.5033,6.5347,6.549,6.5033,6.5033,6.5033,6.5033,6.5692,6.6117,6.623,6.8441,6.9545,6.9648,7.1247,7.2013,7.2139,7.3749,7.4557,5.195,5.2302,5.2578,5.2854,5.2929,4.4914,1.4549,0.7611,-0.3784,-4.4023,-5.2595,-5.6011,-6.6387,-5.1588,-3.4805,-2.5835,0.1524,2.5216,3.4818,4.5944,5.3847,5.6154,5.7364,5.8848,6.0897,6.1075,6.1054,6.0782,6.0782,6.0782,6.0782,6.1054,6.1624,6.2519,6.2845,6.3415,6.431,6.431,6.431,6.431,6.431,6.431,6.431,6.431,6.431,6.431,6.431,0.0,6.431,6.431,6.431,6.431,6.431,6.431,6.431,6.431,6.431,6.431,6.431,6.431,6.4364,6.4663,6.4554,6.431,6.431,6.431,6.431,6.431,6.431,6.431,6.431,6.37,6.3111,6.2667,6.162,6.0431,5.9663,5.9483,5.9483,5.9483,5.9483,5.9483,5.9483,5.9483,5.9792,6.0584,6.0431,6.0863,6.2815,6.3553,6.4138,6.46,6.4889,6.5033,6.46,6.4889,6.5033,6.46,6.46,6.46,6.46,6.4861,6.5149,6.5149,6.7346,6.847,6.847,7.0468,7.1405,7.1405,7.2798,7.3506,5.0613,5.2026,5.2226,5.2779,5.2929,4.2478,0.2294,-0.6527,-1.769,-5.8176,-6.618,-6.6242,-6.7289,-5.4552,-4.2456,-3.8407,-1.165,1.1726,2.0876,3.6347,4.9063,5.5358,5.707,5.8533,6.0501,6.0831,6.0782,6.0782,6.0891,0.0,6.0945,6.1352,6.1949,6.2709,6.317,6.3713,6.431,6.431,6.431,6.431,6.431,6.431,6.431,6.431,6.431,6.431,6.431,0.0,0.0,6.431,6.431,6.431,6.431,6.431,6.4337,6.4446,6.45,6.4527,6.4663,6.469,6.4771,6.5233,6.4988,6.4527,6.4663,6.469,6.469,6.469,6.469,6.4663,6.4527,6.4354,6.4061,6.3446,6.2025,6.061,6.0251,5.9893,5.9483,5.9483,5.9483,5.9483,5.9483,5.9483,5.9637,6.0431,6.0431,6.1015,6.2667,6.2815,6.3259,6.4165,6.46,6.46,6.431,6.46,6.46,6.431,6.431,6.431,6.431,6.431,6.431,6.431,6.6258,6.7346,6.7621,6.9545,7.0629,7.0889,7.1982,7.255,4.6645,5.1724,5.2226,5.2779,5.2929,4.2613,0.3034,-0.6527,-1.803,-5.702,-6.5534,-6.5934,-6.6057,-6.4584,-5.7743,-4.0637,-3.4725,-1.9805,1.6367,2.349,3.2935,5.4278,5.6922,5.8071,6.1178,6.1108,6.0782,6.0782,0.0,0.0,6.1542,6.1569,6.2139,6.3306,6.3387,6.3713,6.431,6.431,6.431,6.431,6.431,6.431,6.431,6.431,6.431,6.431,6.431,0.0,0.0,6.431,6.431,6.431,6.431,6.431,6.4364,6.4907,6.5124,6.5178,6.5748,6.5965,6.5965,6.602,6.5613,6.5205,6.5775,6.5965,6.5965,6.5965,6.5965,6.583,6.526,6.4506,6.406,6.3911,6.2313,6.1017,6.227,6.0916,5.9483,5.9483,5.9483,5.9483,5.9483,5.9483,5.9508,5.9663,5.9663,6.0253,6.177,6.207,6.2667,6.4165,6.431,6.431,6.431,6.431,6.431,6.431,6.431,6.431,6.431,6.431,6.431,6.431,6.555,6.6651,6.7621,6.8876,6.9972,7.0889,7.1018,7.1148,4.5762,5.1155,5.153,5.2566,4.4592,2.8833,0.0,-1.4761,-3.0451,-5.9044,-6.4457,-6.4057,-6.4057,-6.4734,-6.2958,-5.587,-4.5183,-3.2815,-1.8496,0.5865,2.5826,3.5388,4.8724,5.8027,6.073,6.0831,6.0782,6.0782,0.0,0.0,6.2139,6.2519,6.2926,6.3415,6.3767,6.4066,6.431,6.431,6.431,6.431,6.431,6.431,6.431,6.431,6.431,6.431,6.431,0.0,0.0,6.431,6.4527,6.4826,6.4826,6.507,6.5423,6.5667,6.5748,6.5802,6.6047,6.6128,6.6182,6.6535,6.6481,6.6264,6.6155,6.6128,6.6128,6.6128,6.6128,6.6074,6.5802,6.4557,6.3238,6.3238,6.158,6.0175,6.0686,6.0097,5.9483,5.9483,5.9483,5.9483,5.9483,5.9483,5.9483,5.9483,5.9483,6.0099,6.162,6.1921,6.2518,6.4165,6.431,6.431,6.431,6.431,6.431,6.431,6.431,6.431,6.431,6.431,6.431,6.431,6.5407,6.6258,6.6651,6.847,6.9574,6.9972,7.0629,7.0889,3.7244,4.6476,5.1071,5.2316,3.8723,1.9456,-0.1631,-2.0223,-3.8812,-5.9409,-6.2918,-6.221,-6.221,-6.3349,-6.4751,-6.6133,-5.5644,-4.601,-4.2566,-1.5934,0.544,1.1418,2.639,3.9868,4.8915,5.6444,6.0782,6.0782,0.0,0.0,0.0,6.3279,6.3686,6.3686,6.4093,6.431,6.431,6.431,6.431,6.431,6.431,6.431,6.431,6.431,6.431,6.431,0.0,0.0,0.0,6.45,6.4826,6.5205,6.5395,6.5748,6.6155,6.6318,6.6399,6.6399,6.6589,6.6644,6.6725,6.7132,6.7268,6.7186,6.6779,6.6644,6.6644,6.6644,6.6508,6.6399,6.6399,6.4878,6.3468,6.3659,6.1812,6.0201,6.0376,5.9889,5.9483,5.9483,5.9483,5.9483,5.9483,5.9483,5.9558,5.9709,5.9608,6.0175,6.1854,6.2025,6.2518,6.4165,6.431,6.431,6.431,6.431,6.431,6.431,6.431,6.431,6.431,6.431,6.431,6.431,6.5149,6.5692,6.5976,6.7484,6.8606,6.9308,7.0104,7.0759,1.7843,3.6562,5.0971,5.184,3.776,1.8547,-0.0619,-2.0237,-3.9349,-5.7228,-6.0824,-6.0824,-6.0824,-6.1933,-6.3902,-6.7048,-6.8545,-6.3152,-4.5664,-4.2471,-3.4716,-1.5278,-1.2925,-0.299,2.2164,4.6599,6.0782,0.0,0.0,0.0,0.0,6.3659,6.431,6.431,6.431,6.431,6.431,6.431,6.431,6.431,6.431,6.431,6.431,6.431,6.431,0.0,0.0,0.0,0.0,6.4934,6.5178,6.526,6.5884,6.6128,6.6182,6.6779,6.6996,6.7078,6.7675,6.7865,6.7865,6.7892,6.7892,6.7892,6.7865,6.7865,6.7865,6.7865,6.7458,6.6996,6.6996,6.6101,6.5329,6.5582,6.3785,6.1932,6.2302,6.0886,5.9483,5.9483,5.9483,5.9483,5.9483,5.9483,5.9684,6.0236,5.9834,6.0302,6.2426,6.2287,6.2518,6.4165,6.431,6.431,6.431,6.431,6.431,6.431,6.431,6.431,6.431,6.431,6.431,6.431,6.431,6.4861,6.5976,6.5976,6.7207,6.9308,6.9308,7.0206,-0.131,0.7894,1.2515,1.2952,-0.0608,-1.5865,-2.2828,-3.8225,-5.3065,-6.0338,-6.097,-6.0764,-6.1885,-6.3192,-6.5176,-6.8107,-6.9817,-6.9617,-6.626,-3.9725,-1.7828,-1.0538,1.8664,4.1046,4.8237,5.6487,6.1189,0.0,0.0,0.0,0.0,6.3279,6.3876,6.431,6.431,6.431,6.431,6.431,6.431,6.431,6.431,6.431,6.431,6.431,0.0,0.0,0.0,0.0,0.0,6.4934,6.545,6.5884,6.6481,6.6969,6.7349,6.7539,6.762,6.7648,6.7838,6.7892,6.7892,6.7892,6.7892,6.7892,6.7892,6.7892,6.7892,6.7892,6.7756,6.762,6.762,6.6244,6.4808,6.4418,6.2735,6.0966,6.0556,5.9889,5.9483,5.9483,5.9483,5.9483,5.9483,5.9483,5.9558,5.9734,5.9935,6.0116,6.0507,6.1606,6.2365,6.1947,6.3259,6.431,6.431,6.431,6.431,6.431,6.431,6.431,6.431,6.431,6.431,6.431,6.431,6.4455,6.4861,6.555,6.6819,6.8198,6.8198,6.8847,-1.9766,-1.0142,-0.4892,-0.4955,-1.8622,-3.2197,-3.2538,-4.6968,-6.0371,-6.1022,-6.0995,-6.1177,-6.2242,-6.37,-6.5804,-6.8829,-7.0561,-6.9847,-6.5089,-4.0644,-1.9799,-1.0861,2.4022,4.7133,4.682,5.5534,0.0,0.0,0.0,0.0,0.0,6.3306,6.393,6.431,6.431,6.431,6.431,6.431,6.431,6.431,6.431,6.431,6.431,6.431,0.0,0.0,0.0,0.0,0.0,6.5287,6.5911,6.6508,6.7105,6.7566,6.7892,6.7892,6.7892,6.7892,6.7892,6.7892,6.7892,6.7892,6.7892,6.7892,6.7892,6.7892,6.7892,6.7892,6.7892,6.7838,6.762,6.62,6.4691,6.3774,6.2146,6.0482,5.9914,5.9633,5.9483,5.9483,5.9483,5.9483,5.9483,5.9483,5.9558,5.9784,5.9797,5.9872,5.9784,6.086,6.1402,6.0762,6.1901,6.2852,6.2964,6.3553,6.3553,6.2937,6.2937,6.2789,6.2466,6.3085,6.3379,6.3379,6.3992,6.431,6.431,6.5407,6.6398,6.693,6.7346,6.8033,0.0,-2.0766,-0.8212,-0.8629,-2.2145,-3.4953,-3.379,-4.8527,0.0,-6.0166,-6.0967,-6.2142,-6.2264,-6.3877,-6.6217,-6.9334,-7.1184,-6.5783,-4.7671,-4.1907,-3.2157,-1.2417,1.092,2.5192,2.4314,4.6266,0.0,0.0,0.0,0.0,0.0,6.3686,6.431,6.431,6.431,6.431,6.431,6.431,6.431,6.431,6.431,6.431,6.431,6.431,0.0,0.0,0.0,0.0,0.0,6.5911,6.6508,6.7078,6.7648,6.7892,6.7892,6.7892,6.7892,6.7892,6.7892,6.7892,6.7892,6.7892,6.7892,6.7892,6.7838,6.7865,6.7892,6.7838,6.7838,6.7702,6.7105,6.5878,6.4638,6.3721,6.2146,6.061,6.0317,5.9885,5.9533,5.9508,5.9483,5.9483,5.9483,5.9483,5.9659,6.0029,5.9549,5.9256,5.9972,5.981,5.9896,6.0201,6.0221,6.0141,6.0431,6.1894,6.2194,6.0634,6.0507,6.0202,5.9408,6.0938,6.1868,6.1868,6.3406,6.4165,6.4165,6.5264,6.5834,6.5976,6.693,6.7346,-4.9927,0.0,-4.5619,-4.7267,-5.0678,-5.3605,0.0,-5.7992,-6.1886,-6.2123,-6.2727,-6.353,-6.4841,-6.6705,-6.8696,-7.0647,-7.307,-6.7815,-4.7537,-1.4768,0.8911,1.3436,3.6891,4.5301,2.6633,4.7353,0.0,0.0,0.0,0.0,0.0,6.3903,6.431,6.431,6.431,6.431,6.431,6.431,6.431,6.431,6.431,6.431,6.431,6.37,0.0,0.0,0.0,0.0,6.437,6.6045,6.6888,6.7078,6.7648,6.7892,6.7892,6.7892,6.7892,6.7892,6.7892,6.7892,6.7892,6.7892,6.7892,6.781,6.7349,6.7539,6.7783,6.7349,6.7213,6.7078,6.6481,6.5259,6.4027,6.3119,6.2146,6.0941,5.9914,5.991,6.001,5.9583,5.9483,5.9483,5.9483,5.9483,5.9378,5.8698,5.9305,5.9057,5.7515,5.9025,5.952,5.7694,5.9059,5.9516,5.7947,5.9253,6.0176,5.9716,5.9716,5.9562,5.9408,6.0355,6.0989,6.0989,6.2492,6.3406,6.3406,6.4283,6.4717,6.4717,6.5005,6.555,-5.3806,-5.5745,-5.7715,-5.9439,-6.0284,-6.0621,-6.0683,-6.2331,-6.3785,-6.4024,-6.5091,-6.6354,-6.7667,-6.089,-5.8966,-7.0794,-5.7075,-4.1429,-3.127,-0.9056,1.0528,2.1957,3.5973,4.4286,0.0,0.0,0.0,0.0,0.0,0.0,0.0,6.3984,6.431,6.431,6.431,6.431,6.431,6.3873,6.3846,6.431,6.3553,6.3406,6.37,6.2964,6.2518,0.0,0.0,0.0,6.4044,6.5586,6.6508,6.7051,6.7376,6.7648,6.7892,6.7892,6.7892,6.7892,6.7892,6.7892,6.7892,6.7892,6.7702,6.7431,6.7105,6.7051,6.7024,6.6698,6.6617,6.6303,6.5409,6.423,6.3238,6.2452,6.1531,6.0755,6.0418,6.0286,6.0236,5.9935,5.9659,5.9483,5.9483,5.9173,5.8862,5.8862,5.8472,5.7941,5.7166,5.8022,5.826,5.6608,5.7448,5.7742,5.6542,5.6765,5.7218,5.7716,5.7692,5.7534,5.7059,5.8319,5.9587,6.0685,6.1921,6.2667,6.3111,6.3553,6.4019,6.431,6.431,6.4573,-5.3276,-5.3338,-5.3674,-5.7664,-6.0031,-6.1313,-6.1026,-6.3833,-6.6339,-6.6053,-6.7706,-6.8432,-6.585,-5.356,-4.9426,-6.639,-3.5358,-0.8488,-0.6965,-0.4336,0.4039,2.251,2.8099,0.0,0.0,0.0,0.0,0.0,0.0,0.0,0.0,6.3894,6.431,6.4165,6.431,6.431,6.431,6.3553,6.3553,6.4165,6.2667,6.2369,6.2815,6.207,6.177,0.0,0.0,0.0,6.369,6.4546,6.5694,6.6845,6.6845,6.7224,6.7892,6.7892,6.7892,6.7892,6.7892,6.7892,6.7892,6.7892,6.7485,6.6996,6.6915,6.6454,6.5965,6.5884,6.5911,6.5708,6.4423,6.354,6.2783,6.1942,6.127,6.0846,6.109,6.0788,6.0412,6.0337,5.9885,5.9483,5.9483,5.8862,5.8369,5.9018,5.7662,5.6772,5.74,5.7001,5.6752,5.6397,5.6179,5.5851,5.5462,5.4882,5.4742,5.5368,5.553,5.5206,5.4579,5.5966,5.7849,6.0074,6.0989,6.1594,6.2343,6.2667,6.3259,6.37,6.4019,6.4019,-5.3638,-4.455,-3.8146,-5.4052,-5.9408,-6.109,-6.2173,-6.4983,-6.755,-6.8816,-6.9986,-6.532,-4.7119,-5.6996,-6.302,-4.8453,-2.6537,-0.4267,1.6271,3.4825,4.0983,2.6417,4.3911,0.0,0.0,0.0,0.0,0.0,0.0,0.0,0.0,6.3819,6.4019,6.3259,6.4019,6.431,6.431,6.4165,6.3873,6.3259,6.2964,6.2667,6.207,6.1167,6.0889,0.0,0.0,6.1941,6.2045,6.3459,6.4677,6.5929,6.5929,6.6738,6.7892,6.7892,6.7892,6.7892,6.7892,6.7892,6.7892,6.7892,6.7485,6.6915,6.6399,6.583,6.5233,6.4717,6.4934,6.5314,6.5058,6.4438,6.3646,6.3384,6.3103,6.2598,6.1425,6.1115,6.0914,6.0412,5.9885,5.9483,5.9483,5.8862,5.8055,5.7449,5.7166,5.6794,5.6318,5.6882,5.6965,5.6099,5.5885,5.5518,5.4648,5.4416,5.4416,5.4579,5.4579,5.4882,5.553,5.5691,5.647,5.7582,5.8344,5.8787,5.8943,6.1089,6.1718,6.124,6.2641,6.2964,-5.421,-5.0064,-4.4869,-4.4428,-3.8558,-3.3161,-3.3792,-3.5491,-4.0382,-5.2732,-5.5626,-5.2937,-4.2811,-3.9752,-2.7611,0.611,-0.0866,-0.2506,2.0019,2.2134,2.2448,2.5082,0.0,0.0,0.0,0.0,0.0,0.0,0.0,0.0,0.0,0.0,6.3873,6.3111,6.3406,6.3406,6.2964,6.2964,6.2964,6.3111,6.177,6.1167,6.1167,6.0431,6.0125,6.0125,0.0,6.1121,6.1147,6.2296,6.3686,6.5269,6.5269,6.6289,6.7892,6.7892,6.7892,6.7892,6.7892,6.7892,6.7892,6.7892,6.7268,6.6481,6.6209,6.545,6.4517,6.378,6.4208,6.4652,6.4506,6.399,6.3323,6.3415,6.3069,6.2501,6.2069,6.1843,6.1466,6.0889,6.0337,5.9679,5.8912,5.8055,5.7449,5.7132,5.6253,5.595,5.6508,5.6682,5.6459,5.5977,5.5931,5.5518,5.4508,5.4416,5.4416,5.4416,5.4416,5.4579,5.5044,5.5368,5.5852,5.6334,5.7107,5.7716,5.8163,5.9895,6.066,6.0634,6.1894,6.222,-5.541,-5.4371,-4.9516,-3.7811,-2.8838,-2.043,-1.1438,-1.3739,-2.1215,-3.3249,-3.5491,-3.5283,-3.5442,-2.1429,0.1219,3.5275,1.7228,0.6252,2.7771,1.7459,1.4403,3.242,0.0,0.0,0.0,0.0,0.0,0.0,0.0,0.0,0.0,0.0,6.3726,6.2815,6.2815,6.2518,6.1921,6.177,6.1921,6.2518,6.0711,5.9971,6.0431,5.9817,5.9483,5.9483,6.0125,6.0431,6.0431,6.1015,6.2448,6.4386,6.4539,6.5895,6.7892,6.7892,6.7892,6.7892,6.7892,6.7892,6.7892,6.7892,6.7078,6.6128,6.5829,6.4964,6.3873,6.3111,6.3259,6.3687,6.3681,6.3495,6.3254,6.3333,6.2872,6.2457,6.2559,6.207,6.1521,6.0811,6.0238,5.9508,5.8153,5.7449,5.6973,5.6654,5.5485,5.504,5.6488,5.6197,5.5885,5.5771,5.5771,5.5403,5.4485,5.4416,5.4416,5.4416,5.4416,5.4416,5.4416,5.5044,5.5368,5.5368,5.6013,5.663,5.7376,5.8656,5.9433,5.9716,6.0989,6.1469,-5.7878,-4.8137,-3.7573,-4.0488,-5.184,-5.2976,-1.7486,-2.4141,-3.333,-1.7452,-1.3152,-1.2714,-1.3702,-1.2539,-0.9961,-0.5444,1.0635,3.0693,5.4171,0.0,5.796,0.0,0.0,0.0,0.0,0.0,0.0,0.0,0.0,0.0,0.0,0.0,0.0,6.207,6.1921,6.1921,6.1921,6.1193,6.0889,6.0889,6.0737,6.0278,5.9637,5.9508,5.9483,5.9483,5.9508,5.9663,5.9637,5.9637,6.0759,6.2715,6.3465,6.5435,6.7892,6.7892,6.7892,6.7892,6.7892,6.7892,6.7892,6.7892,6.7078,6.5979,6.5173,6.4193,6.2964,6.222,6.207,6.2201,6.2778,6.3785,6.4492,6.3568,6.3632,6.3559,6.1952,6.1228,6.036,5.9031,5.8959,5.8741,5.7387,5.6973,5.6654,5.5852,5.5486,5.5174,5.5243,5.5656,5.5748,5.5311,5.5265,5.5036,5.4462,5.4416,5.4416,5.4416,5.4416,5.4416,5.4416,5.4416,5.4416,5.4416,5.4579,5.4579,5.4719,5.7059,5.7873,5.729,5.9637,6.0431,-5.9696,-4.8623,-3.7049,-4.0889,-4.6583,-4.1093,-0.2489,0.1493,-0.4899,-1.1565,-0.0732,0.5462,-0.891,1.1876,2.6597,1.2242,3.1159,5.0596,5.8963,6.2179,0.0,0.0,0.0,0.0,0.0,0.0,0.0,0.0,0.0,0.0,0.0,0.0,0.0,6.1921,6.1469,6.0863,6.0406,6.0099,5.9946,5.9946,5.9946,5.9792,5.9483,5.9483,5.9483,5.9483,5.9483,5.9483,5.9533,5.9859,6.0932,6.2636,6.4741,6.5918,6.6472,6.7584,6.7584,6.7121,6.7738,6.7584,6.7121,6.7738,6.6774,6.5173,6.5021,6.4044,6.2815,6.1469,6.1167,6.1422,6.2474,6.3048,6.3311,6.3252,6.3363,6.296,6.1812,6.1064,6.036,5.8868,5.8475,5.7759,5.6429,5.6174,5.597,5.5509,5.4971,5.4944,5.5564,5.5564,5.5403,5.5243,5.4921,5.4623,5.4439,5.4416,5.4416,5.4416,5.4416,5.4416,5.4416,5.4416,5.4416,5.4416,5.4416,5.4416,5.4416,5.599,5.6789,5.6973,5.8525,5.9328,-5.3316,-4.6417,-3.7643,-3.4102,-3.7726,-3.1678,0.7862,1.3473,0.9761,0.7873,1.5209,1.7368,0.2093,2.5321,4.1516,2.5306,4.4706,6.1577,6.1186,0.0,0.0,0.0,0.0,0.0,0.0,0.0,0.0,0.0,0.0,0.0,0.0,0.0,0.0,0.0,6.0863,6.0125,5.9508,5.9483,5.9483,5.9483,5.9483,5.9483,5.9483,5.9483,5.9483,5.9483,5.9483,5.9483,5.9533,5.991,6.0958,6.2662,6.503,6.5844,6.5845,6.7121,6.7276,6.6966,6.7121,6.7121,6.7094,6.743,6.6289,6.4843,6.4539,6.3442,6.207,6.0711,6.0253,6.0482,6.1479,6.1839,6.2033,6.2573,6.2432,6.2117,6.1425,6.0776,5.982,5.8324,5.7869,5.7276,5.5624,5.553,5.5555,5.5293,5.476,5.4714,5.5587,5.5265,5.4967,5.4967,5.4623,5.4416,5.4416,5.4416,5.4416,5.4416,5.4416,5.4416,5.4416,5.4416,5.4416,5.4416,5.4416,5.4416,5.4416,5.5206,5.6174,5.6973,5.7898,5.8706,-3.7429,-4.012,-3.7528,-1.9412,-2.8382,-3.1091,0.9837,0.4539,0.2714,4.4595,3.6618,2.2216,2.2786,2.3798,2.464,2.4795,4.6102,6.2709,0.0,0.0,0.0,0.0,0.0,0.0,0.0,0.0,0.0,0.0,0.0,0.0,0.0,0.0,0.0,0.0,6.0406,5.9483,5.9483,5.9483,5.9483,5.9483,5.9483,5.9483,5.9483,5.9483,5.9483,5.9483,5.9483,5.9483,5.9483,5.9508,6.0629,6.2479,6.3961,6.5318,6.6628,6.6628,6.7121,6.7584,6.6002,6.6472,6.7738,6.6939,6.5829,6.4691,6.3927,6.2224,6.0584,5.9817,5.9483,5.9508,5.9483,6.0286,6.109,6.1165,6.1347,6.1309,6.0769,5.999,5.8711,5.6866,5.7143,5.6952,5.4812,5.5067,5.5555,5.5293,5.476,5.46,5.5128,5.4737,5.4416,5.4416,5.4416,5.4416,5.4416,5.4416,5.4416,5.4416,5.4416,5.4416,5.4416,5.4416,5.4416,5.4416,5.4416,5.4416,5.4416,5.5206,5.6174,5.6973,5.774,5.8706,-5.8868,-4.0722,-2.3456,-3.3179,-1.7511,0.3668,1.6665,1.6979,2.2766,5.1901,3.8812,2.238,2.2813,3.687,4.313,2.7491,4.6078,6.2736,0.0,0.0,0.0,0.0,0.0,0.0,0.0,0.0,0.0,0.0,0.0,0.0,0.0,0.0,0.0,0.0,6.0863,6.0125,5.9508,5.9483,5.9483,5.9483,5.9483,5.9483,5.9483,5.9483,5.9483,5.9483,5.9483,5.9483,5.9533,5.991,6.0896,6.2248,6.3171,6.3741,6.4094,6.5371,6.5529,6.5345,6.6002,6.6159,6.6106,6.5993,6.5021,6.3721,6.2535,6.1454,6.0584,5.9817,5.9018,5.8706,5.9328,5.9541,5.9772,5.9796,6.0502,6.0788,5.8824,5.8324,5.7663,5.5904,5.5555,5.523,5.4439,5.4879,5.5343,5.5197,5.5082,5.4898,5.4668,5.4508,5.4416,5.4416,5.4416,5.4416,5.4416,5.4416,5.4416,5.4416,5.4416,5.4416,5.4416,5.4416,5.4416,5.4416,5.4416,5.4416,5.4416,5.4742,5.5206,5.6174,5.6973,5.774,-4.0832,-2.5881,-1.2919,-1.0188,0.4637,2.1421,3.1997,3.5667,4.1061,5.5765,4.6773,3.6559,3.7184,4.9616,5.5332,4.1559,5.2854,0.0,0.0,0.0,0.0,0.0,0.0,0.0,0.0,0.0,0.0,0.0,0.0,0.0,0.0,0.0,0.0,0.0,6.1344,6.0431,5.9971,5.9663,5.9483,5.9483,5.9483,5.9483,5.9483,5.9483,5.9483,5.9483,5.9483,5.9483,5.9533,5.9859,6.0663,6.1827,6.2598,6.3083,6.3448,6.4575,6.4735,6.4735,6.5053,6.5212,6.5318,6.511,6.4299,6.2949,6.2148,6.1043,6.0125,5.9663,5.9173,5.8862,5.9328,5.911,5.8936,5.9474,6.0129,6.0292,5.8758,5.8144,5.7371,5.6232,5.5439,5.4742,5.4416,5.4852,5.522,5.522,5.522,5.5013,5.4485,5.4416,5.4416,5.4416,5.4416,5.4416,5.4416,5.4416,5.4416,5.4416,5.4416,5.4416,5.4416,5.4416,5.4416,5.4416,5.4416,5.4416,5.4416,5.4416,5.4905,5.5691,5.6654,5.7449,-0.3407,-0.4021,-0.4293,3.2001,3.1533,2.8351,5.1451,5.5898,5.5551,5.6972,5.7421,5.7974,5.9045,6.0647,6.1757,6.1541,0.0,0.0,0.0,0.0,0.0,0.0,0.0,0.0,0.0,0.0,0.0,0.0,0.0,0.0,0.0,0.0,0.0,0.0,6.162,6.0889,6.0737,5.9971,5.9663,0.0,5.9508,5.9483,5.9483,5.9483,5.9483,5.9483,5.9483,5.9483,5.9483,5.9483,6.0136,6.1248,6.1855,6.2859,6.3856,6.3856,6.4363,6.4894,6.3473,6.3933,6.5186,6.4286,6.3248,6.2402,6.2118,6.0911,5.9483,5.9328,5.9533,5.9583,5.9428,5.8961,5.8822,6.0104,5.992,5.9589,5.9707,5.8656,5.7389,5.6909,5.6174,5.5368,5.4579,5.4852,5.522,5.522,5.5174,5.4967,5.4485,5.4416,5.4416,5.4416,5.4416,5.4416,5.4416,5.4416,5.4416,5.4416,5.4416,5.4416,5.4416,5.4416,5.4416,5.4416,5.4416,5.4416,5.4416,5.4416,5.4742,5.553,5.6494,5.7449,-3.4423,-1.3065,0.9716,1.8801,3.3415,4.7595,5.509,5.6033,5.5966,5.8097,5.7866,5.7422,5.8109,5.966,6.1097,0.0,0.0,0.0,0.0,0.0,0.0,0.0,0.0,0.0,0.0,0.0,0.0,0.0,0.0,0.0,0.0,0.0,0.0,6.3111,6.2815,6.222,6.162,6.0863,6.0431,0.0,5.9817,5.9483,5.9483,5.9483,5.9483,5.9483,5.9483,5.9483,5.9483,5.9483,5.9885,6.0512,6.0644,6.1508,6.2492,6.2492,6.277,6.3473,6.3771,6.4094,6.426,6.3043,6.2607,6.2092,6.0578,5.9839,5.9328,5.8706,5.9317,5.9979,5.935,5.9856,6.068,6.0964,5.9281,5.7285,5.5879,5.5856,5.5832,5.5067,5.4742,5.4579,5.4416,5.4852,5.522,5.522,5.4852,5.4531,5.4416,5.4416,5.4416,5.4416,5.4416,5.4416,5.4416,5.4416,5.4416,5.4416,5.4416,5.4416,5.4416,5.4416,5.4416,5.4416,5.4416,5.4416,5.4416,5.4416,5.4579,5.4742,5.6334,5.7132,-2.5666,-0.9104,0.6472,2.6692,4.2843,5.3934,5.5368,5.5649,5.6066,5.7075,5.7394,5.7856,5.9019,6.0429,0.0,0.0,0.0,0.0,0.0,0.0,0.0,0.0,0.0,0.0,0.0,0.0,0.0,0.0,0.0,0.0,0.0,6.431,6.3873,6.3111,6.2667,6.207,6.1318,6.0584,6.0125,6.0125,5.9637,5.9483,5.9483,5.9483,5.9483,5.9483,5.9483,5.9483,5.9483,5.9483,5.9834,6.0337,6.0613,6.124,6.2044,6.2295,6.2421,6.2471,6.321,6.327,6.2966,6.2382,6.2002,6.1621,6.0292,5.9709,5.9378,5.8714,5.8945,5.9251,5.8813,5.8823,5.9081,5.9834,5.912,5.7992,5.6923,5.6392,5.5835,5.5091,5.4742,5.4416,5.4416,5.4646,5.4921,5.5174,5.476,5.4416,5.4416,5.4416,5.4416,5.4416,5.4416,5.4252,5.376,5.4089,5.4252,5.3738,5.4252,5.4416,5.4416,5.4416,5.4416,5.4416,5.4416,5.4416,5.4416,5.4416,5.4416,5.4416,5.5691,5.6654,-1.2531,-0.406,0.1978,4.0449,5.1945,5.4138,5.4696,5.5404,5.5806,5.5791,5.705,5.8543,6.0001,0.0,0.0,0.0,0.0,0.0,0.0,0.0,0.0,0.0,0.0,0.0,0.0,0.0,0.0,0.0,0.0,0.0,6.431,6.4165,6.3873,6.3111,6.2369,6.162,6.0889,6.0125,5.9663,5.9663,5.9483,5.9483,5.9483,5.9483,5.9483,5.9483,5.9483,5.9483,5.9483,5.9483,5.9759,6.0211,6.0713,6.1291,6.1918,6.237,6.237,6.2195,6.2571,6.2395,6.1969,6.1768,6.1416,6.0914,6.018,5.9704,5.9428,5.8802,5.8654,5.8556,5.8685,5.785,5.7404,5.8488,5.9073,5.9228,5.9011,5.7557,5.6232,5.5785,5.5044,5.4416,5.4416,5.4416,5.4554,5.5013,5.4691,5.4416,5.4416,5.4416,5.4416,5.4416,5.4416,5.4089,5.3243,5.3738,5.3738,5.2913,5.3738,5.4252,5.4252,5.4252,5.4416,5.4416,5.4416,5.4416,5.4416,5.4416,5.4416,5.4416,5.5368,5.6174,-3.9806,-1.4098,1.7301,4.2378,5.0633,5.3378,5.6032,5.5415,5.5016,5.707,5.7795,5.7994,5.7755,0.0,0.0,0.0,0.0,0.0,0.0,0.0,0.0,0.0,0.0,0.0,0.0,0.0,0.0,0.0,0.0,0.0,6.431,6.358,6.3259,6.3111,6.2369,6.177,6.177,6.0889,6.0584,6.0584,5.9792,5.9483,5.9483,5.9483,5.9483,5.9483,5.9483,5.9483,5.9483,5.9483,5.9533,5.9608,5.9684,6.0362,6.1291,6.1366,6.1969,6.2672,6.2245,6.2069,6.1843,6.0864,6.0487,6.018,5.8822,5.8912,5.9198,5.768,5.863,5.9922,5.9122,5.9305,5.9463,5.9698,5.8723,5.7761,5.7862,5.6762,5.5785,5.5715,5.5044,5.4416,5.4416,5.4416,5.4439,5.4508,5.4462,5.4416,5.4416,5.4416,5.4416,5.4416,5.4416,5.4089,5.3243,5.3243,5.2913,5.1892,5.2747,5.3243,5.3243,5.4089,5.4416,5.4416,5.4416,5.4416,5.4416,5.4416,5.4416,5.4416,5.5368,5.6174,-3.4096,-0.8191,1.8591,4.1208,4.8656,5.1004,5.3657,5.4204,5.4453,5.5516,5.6202,5.7106,0.0,0.0,0.0,0.0,0.0,0.0,0.0,0.0,0.0,0.0,0.0,0.0,0.0,0.0,0.0,0.0,0.0,6.358,6.358,6.2815,6.222,6.177,6.1469,6.1015,6.0558,6.0253,5.9971,5.9946,5.9663,5.9483,5.9483,5.9483,5.9483,5.9483,5.9483,5.9483,5.9483,5.9483,5.9483,5.9533,5.9834,6.0462,6.1215,6.1542,6.1768,6.1918,6.1994,6.1592,6.0964,6.0487,6.0311,6.0054,5.9192,5.8862,5.8599,5.7653,5.7517,5.7614,5.7404,5.7359,5.7383,5.8324,5.769,5.7077,5.7653,5.6628,5.5252,5.4951,5.4742,5.4416,5.4416,5.4416,5.4416,5.4416,5.4416,5.4416,5.4416,5.4416,5.4416,5.4416,5.4416,5.3902,5.2392,5.3243,5.3078,5.1054,5.2248,5.3078,5.3078,5.3408,5.3925,5.4416,5.4416,5.4416,5.4416,5.4416,5.4416,5.4416,5.4742,5.5368,-3.1634,-1.2936,0.4075,3.0732,3.9141,4.2562,4.9686,5.249,5.3487,5.3819,5.4544,0.0,0.0,0.0,0.0,0.0,0.0,0.0,0.0,0.0,0.0,0.0,0.0,0.0,0.0,0.0,0.0,0.0,0.0,6.2815,6.2815,6.207,6.1318,6.0737,6.0431,6.0125,5.9508,5.9483,5.9483,5.9483,5.9483,5.9483,5.9483,5.9483,5.9483,5.9483,5.9483,5.9483,5.9483,5.9483,5.9483,5.9533,5.996,6.0462,6.1014,6.1416,6.1416,6.1215,6.1492,6.0856,5.9972,5.9847,5.964,5.9409,5.8986,5.8393,5.7838,5.7614,5.6804,5.6017,5.6162,5.5762,5.5577,5.6585,5.6397,5.6139,5.709,5.6279,5.5204,5.4485,5.4416,5.4416,5.4416,5.4416,5.4416,5.4416,5.4416,5.4416,5.4416,5.4416,5.4416,5.4416,5.4416,5.3738,5.1892,5.289,5.2725,5.0231,5.158,5.2415,5.2415,5.2913,5.3408,5.4089,5.4252,5.4416,5.4416,5.4416,5.4416,5.4416,5.4416,5.4882,-4.8369,-4.2302,-3.2633,0.4887,1.7016,2.469,4.4079,5.0218,5.2104,5.3195,5.3364,0.0,0.0,0.0,0.0,0.0,0.0,0.0,0.0,0.0,0.0,0.0,0.0,0.0,0.0,0.0,0.0,0.0,0.0,6.1921,6.1921,6.1193,6.0737,6.0737,5.9971,5.9483,5.9483,5.9483,5.9483,5.9483,5.9483,5.9483,5.9483,5.9483,5.9483,5.9483,5.9483,5.9483,5.9483,5.9483,5.9483,5.9483,5.9533,5.9885,6.0362,6.0387,6.0738,6.1115,6.0588,5.989,5.9133,5.8433,5.7789,5.7156,5.7132,5.7132,5.7132,5.6997,5.6997,5.6997,5.6885,5.6245,5.5738,5.5762,5.5114,5.4765,5.5577,5.5738,5.5415,5.4579,5.4416,5.4416,5.4416,5.4416,5.4416,5.4416,5.4416,5.4416,5.4416,5.4416,5.4416,5.4416,5.4416,5.3738,5.1892,5.1725,5.1054,4.923,5.0061,5.0569,5.0569,5.2248,5.3078,5.3243,5.3925,5.4416,5.4416,5.4416,5.4416,5.4416,5.4416,5.4882,-4.9509,-4.5177,-3.9285,-1.2934,0.4733,1.8051,2.7301,4.0685,5.1174,5.1423,5.223,0.0,0.0,0.0,0.0,0.0,0.0,0.0,0.0,0.0,0.0,0.0,0.0,0.0,0.0,0.0,0.0,0.0,0.0,0.0,6.1193,6.0406,5.9971,5.9971,5.9637,5.9483,5.9483,5.9483,5.9483,5.9483,5.9483,5.9483,5.9483,5.9483,5.9483,5.9483,5.9483,5.9483,5.9483,5.9483,5.9483,5.9483,5.9483,5.9834,6.0311,6.0311,6.0462,6.0588,6.0387,5.9929,5.9135,5.8129,5.8237,5.8393,5.6949,5.6813,5.6813,5.6334,5.5691,5.5368,5.5368,5.5044,5.4882,5.4882,5.4579,5.4416,5.4719,5.4882,5.4719,5.4416,5.4416,5.4416,5.4416,5.4416,5.4416,5.4416,5.4416,5.4416,5.4416,5.4416,5.4252,5.3596,5.3573,5.2913,5.1054,5.139,5.0886,4.923,4.9891,5.04,5.04,5.1054,5.1914,5.3078,5.3408,5.3925,5.4416,5.4416,5.4416,5.4416,5.4416,5.4579,-5.6373,-5.4238,-5.0544,-3.1984,-1.6517,-0.2023,1.2525,2.7958,4.0936,4.7554,5.0087,0.0,0.0,0.0,0.0,0.0,0.0,0.0,0.0,0.0,0.0,0.0,0.0,0.0,0.0,0.0,0.0,0.0,0.0,0.0,6.0278,5.9817,5.9483,5.9483,5.9483,5.9483,5.9483,5.9483,5.9483,5.9483,5.9483,5.9483,5.9483,5.9483,5.9483,5.9483,5.9483,5.9483,5.9483,5.9483,5.9483,5.9483,5.9483,5.9709,6.0035,6.0035,6.0035,6.0035,5.9566,5.9003,5.8237,5.7424,5.7582,5.7898,5.7107,5.663,5.6334,5.6013,5.5044,5.4252,5.4252,5.4252,5.4416,5.4416,5.4416,5.4416,5.4416,5.4416,5.4416,5.4416,5.4416,5.4416,5.4416,5.4416,5.4416,5.4416,5.4416,5.4252,5.3738,5.3738,5.3408,5.2248,5.2248,5.158,5.0061,5.0379,5.021,4.8716,4.923,4.9551,4.9551,4.9721,5.0738,5.2415,5.2747,5.3408,5.4416,5.4416,5.4416,5.4416,5.4416,5.4579,0.0,0.0,0.0,-5.2636,-4.711,-3.6245,0.0145,1.2149,2.1125,4.0952,4.666,0.0,0.0,0.0,0.0,0.0,0.0,0.0,0.0,0.0,0.0,0.0,0.0,0.0,0.0,0.0,0.0,0.0,0.0,5.9508,5.9483,5.9483,5.9483,5.9483,5.9483,5.9483,5.9483,5.9483,5.9483,5.9483,5.9483,5.9483,5.9483,5.9483,5.9483,5.9483,5.9483,5.9483,5.9483,5.9483,5.9483,5.9483,5.9483,5.9483,5.9483,5.9483,5.9483,5.9328,5.808,5.7107,5.631,5.631,5.5829,5.5506,5.7424,5.663,5.5183,5.599,5.5044,5.3783,5.3783,5.4089,5.4416,5.4416,5.4416,5.4416,5.4416,5.4416,5.4416,5.4416,5.4416,5.4416,5.4416,5.4416,5.4416,5.4416,5.4416,5.3902,5.2559,5.237,5.1892,5.0569,5.04,5.0061,4.9038,4.9038,4.8544,4.7701,4.7701,4.7701,4.7701,4.8544,4.9551,5.1054,5.1892,5.3056,5.4416,5.4416,5.4416,5.4416,5.4416,5.4882,-6.9532,0.0,0.0,0.0,0.0,0.0,-3.2137,-0.7816,1.4305,2.0682,3.4024,0.0,0.0,0.0,0.0,0.0,0.0,0.0,0.0,0.0,0.0,0.0,0.0,0.0,0.0,0.0,0.0,0.0,5.9328,5.9198,5.9483,5.9483,5.9483,5.9483,5.9483,5.9483,5.9483,5.9483,5.9483,5.9483,5.9483,5.9483,5.9483,5.9483,5.9483,5.9483,5.9483,5.9483,5.9483,5.9483,5.9483,5.9483,5.9483,5.9483,5.9483,5.9483,5.9483,5.9483,5.9018,5.8862,5.855,5.7582,5.7107,5.663,5.5805,5.5021,5.4533,5.4043,5.3573,5.3266,5.3266,5.3596,5.3947,5.3947,5.4252,5.4416,5.4416,5.4416,5.4416,5.4416,5.4416,5.4416,5.4416,5.4416,5.4416,5.4416,5.3573,5.289,5.2392,5.1558,5.0548,4.9551,4.938,4.9038,4.8199,4.8047,4.8047,4.7701,4.7701,4.7701,4.7701,4.7874,4.8544,4.9551,5.0886,5.1892,5.289,5.3902,5.4416,5.4416,5.4416,5.4579,-7.0705,-7.1567,-7.2774,-7.4223,0.0,0.0,-3.9357,-1.8547,0.2113,0.0,3.2639,0.0,0.0,0.0,0.0,0.0,0.0,0.0,0.0,0.0,0.0,0.0,0.0,0.0,0.0,0.0,0.0,0.0,5.8887,5.8887,5.9198,5.9198,5.9328,5.9483,5.9483,5.9483,5.9483,5.9483,5.9483,5.9483,5.9483,5.9483,5.9483,5.9483,5.9483,5.9483,5.9483,5.9483,5.9483,5.9483,5.9483,5.9483,5.9483,5.9483,5.9483,5.9483,5.9483,5.9483,5.8862,5.8706,5.855,5.7898,5.7266,5.663,5.599,5.4998,5.4043,5.355,5.3078,5.2913,5.3078,5.3266,5.3431,5.3431,5.376,5.3925,5.3925,5.4089,5.4252,5.4416,5.4416,5.4416,5.4416,5.3902,5.3573,5.3573,5.2392,5.139,5.0696,5.004,4.9038,4.8007,4.7834,4.7681,4.7181,4.7181,4.7007,4.6483,4.6832,4.7007,4.6483,4.6832,4.7681,4.8695,5.004,5.1558,5.3221,5.4066,5.4416,5.4416,5.4416,5.4416,-7.2295,-7.3222,-7.4292,-7.6326,-7.7568,0.0,-3.652,-2.7318,-1.5849,0.0,2.9014,0.0,0.0,0.0,0.0,0.0,0.0,0.0,0.0,0.0,0.0,0.0,0.0,0.0,0.0,0.0,5.7516,5.8163,5.8261,5.8443,5.8887,5.8706,5.8887,5.9353,5.9328,5.9328,5.9508,5.9508,5.9483,5.9483,5.9483,5.9483,5.9483,5.9483,5.9483,5.9483,5.9483,5.9483,5.9483,5.9483,5.9483,5.9483,5.9483,5.9483,5.9483,5.9483,5.9483,5.9328,5.8212,5.7765,5.7582,5.7582,5.663,5.5691,5.6789,5.5483,5.355,5.355,5.2913,5.2437,5.2935,5.2913,5.3078,5.3078,5.3078,5.3078,5.3078,5.3431,5.3783,5.4252,5.4416,5.4416,5.4416,5.3408,5.2559,5.2392,5.1222,4.987,4.8503,4.8159,4.7661,4.6483,4.6308,4.6308,4.6308,4.6308,4.5958,4.5078,4.5783,4.5783,4.4902,4.5783,4.6638,4.7814,4.953,5.1558,5.423,5.4416,5.4416,5.4416,5.4416,5.4416,-6.9667,-7.3222,-7.3878,-7.4326,-7.5982,0.0,-6.9092,-5.7525,-4.587,-3.7746,-2.4096,-1.2986,0.0,0.0,0.0,0.0,0.0,0.0,0.0,0.0,0.0,0.0,0.0,0.0,0.0,0.0,5.6565,5.7106,5.7883,5.831,5.8443,5.7789,5.7789,5.8443,5.8237,5.8237,5.9043,5.9328,5.9483,5.9483,5.9483,5.9483,5.9483,5.9483,5.9483,5.9483,5.9483,5.9483,5.9483,5.9483,5.9483,5.9483,5.9483,5.9483,5.9483,5.9483,5.9483,5.9483,5.9173,5.8393,5.7582,5.7582,5.5966,5.4207,5.4347,5.3386,5.2125,5.2125,5.2125,5.1958,5.1958,5.227,5.2581,5.2581,5.2747,5.3078,5.3078,5.3078,5.3266,5.3408,5.3902,5.4252,5.3947,5.3925,5.3573,5.2536,5.1222,4.987,4.8503,4.7314,4.6638,4.6308,4.6308,4.6308,4.6308,4.6308,4.6308,4.5958,4.5431,4.5078,4.4902,4.5078,4.5236,4.5588,4.8675,5.1222,5.2725,5.3902,5.4416,5.4416,5.4416,5.4416,-7.1791,-7.5809,-7.6085,-7.6085,-7.732,0.0,0.0,-5.9596,-5.1666,-4.2362,-3.2757,-2.5775,-2.5303,0.0,0.0,0.0,0.0,0.0,0.0,0.0,0.0,0.0,0.0,0.0,0.0,0.0,5.5033,5.5611,5.651,5.7156,5.7314,5.7314,5.7631,5.831,5.8129,5.8104,5.8599,5.8731,5.8887,5.8887,5.8887,5.9043,5.9198,5.9043,5.9043,5.9508,5.9043,5.9043,5.9198,5.9043,5.8887,5.8887,5.9353,5.9483,5.9483,5.9483,5.9483,5.9328,5.8706,5.808,5.7424,5.6813,5.5345,5.3715,5.3715,5.2747,5.1791,5.1791,5.1791,5.1791,5.1791,5.1958,5.2103,5.2103,5.227,5.2437,5.2437,5.2603,5.2769,5.2437,5.3101,5.376,5.3431,5.2747,5.187,5.1201,4.953,4.8179,4.7314,4.6638,4.6308,4.6308,4.6308,4.6133,4.5607,4.5607,4.5412,4.4864,4.4883,4.4706,4.4174,4.5059,4.6289,4.7641,4.953,5.1054,5.237,5.3056,5.3386,5.3408,5.4066,5.4416,-7.489,-7.9178,-7.893,-7.893,-7.9252,-7.5637,0.0,0.0,0.0,0.0,0.0,-3.7333,-3.8265,0.0,0.0,0.0,0.0,0.0,0.0,0.0,0.0,0.0,0.0,0.0,0.0,0.0,4.7571,5.3697,5.0153,5.0003,5.5711,5.6654,5.7156,5.7813,5.7813,5.7971,5.8129,5.8286,5.831,5.831,5.831,5.8443,5.8731,5.8443,5.8599,5.9018,5.8261,5.8261,5.855,5.8129,5.808,5.8295,5.8893,5.9178,5.9178,5.9232,5.9182,5.9028,5.7883,5.7279,5.6828,5.5644,5.437,5.3386,5.3386,5.2603,5.1791,5.1791,5.1791,5.1791,5.1791,5.1791,5.1791,5.1791,5.1791,5.1791,5.1791,5.2125,5.2103,5.1791,5.227,5.2581,5.2913,5.139,5.004,4.97,4.8007,4.6638,4.6308,4.6308,4.6308,4.6133,4.5958,4.5783,4.4902,4.4902,4.4529,4.38,4.4352,4.4174,4.3248,4.4687,4.6967,4.9891,4.987,5.0358,5.1536,5.187,5.2226,5.237,5.3738,5.4416,-7.5859,-8.2074,-8.0781,-8.0781,-7.967,-7.8425,-7.7824,0.0,-7.817,-7.7651,0.0,0.0,-7.9643,0.0,0.0,0.0,0.0,0.0,0.0,0.0,0.0,0.0,0.0,0.0,0.0,0.0,0.0,5.1202,3.1574,2.9124,5.3333,5.4742,5.5206,5.6013,5.6334,5.6973,5.7655,5.8129,5.831,5.831,5.831,5.831,5.8286,5.831,5.7971,5.729,5.7132,5.7132,5.729,5.7132,5.7339,5.7703,5.8037,5.8191,5.8295,5.8101,5.8077,5.8001,5.7197,5.6094,5.5057,5.4209,5.3078,5.1958,5.1958,5.1958,5.1791,5.1791,5.1791,5.1791,5.1791,5.1791,5.1791,5.1791,5.1791,5.1791,5.1791,5.1791,5.1791,5.1791,5.1265,5.1076,5.2248,5.1914,5.1054,4.987,4.8846,4.7661,4.6464,4.6308,4.5958,4.5078,4.5078,4.5078,4.4902,4.4902,4.4902,4.4725,4.3978,4.3087,4.2209,4.2389,4.4491,4.8503,4.7773,4.7773,4.8846,5.004,5.1222,5.237,5.3738,5.4416,-7.9644,-7.8362,-7.3438,-8.1352,-7.6582,0.0,-8.0214,0.0,-8.3904,0.0,0.0,0.0,0.0,0.0,0.0,0.0,0.0,0.0,0.0,0.0,-2.5757,0.0,0.0,0.0,0.0,0.0,0.0,0.0,0.0,3.8335,5.1354,5.3033,5.3692,5.4184,5.4859,5.5368,5.5715,5.6518,5.6837,5.6837,5.7339,5.7655,5.7813,5.7339,5.7169,5.7301,5.6697,5.6382,5.62,5.6382,5.608,5.532,5.6123,5.6712,5.7265,5.7194,5.7272,5.6993,5.547,5.4633,5.4324,5.3086,5.2292,5.1791,5.1791,5.1791,5.1791,5.1791,5.1791,5.1791,5.1791,5.1791,5.1791,5.1791,5.1791,5.1791,5.1791,5.1791,5.1623,5.1097,5.0738,5.04,5.04,4.987,4.9188,4.8675,4.7661,4.6813,4.5607,4.5431,4.5431,4.4902,4.4352,4.3978,4.3978,4.3463,4.3463,4.3978,4.4174,4.38,4.2909,4.3586,4.5159,4.7428,4.7081,4.7428,4.8331,4.97,5.0738,5.1222,5.2559,5.3738,-7.6999,0.0,0.0,0.0,0.0,0.0,0.0,0.0,0.0,0.0,0.0,0.0,0.0,0.0,0.0,0.0,0.0,0.0,0.0,-6.2696,0.0,0.0,0.0,0.0,0.0,0.0,0.0,0.0,0.0,0.0,4.8815,5.08,5.1805,5.2326,5.3363,5.4066,5.4066,5.4882,5.5368,5.5368,5.6197,5.6837,5.6973,5.6612,5.6577,5.7023,5.596,5.5328,5.5263,5.5004,5.441,5.352,5.4337,5.5041,5.5564,5.5893,5.5893,5.5588,5.3725,5.3084,5.3196,5.2116,5.1791,5.1791,5.1791,5.1791,5.1791,5.1791,5.1791,5.1791,5.1791,5.1623,5.1455,5.1455,5.1287,5.1076,5.1114,5.1179,5.0907,5.0251,4.9977,4.938,4.8695,4.8179,4.7661,4.7661,4.6638,4.5783,4.5431,4.5078,4.4725,4.4529,4.38,4.3248,4.3087,4.2371,4.2371,4.3248,4.353,4.3512,4.3426,4.3941,4.4807,4.6405,4.6036,4.656,4.7834,4.9188,5.004,5.04,5.2226,5.3386,0.0,0.0,0.0,-8.6204,0.0,0.0,0.0,0.0,-8.6586,0.0,0.0,0.0,0.0,0.0,0.0,0.0,0.0,0.0,0.0,0.0,0.0,0.0,0.0,0.0,0.0,0.0,0.0,0.0,0.0,0.0,4.5394,4.7865,4.9064,5.0315,5.216,5.3011,5.3011,5.4043,5.4416,5.4416,5.5368,5.5691,5.5852,5.6678,5.6494,5.5644,5.4349,5.4096,5.4301,5.2533,5.2286,5.3013,5.3265,5.3235,5.2811,5.3569,5.387,5.3641,5.2138,5.1371,5.1323,5.1638,5.1791,5.1791,5.1791,5.1791,5.1791,5.1791,5.1791,5.1791,5.1791,5.1097,5.04,5.04,4.9721,4.9255,4.968,4.9427,4.9255,4.968,4.8748,4.7834,4.7834,4.7661,4.7661,4.7661,4.6114,4.5255,4.6133,4.5431,4.4529,4.3623,4.3426,4.3087,4.2209,4.2029,4.2371,4.3248,4.1318,4.1104,4.3229,4.1652,4.2012,4.4902,4.3978,4.451,4.6308,4.7661,4.9017,5.04,5.3078,5.4416,0.0,0.0,-4.7188,-7.1621,0.0,0.0,0.0,0.0,0.0,0.0,0.0,0.0,0.0,0.0,0.0,0.0,0.0,0.0,0.0,0.0,0.0,0.0,0.0,0.0,0.0,0.0,0.0,0.0,0.0,0.0,0.0,4.3457,4.5045,4.7041,4.8249,4.9467,5.0358,5.1892,5.2559,5.2559,5.4066,5.4882,5.4882,5.5339,5.5198,5.4372,5.501,5.4527,5.336,5.3333,5.2694,5.156,5.2,5.1678,5.1053,5.2436,5.3068,5.2835,5.149,5.0827,5.0655,5.1157,5.1529,5.1791,5.1791,5.1791,5.1623,5.1097,5.0929,5.076,5.0061,4.9511,4.9111,4.9111,4.8713,4.8358,4.8692,4.8669,4.8645,4.8449,4.8077,4.7488,4.6813,4.6813,4.6813,4.6813,4.5763,4.4706,4.451,4.3623,4.2927,4.2551,4.1832,4.1652,4.2029,4.1781,4.1567,4.1634,4.1835,4.18,4.1634,4.1489,4.2029,4.2927,4.3266,4.3978,4.5431,4.8331,4.987,5.04,5.2226,5.3573,-4.0218,-3.5214,0.0,-5.8128,-5.7366,0.0,-7.9686,0.0,-8.6072,0.0,0.0,0.0,0.0,0.0,0.0,0.0,0.0,0.0,0.0,-8.7335,0.0,0.0,0.0,0.0,0.0,0.0,0.0,0.0,0.0,0.0,0.0,0.0,4.1529,4.3708,4.4945,4.6366,4.7794,4.9488,5.0441,5.0481,5.2823,5.3647,5.3302,5.4303,5.4303,5.3658,5.4592,5.4088,5.265,5.2921,5.2059,5.0787,5.1063,5.059,4.9786,5.1208,5.1516,5.1122,5.0567,5.0418,5.0393,5.0917,5.1398,5.1791,5.1455,5.1265,5.1097,5.0231,4.9891,4.9721,4.9209,4.8537,4.7848,4.7848,4.7474,4.7101,4.7397,4.7596,4.7581,4.7198,4.7287,4.6987,4.6464,4.5958,4.5783,4.5783,4.5059,4.4156,4.3426,4.2551,4.2029,4.2029,4.1489,4.1127,4.1489,4.1139,4.1086,4.1093,4.1657,4.1622,4.111,4.1308,4.1669,4.2029,4.2909,4.38,4.4902,4.8159,4.987,5.04,5.1725,5.289]}]]